Wetterdaten: Montag, 21.11.2016
Datum Zeit Temp. A. Temp. A. max Feuchte A. Luftdruck Regen Wind Richtung Richtung Sonnenschein ET UV Solar Taupunkt Windböen
21.11.2016 00:00 5,0 °C 5,0 °C 77 % 1009,4 hPa 0,0 mm 2,3 km/h (1 Bft) O-SO 103 ° 0 min 0,000 mm 0,0 UV-I 0 W/m² 1,3 °C 4,8 km/h (1 Bft)
21.11.2016 00:01 5,1 °C 5,1 °C 76 % 1009,4 hPa 0,0 mm 2,3 km/h (1 Bft) O-SO 113 ° 0 min 0,000 mm 0,0 UV-I 0 W/m² 1,2 °C 4,8 km/h (1 Bft)
21.11.2016 00:02 5,2 °C 5,2 °C 76 % 1009,2 hPa 0,0 mm 4,1 km/h (1 Bft) S-SO 161 ° 0 min 0,000 mm 0,0 UV-I 0 W/m² 1,3 °C 6,4 km/h (2 Bft)
21.11.2016 00:03 5,4 °C 5,4 °C 74 % 1009,3 hPa 0,0 mm 4,6 km/h (1 Bft) SW 232 ° 0 min 0,000 mm 0,0 UV-I 0 W/m² 1,1 °C 6,4 km/h (2 Bft)
21.11.2016 00:04 5,6 °C 5,6 °C 72 % 1009,4 hPa 0,0 mm 4,0 km/h (1 Bft) W-SW 246 ° 0 min 0,000 mm 0,0 UV-I 0 W/m² 1,0 °C 6,4 km/h (2 Bft)
21.11.2016 00:05 5,8 °C 5,8 °C 72 % 1009,3 hPa 0,0 mm 1,3 km/h (1 Bft) W-SW 247 ° 0 min 0,000 mm 0,0 UV-I 0 W/m² 1,2 °C 3,2 km/h (1 Bft)
21.11.2016 00:06 5,8 °C 5,8 °C 74 % 1009,3 hPa 0,0 mm 0,9 km/h (0 Bft) W-SW 247 ° 0 min 0,000 mm 0,0 UV-I 0 W/m² 1,5 °C 1,6 km/h (1 Bft)
21.11.2016 00:07 5,9 °C 5,9 °C 73 % 1009,3 hPa 0,0 mm 0,5 km/h (0 Bft) W-SW 247 ° 0 min 0,000 mm 0,0 UV-I 0 W/m² 1,4 °C 3,2 km/h (1 Bft)
21.11.2016 00:08 6,2 °C 6,2 °C 69 % 1009,4 hPa 0,0 mm 3,8 km/h (1 Bft) W-SW 244 ° 0 min 0,000 mm 0,0 UV-I 0 W/m² 0,9 °C 4,8 km/h (1 Bft)
21.11.2016 00:09 6,4 °C 6,4 °C 69 % 1009,4 hPa 0,0 mm 2,0 km/h (1 Bft) W-SW 244 ° 0 min 0,000 mm 0,0 UV-I 0 W/m² 1,1 °C 4,8 km/h (1 Bft)
21.11.2016 00:10 6,6 °C 6,6 °C 71 % 1009,4 hPa 0,0 mm 2,4 km/h (1 Bft) O-SO 119 ° 0 min 0,000 mm 0,0 UV-I 0 W/m² 1,7 °C 4,8 km/h (1 Bft)
21.11.2016 00:11 6,7 °C 6,7 °C 69 % 1009,4 hPa 0,0 mm 5,8 km/h (2 Bft) O-NO 67 ° 0 min 0,000 mm 0,0 UV-I 0 W/m² 1,4 °C 8,0 km/h (2 Bft)
21.11.2016 00:12 6,8 °C 6,8 °C 70 % 1009,3 hPa 0,0 mm 5,0 km/h (1 Bft) O-NO 74 ° 0 min 0,000 mm 0,0 UV-I 0 W/m² 1,7 °C 8,0 km/h (2 Bft)
21.11.2016 00:13 6,9 °C 6,9 °C 70 % 1009,4 hPa 0,0 mm 3,8 km/h (1 Bft) O-SO 121 ° 0 min 0,000 mm 0,0 UV-I 0 W/m² 1,8 °C 6,4 km/h (2 Bft)
21.11.2016 00:14 7,0 °C 7,0 °C 70 % 1009,3 hPa 0,0 mm 0,3 km/h (0 Bft) O-SO 121 ° 0 min 0,000 mm 0,0 UV-I 0 W/m² 1,9 °C 1,6 km/h (1 Bft)
21.11.2016 00:15 7,1 °C 7,1 °C 67 % 1009,4 hPa 0,0 mm 1,3 km/h (1 Bft) O-SO 121 ° 0 min 0,000 mm 0,0 UV-I 0 W/m² 1,4 °C 3,2 km/h (1 Bft)
21.11.2016 00:16 7,2 °C 7,2 °C 66 % 1009,4 hPa 0,0 mm 1,6 km/h (1 Bft) O-SO 109 ° 0 min 0,000 mm 0,0 UV-I 0 W/m² 1,3 °C 4,8 km/h (1 Bft)
21.11.2016 00:17 7,3 °C 7,3 °C 67 % 1009,3 hPa 0,0 mm 4,4 km/h (1 Bft) O-SO 109 ° 0 min 0,000 mm 0,0 UV-I 0 W/m² 1,6 °C 4,8 km/h (1 Bft)
21.11.2016 00:18 7,3 °C 7,3 °C 68 % 1009,3 hPa 0,0 mm 4,2 km/h (1 Bft) O-SO 109 ° 0 min 0,000 mm 0,0 UV-I 0 W/m² 1,8 °C 4,8 km/h (1 Bft)
21.11.2016 00:19 7,4 °C 7,4 °C 67 % 1009,3 hPa 0,0 mm 3,7 km/h (1 Bft) S-SO 147 ° 0 min 0,000 mm 0,0 UV-I 0 W/m² 1,7 °C 4,8 km/h (1 Bft)
21.11.2016 00:20 7,5 °C 7,5 °C 65 % 1009,4 hPa 0,0 mm 2,4 km/h (1 Bft) S-SO 147 ° 0 min 0,000 mm 0,0 UV-I 0 W/m² 1,4 °C 4,8 km/h (1 Bft)
21.11.2016 00:21 7,6 °C 7,6 °C 67 % 1009,4 hPa 0,0 mm 1,9 km/h (1 Bft) S-SO 147 ° 0 min 0,000 mm 0,0 UV-I 0 W/m² 1,9 °C 4,8 km/h (1 Bft)
21.11.2016 00:22 7,7 °C 7,7 °C 66 % 1009,4 hPa 0,0 mm 3,8 km/h (1 Bft) S-SO 147 ° 0 min 0,000 mm 0,0 UV-I 0 W/m² 1,8 °C 4,8 km/h (1 Bft)
21.11.2016 00:23 7,7 °C 7,7 °C 64 % 1009,4 hPa 0,0 mm 2,7 km/h (1 Bft) SO 146 ° 0 min 0,000 mm 0,0 UV-I 0 W/m² 1,3 °C 4,8 km/h (1 Bft)
21.11.2016 00:24 7,8 °C 7,8 °C 65 % 1009,4 hPa 0,0 mm 5,0 km/h (1 Bft) SO 133 ° 0 min 0,000 mm 0,0 UV-I 0 W/m² 1,6 °C 6,4 km/h (2 Bft)
21.11.2016 00:25 7,9 °C 7,9 °C 64 % 1009,4 hPa 0,0 mm 4,4 km/h (1 Bft) O-SO 105 ° 0 min 0,000 mm 0,0 UV-I 0 W/m² 1,5 °C 6,4 km/h (2 Bft)
21.11.2016 00:26 7,9 °C 7,9 °C 67 % 1009,4 hPa 0,0 mm 8,1 km/h (2 Bft) O-NO 74 ° 0 min 0,000 mm 0,0 UV-I 0 W/m² 2,2 °C 12,9 km/h (3 Bft)
21.11.2016 00:27 8,0 °C 8,0 °C 65 % 1009,3 hPa 0,0 mm 4,6 km/h (1 Bft) O 98 ° 0 min 0,000 mm 0,0 UV-I 0 W/m² 1,8 °C 6,4 km/h (2 Bft)
21.11.2016 00:28 8,1 °C 8,1 °C 64 % 1009,4 hPa 0,0 mm 2,1 km/h (1 Bft) O 98 ° 0 min 0,000 mm 0,0 UV-I 0 W/m² 1,7 °C 3,2 km/h (1 Bft)
21.11.2016 00:29 8,1 °C 8,1 °C 65 % 1009,4 hPa 0,0 mm 2,9 km/h (1 Bft) O-NO 69 ° 0 min 0,000 mm 0,0 UV-I 0 W/m² 1,9 °C 6,4 km/h (2 Bft)
21.11.2016 00:30 8,1 °C 8,1 °C 66 % 1009,4 hPa 0,0 mm 5,6 km/h (1 Bft) O 98 ° 0 min 0,000 mm 0,0 UV-I 0 W/m² 2,1 °C 11,3 km/h (2 Bft)
21.11.2016 00:31 8,2 °C 8,2 °C 66 % 1009,5 hPa 0,0 mm 1,6 km/h (1 Bft) O 98 ° 0 min 0,000 mm 0,0 UV-I 0 W/m² 2,2 °C 4,8 km/h (1 Bft)
21.11.2016 00:32 8,2 °C 8,2 °C 64 % 1009,4 hPa 0,0 mm 3,7 km/h (1 Bft) O 98 ° 0 min 0,000 mm 0,0 UV-I 0 W/m² 1,8 °C 6,4 km/h (2 Bft)
21.11.2016 00:33 8,3 °C 8,3 °C 65 % 1009,4 hPa 0,0 mm 2,3 km/h (1 Bft) O-SO 108 ° 0 min 0,000 mm 0,0 UV-I 0 W/m² 2,1 °C 4,8 km/h (1 Bft)
21.11.2016 00:34 8,3 °C 8,3 °C 64 % 1009,4 hPa 0,0 mm 1,9 km/h (1 Bft) SO 142 ° 0 min 0,000 mm 0,0 UV-I 0 W/m² 1,9 °C 3,2 km/h (1 Bft)
21.11.2016 00:35 8,3 °C 8,3 °C 64 % 1009,4 hPa 0,0 mm 0,9 km/h (0 Bft) SO 142 ° 0 min 0,000 mm 0,0 UV-I 0 W/m² 1,9 °C 1,6 km/h (1 Bft)
21.11.2016 00:36 8,3 °C 8,3 °C 64 % 1009,4 hPa 0,0 mm 3,5 km/h (1 Bft) SO 132 ° 0 min 0,000 mm 0,0 UV-I 0 W/m² 1,9 °C 4,8 km/h (1 Bft)
21.11.2016 00:37 8,3 °C 8,3 °C 64 % 1009,3 hPa 0,0 mm 5,0 km/h (1 Bft) O-NO 74 ° 0 min 0,000 mm 0,0 UV-I 0 W/m² 1,9 °C 6,4 km/h (2 Bft)
21.11.2016 00:38 8,4 °C 8,4 °C 63 % 1009,4 hPa 0,0 mm 3,5 km/h (1 Bft) SW 225 ° 0 min 0,000 mm 0,0 UV-I 0 W/m² 1,8 °C 4,8 km/h (1 Bft)
21.11.2016 00:39 8,4 °C 8,4 °C 61 % 1009,4 hPa 0,0 mm 4,2 km/h (1 Bft) W 278 ° 0 min 0,000 mm 0,0 UV-I 0 W/m² 1,3 °C 4,8 km/h (1 Bft)
21.11.2016 00:40 8,4 °C 8,4 °C 62 % 1009,4 hPa 0,0 mm 1,6 km/h (1 Bft) W 278 ° 0 min 0,000 mm 0,0 UV-I 0 W/m² 1,6 °C 3,2 km/h (1 Bft)
21.11.2016 00:41 8,6 °C 8,6 °C 63 % 1009,4 hPa 0,0 mm 1,1 km/h (1 Bft) W-NW 294 ° 0 min 0,000 mm 0,0 UV-I 0 W/m² 2,0 °C 3,2 km/h (1 Bft)
21.11.2016 00:42 8,5 °C 8,6 °C 64 % 1009,3 hPa 0,0 mm 4,8 km/h (1 Bft) N-NO 27 ° 0 min 0,000 mm 0,0 UV-I 0 W/m² 2,1 °C 6,4 km/h (2 Bft)
21.11.2016 00:43 8,6 °C 8,6 °C 66 % 1009,3 hPa 0,0 mm 3,0 km/h (1 Bft) S-SO 154 ° 0 min 0,000 mm 0,0 UV-I 0 W/m² 2,6 °C 4,8 km/h (1 Bft)
21.11.2016 00:44 8,6 °C 8,6 °C 63 % 1009,3 hPa 0,0 mm 1,0 km/h (0 Bft) S-SO 154 ° 0 min 0,000 mm 0,0 UV-I 0 W/m² 2,0 °C 3,2 km/h (1 Bft)
21.11.2016 00:45 8,6 °C 8,6 °C 62 % 1009,3 hPa 0,0 mm 3,0 km/h (1 Bft) S-SO 154 ° 0 min 0,000 mm 0,0 UV-I 0 W/m² 1,7 °C 4,8 km/h (1 Bft)
21.11.2016 00:46 8,6 °C 8,6 °C 64 % 1009,3 hPa 0,0 mm 3,3 km/h (1 Bft) O-SO 113 ° 0 min 0,000 mm 0,0 UV-I 0 W/m² 2,2 °C 6,4 km/h (2 Bft)
21.11.2016 00:47 8,6 °C 8,6 °C 63 % 1009,3 hPa 0,0 mm 2,7 km/h (1 Bft) S-SO 150 ° 0 min 0,000 mm 0,0 UV-I 0 W/m² 2,0 °C 4,8 km/h (1 Bft)
21.11.2016 00:48 8,7 °C 8,7 °C 61 % 1009,4 hPa 0,0 mm 2,0 km/h (1 Bft) S 184 ° 0 min 0,000 mm 0,0 UV-I 0 W/m² 1,6 °C 3,2 km/h (1 Bft)
21.11.2016 00:49 8,7 °C 8,7 °C 61 % 1009,3 hPa 0,0 mm 3,6 km/h (1 Bft) S-SW 202 ° 0 min 0,000 mm 0,0 UV-I 0 W/m² 1,6 °C 6,4 km/h (2 Bft)
21.11.2016 00:50 8,7 °C 8,7 °C 63 % 1009,3 hPa 0,0 mm 1,5 km/h (1 Bft) S-SW 202 ° 0 min 0,000 mm 0,0 UV-I 0 W/m² 2,1 °C 3,2 km/h (1 Bft)
21.11.2016 00:51 8,7 °C 8,7 °C 63 % 1009,3 hPa 0,0 mm 4,0 km/h (1 Bft) O 81 ° 0 min 0,000 mm 0,0 UV-I 0 W/m² 2,1 °C 4,8 km/h (1 Bft)
21.11.2016 00:52 8,7 °C 8,7 °C 64 % 1009,3 hPa 0,0 mm 5,9 km/h (2 Bft) O-SO 105 ° 0 min 0,000 mm 0,0 UV-I 0 W/m² 2,3 °C 11,3 km/h (2 Bft)
21.11.2016 00:53 8,8 °C 8,8 °C 62 % 1009,2 hPa 0,0 mm 6,7 km/h (2 Bft) S 174 ° 0 min 0,000 mm 0,0 UV-I 0 W/m² 1,9 °C 11,3 km/h (2 Bft)
21.11.2016 00:54 8,8 °C 8,8 °C 60 % 1009,3 hPa 0,0 mm 1,9 km/h (1 Bft) SO 141 ° 0 min 0,000 mm 0,0 UV-I 0 W/m² 1,5 °C 6,4 km/h (2 Bft)
21.11.2016 00:55 8,8 °C 8,8 °C 60 % 1009,3 hPa 0,0 mm 2,8 km/h (1 Bft) S-SW 200 ° 0 min 0,000 mm 0,0 UV-I 0 W/m² 1,5 °C 6,4 km/h (2 Bft)
21.11.2016 00:56 8,9 °C 8,9 °C 60 % 1009,3 hPa 0,0 mm 1,7 km/h (1 Bft) S-SO 163 ° 0 min 0,000 mm 0,0 UV-I 0 W/m² 1,6 °C 3,2 km/h (1 Bft)
21.11.2016 00:57 8,9 °C 8,9 °C 62 % 1009,3 hPa 0,0 mm 3,6 km/h (1 Bft) SO 145 ° 0 min 0,000 mm 0,0 UV-I 0 W/m² 2,0 °C 6,4 km/h (2 Bft)
21.11.2016 00:58 8,9 °C 8,9 °C 63 % 1009,2 hPa 0,0 mm 3,8 km/h (1 Bft) O 86 ° 0 min 0,000 mm 0,0 UV-I 0 W/m² 2,2 °C 4,8 km/h (1 Bft)
21.11.2016 00:59 8,9 °C 8,9 °C 63 % 1009,2 hPa 0,0 mm 4,0 km/h (1 Bft) O 96 ° 0 min 0,000 mm 0,0 UV-I 0 W/m² 2,2 °C 6,4 km/h (2 Bft)
21.11.2016 01:00 8,9 °C 8,9 °C 62 % 1009,3 hPa 0,0 mm 1,4 km/h (1 Bft) O-SO 111 ° 0 min 0,025 mm 0,0 UV-I 0 W/m² 2,0 °C 6,4 km/h (2 Bft)
21.11.2016 01:01 8,9 °C 9,0 °C 61 % 1009,2 hPa 0,0 mm 3,0 km/h (1 Bft) O-SO 115 ° 0 min 0,000 mm 0,0 UV-I 0 W/m² 1,8 °C 6,4 km/h (2 Bft)
21.11.2016 01:02 9,0 °C 9,0 °C 61 % 1009,3 hPa 0,0 mm 0,3 km/h (0 Bft) O-SO 115 ° 0 min 0,000 mm 0,0 UV-I 0 W/m² 1,9 °C 1,6 km/h (1 Bft)
21.11.2016 01:03 9,0 °C 9,0 °C 60 % 1009,2 hPa 0,0 mm 0,1 km/h (0 Bft) O-SO 115 ° 0 min 0,000 mm 0,0 UV-I 0 W/m² 1,7 °C 1,6 km/h (1 Bft)
21.11.2016 01:04 9,1 °C 9,1 °C 60 % 1009,2 hPa 0,0 mm 0,1 km/h (0 Bft) O-SO 115 ° 0 min 0,000 mm 0,0 UV-I 0 W/m² 1,8 °C 1,6 km/h (1 Bft)
21.11.2016 01:05 9,1 °C 9,1 °C 59 % 1009,2 hPa 0,0 mm 1,5 km/h (1 Bft) O-SO 115 ° 0 min 0,000 mm 0,0 UV-I 0 W/m² 1,5 °C 3,2 km/h (1 Bft)
21.11.2016 01:06 9,0 °C 9,1 °C 59 % 1009,1 hPa 0,0 mm 1,0 km/h (0 Bft) O-SO 115 ° 0 min 0,000 mm 0,0 UV-I 0 W/m² 1,4 °C 1,6 km/h (1 Bft)
21.11.2016 01:07 9,1 °C 9,1 °C 60 % 1009,1 hPa 0,0 mm 2,1 km/h (1 Bft) O-SO 115 ° 0 min 0,000 mm 0,0 UV-I 0 W/m² 1,8 °C 3,2 km/h (1 Bft)
21.11.2016 01:08 9,0 °C 9,1 °C 61 % 1009,1 hPa 0,0 mm 3,0 km/h (1 Bft) O-NO 66 ° 0 min 0,000 mm 0,0 UV-I 0 W/m² 1,9 °C 4,8 km/h (1 Bft)
21.11.2016 01:09 9,1 °C 9,1 °C 61 % 1009,1 hPa 0,0 mm 4,0 km/h (1 Bft) SO 134 ° 0 min 0,000 mm 0,0 UV-I 0 W/m² 2,0 °C 6,4 km/h (2 Bft)
21.11.2016 01:10 9,0 °C 9,1 °C 60 % 1009,2 hPa 0,0 mm 2,1 km/h (1 Bft) SO 132 ° 0 min 0,000 mm 0,0 UV-I 0 W/m² 1,7 °C 4,8 km/h (1 Bft)
21.11.2016 01:11 9,0 °C 9,1 °C 60 % 1009,2 hPa 0,0 mm 1,7 km/h (1 Bft) SO 132 ° 0 min 0,000 mm 0,0 UV-I 0 W/m² 1,7 °C 3,2 km/h (1 Bft)
21.11.2016 01:12 9,1 °C 9,1 °C 61 % 1009,1 hPa 0,0 mm 3,3 km/h (1 Bft) NO 55 ° 0 min 0,000 mm 0,0 UV-I 0 W/m² 2,0 °C 6,4 km/h (2 Bft)
21.11.2016 01:13 9,1 °C 9,1 °C 61 % 1009,1 hPa 0,0 mm 4,3 km/h (1 Bft) O 90 ° 0 min 0,000 mm 0,0 UV-I 0 W/m² 2,0 °C 6,4 km/h (2 Bft)
21.11.2016 01:14 9,0 °C 9,1 °C 61 % 1009,1 hPa 0,0 mm 2,4 km/h (1 Bft) O 90 ° 0 min 0,000 mm 0,0 UV-I 0 W/m² 1,9 °C 4,8 km/h (1 Bft)
21.11.2016 01:15 9,1 °C 9,1 °C 60 % 1009,2 hPa 0,0 mm 2,7 km/h (1 Bft) O 90 ° 0 min 0,000 mm 0,0 UV-I 0 W/m² 1,8 °C 3,2 km/h (1 Bft)
21.11.2016 01:16 9,1 °C 9,1 °C 61 % 1009,1 hPa 0,0 mm 5,1 km/h (1 Bft) O-NO 60 ° 0 min 0,000 mm 0,0 UV-I 0 W/m² 2,0 °C 8,0 km/h (2 Bft)
21.11.2016 01:17 9,0 °C 9,1 °C 63 % 1009,1 hPa 0,0 mm 4,3 km/h (1 Bft) O 95 ° 0 min 0,000 mm 0,0 UV-I 0 W/m² 2,3 °C 8,0 km/h (2 Bft)
21.11.2016 01:18 9,1 °C 9,1 °C 63 % 1009,1 hPa 0,0 mm 4,1 km/h (1 Bft) O 94 ° 0 min 0,000 mm 0,0 UV-I 0 W/m² 2,4 °C 4,8 km/h (1 Bft)
21.11.2016 01:19 9,0 °C 9,1 °C 62 % 1009,1 hPa 0,0 mm 5,4 km/h (1 Bft) O 81 ° 0 min 0,000 mm 0,0 UV-I 0 W/m² 2,1 °C 8,0 km/h (2 Bft)
21.11.2016 01:20 9,0 °C 9,0 °C 63 % 1009,0 hPa 0,0 mm 5,8 km/h (2 Bft) O 92 ° 0 min 0,000 mm 0,0 UV-I 0 W/m² 2,3 °C 9,7 km/h (2 Bft)
21.11.2016 01:21 8,9 °C 9,0 °C 64 % 1009,0 hPa 0,0 mm 6,5 km/h (2 Bft) O 80 ° 0 min 0,000 mm 0,0 UV-I 0 W/m² 2,5 °C 11,3 km/h (2 Bft)
21.11.2016 01:22 8,9 °C 9,0 °C 63 % 1009,0 hPa 0,0 mm 6,2 km/h (2 Bft) O 84 ° 0 min 0,000 mm 0,0 UV-I 0 W/m² 2,2 °C 6,4 km/h (2 Bft)
21.11.2016 01:23 8,9 °C 8,9 °C 63 % 1009,0 hPa 0,0 mm 5,9 km/h (2 Bft) O 83 ° 0 min 0,000 mm 0,0 UV-I 0 W/m² 2,2 °C 11,3 km/h (2 Bft)
21.11.2016 01:24 8,9 °C 8,9 °C 62 % 1009,0 hPa 0,0 mm 3,2 km/h (1 Bft) O 83 ° 0 min 0,000 mm 0,0 UV-I 0 W/m² 2,0 °C 4,8 km/h (1 Bft)
21.11.2016 01:25 8,9 °C 8,9 °C 61 % 1009,0 hPa 0,0 mm 2,5 km/h (1 Bft) O 90 ° 0 min 0,000 mm 0,0 UV-I 0 W/m² 1,8 °C 6,4 km/h (2 Bft)
21.11.2016 01:26 8,9 °C 8,9 °C 60 % 1009,0 hPa 0,0 mm 2,2 km/h (1 Bft) O 83 ° 0 min 0,000 mm 0,0 UV-I 0 W/m² 1,6 °C 6,4 km/h (2 Bft)
21.11.2016 01:27 8,9 °C 8,9 °C 60 % 1009,0 hPa 0,0 mm 3,1 km/h (1 Bft) O-SO 109 ° 0 min 0,000 mm 0,0 UV-I 0 W/m² 1,6 °C 4,8 km/h (1 Bft)
21.11.2016 01:28 8,9 °C 8,9 °C 60 % 1009,0 hPa 0,0 mm 3,6 km/h (1 Bft) SO 141 ° 0 min 0,000 mm 0,0 UV-I 0 W/m² 1,6 °C 4,8 km/h (1 Bft)
21.11.2016 01:29 8,9 °C 8,9 °C 60 % 1009,0 hPa 0,0 mm 3,0 km/h (1 Bft) SO 137 ° 0 min 0,000 mm 0,0 UV-I 0 W/m² 1,6 °C 4,8 km/h (1 Bft)
21.11.2016 01:30 9,0 °C 9,0 °C 60 % 1009,0 hPa 0,0 mm 2,3 km/h (1 Bft) SO 137 ° 0 min 0,000 mm 0,0 UV-I 0 W/m² 1,7 °C 4,8 km/h (1 Bft)
21.11.2016 01:31 9,0 °C 9,0 °C 60 % 1009,0 hPa 0,0 mm 2,0 km/h (1 Bft) O-NO 63 ° 0 min 0,000 mm 0,0 UV-I 0 W/m² 1,7 °C 3,2 km/h (1 Bft)
21.11.2016 01:32 9,0 °C 9,0 °C 60 % 1009,0 hPa 0,0 mm 2,9 km/h (1 Bft) O 93 ° 0 min 0,000 mm 0,0 UV-I 0 W/m² 1,7 °C 4,8 km/h (1 Bft)
21.11.2016 01:33 9,1 °C 9,1 °C 61 % 1009,0 hPa 0,0 mm 2,8 km/h (1 Bft) O 92 ° 0 min 0,000 mm 0,0 UV-I 0 W/m² 2,0 °C 4,8 km/h (1 Bft)
21.11.2016 01:34 9,1 °C 9,1 °C 61 % 1009,0 hPa 0,0 mm 3,0 km/h (1 Bft) S 173 ° 0 min 0,000 mm 0,0 UV-I 0 W/m² 2,0 °C 6,4 km/h (2 Bft)
21.11.2016 01:35 9,1 °C 9,1 °C 59 % 1009,0 hPa 0,0 mm 1,3 km/h (1 Bft) S 173 ° 0 min 0,000 mm 0,0 UV-I 0 W/m² 1,5 °C 3,2 km/h (1 Bft)
21.11.2016 01:36 9,1 °C 9,1 °C 60 % 1009,0 hPa 0,0 mm 2,1 km/h (1 Bft) S 173 ° 0 min 0,000 mm 0,0 UV-I 0 W/m² 1,8 °C 3,2 km/h (1 Bft)
21.11.2016 01:37 9,1 °C 9,1 °C 60 % 1009,0 hPa 0,0 mm 1,3 km/h (1 Bft) S 173 ° 0 min 0,000 mm 0,0 UV-I 0 W/m² 1,8 °C 3,2 km/h (1 Bft)
21.11.2016 01:38 9,1 °C 9,1 °C 60 % 1008,9 hPa 0,0 mm 0,6 km/h (0 Bft) S 173 ° 0 min 0,000 mm 0,0 UV-I 0 W/m² 1,8 °C 1,6 km/h (1 Bft)
21.11.2016 01:39 9,1 °C 9,1 °C 59 % 1009,0 hPa 0,0 mm 1,0 km/h (0 Bft) S 173 ° 0 min 0,000 mm 0,0 UV-I 0 W/m² 1,5 °C 3,2 km/h (1 Bft)
21.11.2016 01:40 9,2 °C 9,2 °C 58 % 1009,0 hPa 0,0 mm 0,0 km/h (0 Bft) S 173 ° 0 min 0,000 mm 0,0 UV-I 0 W/m² 1,4 °C 0,0 km/h (0 Bft)
21.11.2016 01:41 9,2 °C 9,2 °C 58 % 1009,0 hPa 0,0 mm 0,8 km/h (0 Bft) S 173 ° 0 min 0,000 mm 0,0 UV-I 0 W/m² 1,4 °C 1,6 km/h (1 Bft)
21.11.2016 01:42 9,2 °C 9,2 °C 58 % 1009,0 hPa 0,0 mm 0,6 km/h (0 Bft) S 173 ° 0 min 0,000 mm 0,0 UV-I 0 W/m² 1,4 °C 1,6 km/h (1 Bft)
21.11.2016 01:43 9,2 °C 9,2 °C 57 % 1009,0 hPa 0,0 mm 1,3 km/h (1 Bft) S 173 ° 0 min 0,000 mm 0,0 UV-I 0 W/m² 1,1 °C 1,6 km/h (1 Bft)
21.11.2016 01:44 9,3 °C 9,3 °C 59 % 1009,0 hPa 0,0 mm 1,1 km/h (1 Bft) SO 146 ° 0 min 0,000 mm 0,0 UV-I 0 W/m² 1,7 °C 3,2 km/h (1 Bft)
21.11.2016 01:45 9,3 °C 9,3 °C 58 % 1009,0 hPa 0,0 mm 4,4 km/h (1 Bft) SO 131 ° 0 min 0,000 mm 0,0 UV-I 0 W/m² 1,5 °C 4,8 km/h (1 Bft)
21.11.2016 01:46 9,3 °C 9,3 °C 61 % 1009,0 hPa 0,0 mm 3,4 km/h (1 Bft) S-SO 149 ° 0 min 0,000 mm 0,0 UV-I 0 W/m² 2,2 °C 4,8 km/h (1 Bft)
21.11.2016 01:47 9,3 °C 9,3 °C 58 % 1009,0 hPa 0,0 mm 2,2 km/h (1 Bft) S-SO 149 ° 0 min 0,000 mm 0,0 UV-I 0 W/m² 1,5 °C 3,2 km/h (1 Bft)
21.11.2016 01:48 9,3 °C 9,3 °C 57 % 1008,9 hPa 0,0 mm 3,0 km/h (1 Bft) S 173 ° 0 min 0,000 mm 0,0 UV-I 0 W/m² 1,2 °C 4,8 km/h (1 Bft)
21.11.2016 01:49 9,3 °C 9,4 °C 59 % 1008,9 hPa 0,0 mm 4,6 km/h (1 Bft) O-NO 67 ° 0 min 0,000 mm 0,0 UV-I 0 W/m² 1,7 °C 6,4 km/h (2 Bft)
21.11.2016 01:50 9,3 °C 9,4 °C 61 % 1008,9 hPa 0,0 mm 6,0 km/h (2 Bft) O 100 ° 0 min 0,000 mm 0,0 UV-I 0 W/m² 2,2 °C 8,0 km/h (2 Bft)
21.11.2016 01:51 9,4 °C 9,4 °C 59 % 1009,0 hPa 0,0 mm 3,9 km/h (1 Bft) O 98 ° 0 min 0,000 mm 0,0 UV-I 0 W/m² 1,8 °C 4,8 km/h (1 Bft)
21.11.2016 01:52 9,4 °C 9,4 °C 58 % 1009,0 hPa 0,0 mm 2,5 km/h (1 Bft) O 98 ° 0 min 0,000 mm 0,0 UV-I 0 W/m² 1,6 °C 4,8 km/h (1 Bft)
21.11.2016 01:53 9,4 °C 9,4 °C 58 % 1009,0 hPa 0,0 mm 1,3 km/h (1 Bft) O 98 ° 0 min 0,000 mm 0,0 UV-I 0 W/m² 1,6 °C 1,6 km/h (1 Bft)
21.11.2016 01:54 9,4 °C 9,4 °C 57 % 1009,0 hPa 0,0 mm 4,0 km/h (1 Bft) S-SO 154 ° 0 min 0,000 mm 0,0 UV-I 0 W/m² 1,3 °C 4,8 km/h (1 Bft)
21.11.2016 01:55 9,4 °C 9,4 °C 59 % 1009,0 hPa 0,0 mm 3,2 km/h (1 Bft) O-NO 68 ° 0 min 0,000 mm 0,0 UV-I 0 W/m² 1,8 °C 4,8 km/h (1 Bft)
21.11.2016 01:56 9,4 °C 9,4 °C 61 % 1009,0 hPa 0,0 mm 5,1 km/h (1 Bft) O 94 ° 0 min 0,000 mm 0,0 UV-I 0 W/m² 2,3 °C 6,4 km/h (2 Bft)
21.11.2016 01:57 9,4 °C 9,4 °C 59 % 1009,0 hPa 0,0 mm 4,7 km/h (1 Bft) O 97 ° 0 min 0,000 mm 0,0 UV-I 0 W/m² 1,8 °C 6,4 km/h (2 Bft)
21.11.2016 01:58 9,4 °C 9,4 °C 58 % 1009,0 hPa 0,0 mm 4,6 km/h (1 Bft) O 89 ° 0 min 0,000 mm 0,0 UV-I 0 W/m² 1,6 °C 4,8 km/h (1 Bft)
21.11.2016 01:59 9,4 °C 9,4 °C 58 % 1009,0 hPa 0,0 mm 4,2 km/h (1 Bft) SO 137 ° 0 min 0,000 mm 0,0 UV-I 0 W/m² 1,6 °C 4,8 km/h (1 Bft)
21.11.2016 02:00 9,4 °C 9,4 °C 58 % 1009,0 hPa 0,0 mm 4,2 km/h (1 Bft) O-SO 106 ° 0 min 0,000 mm 0,0 UV-I 0 W/m² 1,6 °C 4,8 km/h (1 Bft)
21.11.2016 02:01 9,4 °C 9,4 °C 56 % 1009,0 hPa 0,0 mm 5,3 km/h (1 Bft) O-SO 103 ° 0 min 0,026 mm 0,0 UV-I 0 W/m² 1,1 °C 6,4 km/h (2 Bft)
21.11.2016 02:02 9,4 °C 9,4 °C 57 % 1009,0 hPa 0,0 mm 4,6 km/h (1 Bft) O-SO 104 ° 0 min 0,000 mm 0,0 UV-I 0 W/m² 1,3 °C 6,4 km/h (2 Bft)
21.11.2016 02:03 9,4 °C 9,4 °C 59 % 1008,9 hPa 0,0 mm 4,9 km/h (1 Bft) S-SO 153 ° 0 min 0,000 mm 0,0 UV-I 0 W/m² 1,8 °C 6,4 km/h (2 Bft)
21.11.2016 02:04 9,6 °C 9,6 °C 58 % 1009,1 hPa 0,0 mm 3,0 km/h (1 Bft) O 98 ° 0 min 0,000 mm 0,0 UV-I 0 W/m² 1,8 °C 4,8 km/h (1 Bft)
21.11.2016 02:05 9,6 °C 9,6 °C 59 % 1009,0 hPa 0,0 mm 5,4 km/h (1 Bft) SO 142 ° 0 min 0,000 mm 0,0 UV-I 0 W/m² 2,0 °C 6,4 km/h (2 Bft)
21.11.2016 02:06 9,6 °C 9,6 °C 60 % 1009,0 hPa 0,0 mm 2,7 km/h (1 Bft) O-SO 108 ° 0 min 0,000 mm 0,0 UV-I 0 W/m² 2,2 °C 6,4 km/h (2 Bft)
21.11.2016 02:07 9,6 °C 9,6 °C 57 % 1009,0 hPa 0,0 mm 3,2 km/h (1 Bft) W-SW 238 ° 0 min 0,000 mm 0,0 UV-I 0 W/m² 1,5 °C 4,8 km/h (1 Bft)
21.11.2016 02:08 9,6 °C 9,6 °C 56 % 1009,0 hPa 0,0 mm 2,6 km/h (1 Bft) W-SW 238 ° 0 min 0,000 mm 0,0 UV-I 0 W/m² 1,3 °C 4,8 km/h (1 Bft)
21.11.2016 02:09 9,6 °C 9,6 °C 58 % 1008,9 hPa 0,0 mm 2,5 km/h (1 Bft) S-SW 195 ° 0 min 0,000 mm 0,0 UV-I 0 W/m² 1,8 °C 4,8 km/h (1 Bft)
21.11.2016 02:10 9,6 °C 9,6 °C 60 % 1008,8 hPa 0,0 mm 3,7 km/h (1 Bft) S-SO 148 ° 0 min 0,000 mm 0,0 UV-I 0 W/m² 2,2 °C 6,4 km/h (2 Bft)
21.11.2016 02:11 9,6 °C 9,6 °C 58 % 1008,8 hPa 0,0 mm 4,3 km/h (1 Bft) S-SO 165 ° 0 min 0,000 mm 0,0 UV-I 0 W/m² 1,8 °C 6,4 km/h (2 Bft)
21.11.2016 02:12 9,7 °C 9,7 °C 56 % 1008,8 hPa 0,0 mm 4,3 km/h (1 Bft) S-SO 161 ° 0 min 0,000 mm 0,0 UV-I 0 W/m² 1,4 °C 8,0 km/h (2 Bft)
21.11.2016 02:13 9,7 °C 9,7 °C 58 % 1008,8 hPa 0,0 mm 4,1 km/h (1 Bft) O-SO 119 ° 0 min 0,000 mm 0,0 UV-I 0 W/m² 1,8 °C 8,0 km/h (2 Bft)
21.11.2016 02:14 9,7 °C 9,7 °C 61 % 1008,7 hPa 0,0 mm 7,0 km/h (2 Bft) O 89 ° 0 min 0,000 mm 0,0 UV-I 0 W/m² 2,5 °C 11,3 km/h (2 Bft)
21.11.2016 02:15 9,7 °C 9,7 °C 61 % 1008,7 hPa 0,0 mm 8,4 km/h (2 Bft) O 86 ° 0 min 0,000 mm 0,0 UV-I 0 W/m² 2,5 °C 11,3 km/h (2 Bft)
21.11.2016 02:16 9,6 °C 9,7 °C 62 % 1008,7 hPa 0,0 mm 6,2 km/h (2 Bft) O-SO 104 ° 0 min 0,000 mm 0,0 UV-I 0 W/m² 2,7 °C 9,7 km/h (2 Bft)
21.11.2016 02:17 9,6 °C 9,7 °C 60 % 1008,7 hPa 0,0 mm 2,7 km/h (1 Bft) O-SO 121 ° 0 min 0,000 mm 0,0 UV-I 0 W/m² 2,2 °C 3,2 km/h (1 Bft)
21.11.2016 02:18 9,6 °C 9,7 °C 57 % 1008,8 hPa 0,0 mm 2,5 km/h (1 Bft) S 174 ° 0 min 0,000 mm 0,0 UV-I 0 W/m² 1,5 °C 3,2 km/h (1 Bft)
21.11.2016 02:19 9,7 °C 9,7 °C 58 % 1008,7 hPa 0,0 mm 0,6 km/h (0 Bft) S 174 ° 0 min 0,000 mm 0,0 UV-I 0 W/m² 1,8 °C 1,6 km/h (1 Bft)
21.11.2016 02:20 9,6 °C 9,7 °C 61 % 1008,7 hPa 0,0 mm 3,6 km/h (1 Bft) O-SO 115 ° 0 min 0,000 mm 0,0 UV-I 0 W/m² 2,5 °C 6,4 km/h (2 Bft)
21.11.2016 02:21 9,6 °C 9,7 °C 59 % 1008,7 hPa 0,0 mm 4,7 km/h (1 Bft) O 100 ° 0 min 0,000 mm 0,0 UV-I 0 W/m² 2,0 °C 6,4 km/h (2 Bft)
21.11.2016 02:22 9,6 °C 9,6 °C 59 % 1008,8 hPa 0,0 mm 3,4 km/h (1 Bft) O 100 ° 0 min 0,000 mm 0,0 UV-I 0 W/m² 2,0 °C 4,8 km/h (1 Bft)
21.11.2016 02:23 9,6 °C 9,6 °C 58 % 1008,9 hPa 0,0 mm 4,1 km/h (1 Bft) S-SO 150 ° 0 min 0,000 mm 0,0 UV-I 0 W/m² 1,8 °C 6,4 km/h (2 Bft)
21.11.2016 02:24 9,6 °C 9,6 °C 58 % 1008,9 hPa 0,0 mm 3,5 km/h (1 Bft) S-SO 150 ° 0 min 0,000 mm 0,0 UV-I 0 W/m² 1,8 °C 4,8 km/h (1 Bft)
21.11.2016 02:25 9,6 °C 9,6 °C 58 % 1008,9 hPa 0,0 mm 4,4 km/h (1 Bft) SO 139 ° 0 min 0,000 mm 0,0 UV-I 0 W/m² 1,8 °C 4,8 km/h (1 Bft)
21.11.2016 02:26 9,6 °C 9,6 °C 58 % 1008,9 hPa 0,0 mm 4,9 km/h (1 Bft) O-SO 115 ° 0 min 0,000 mm 0,0 UV-I 0 W/m² 1,8 °C 6,4 km/h (2 Bft)
21.11.2016 02:27 9,5 °C 9,6 °C 61 % 1008,8 hPa 0,0 mm 5,1 km/h (1 Bft) O-SO 110 ° 0 min 0,000 mm 0,0 UV-I 0 W/m² 2,4 °C 6,4 km/h (2 Bft)
21.11.2016 02:28 9,5 °C 9,5 °C 60 % 1008,9 hPa 0,0 mm 3,6 km/h (1 Bft) O-SO 111 ° 0 min 0,000 mm 0,0 UV-I 0 W/m² 2,1 °C 4,8 km/h (1 Bft)
21.11.2016 02:29 9,5 °C 9,6 °C 59 % 1008,9 hPa 0,0 mm 5,4 km/h (1 Bft) S-SW 198 ° 0 min 0,000 mm 0,0 UV-I 0 W/m² 1,9 °C 8,0 km/h (2 Bft)
21.11.2016 02:30 9,6 °C 9,6 °C 60 % 1008,9 hPa 0,0 mm 5,8 km/h (2 Bft) S-SW 199 ° 0 min 0,000 mm 0,0 UV-I 0 W/m² 2,2 °C 8,0 km/h (2 Bft)
21.11.2016 02:31 9,6 °C 9,6 °C 61 % 1008,9 hPa 0,0 mm 3,0 km/h (1 Bft) S-SO 156 ° 0 min 0,000 mm 0,0 UV-I 0 W/m² 2,5 °C 4,8 km/h (1 Bft)
21.11.2016 02:32 9,6 °C 9,6 °C 63 % 1008,9 hPa 0,0 mm 3,0 km/h (1 Bft) SO 144 ° 0 min 0,000 mm 0,0 UV-I 0 W/m² 2,9 °C 4,8 km/h (1 Bft)
21.11.2016 02:33 9,6 °C 9,6 °C 63 % 1008,8 hPa 0,0 mm 3,2 km/h (1 Bft) SO 144 ° 0 min 0,000 mm 0,0 UV-I 0 W/m² 2,9 °C 3,2 km/h (1 Bft)
21.11.2016 02:34 9,5 °C 9,6 °C 63 % 1008,8 hPa 0,0 mm 1,9 km/h (1 Bft) SO 144 ° 0 min 0,000 mm 0,0 UV-I 0 W/m² 2,8 °C 3,2 km/h (1 Bft)
21.11.2016 02:35 9,4 °C 9,5 °C 61 % 1008,8 hPa 0,0 mm 2,4 km/h (1 Bft) SO 144 ° 0 min 0,000 mm 0,0 UV-I 0 W/m² 2,3 °C 3,2 km/h (1 Bft)
21.11.2016 02:36 9,4 °C 9,4 °C 59 % 1008,8 hPa 0,0 mm 4,7 km/h (1 Bft) SO 144 ° 0 min 0,000 mm 0,0 UV-I 0 W/m² 1,8 °C 4,8 km/h (1 Bft)
21.11.2016 02:37 9,4 °C 9,4 °C 59 % 1008,8 hPa 0,0 mm 3,7 km/h (1 Bft) SO 144 ° 0 min 0,000 mm 0,0 UV-I 0 W/m² 1,8 °C 4,8 km/h (1 Bft)
21.11.2016 02:38 9,4 °C 9,4 °C 59 % 1008,9 hPa 0,0 mm 3,2 km/h (1 Bft) SO 144 ° 0 min 0,000 mm 0,0 UV-I 0 W/m² 1,8 °C 4,8 km/h (1 Bft)
21.11.2016 02:39 9,4 °C 9,4 °C 59 % 1008,9 hPa 0,0 mm 2,8 km/h (1 Bft) SO 144 ° 0 min 0,000 mm 0,0 UV-I 0 W/m² 1,8 °C 4,8 km/h (1 Bft)
21.11.2016 02:40 9,4 °C 9,4 °C 60 % 1008,9 hPa 0,0 mm 3,1 km/h (1 Bft) SO 144 ° 0 min 0,000 mm 0,0 UV-I 0 W/m² 2,0 °C 4,8 km/h (1 Bft)
21.11.2016 02:41 9,3 °C 9,4 °C 61 % 1008,9 hPa 0,0 mm 3,9 km/h (1 Bft) SO 144 ° 0 min 0,000 mm 0,0 UV-I 0 W/m² 2,2 °C 4,8 km/h (1 Bft)
21.11.2016 02:42 9,3 °C 9,3 °C 60 % 1008,8 hPa 0,0 mm 2,9 km/h (1 Bft) O-SO 119 ° 0 min 0,000 mm 0,0 UV-I 0 W/m² 1,9 °C 4,8 km/h (1 Bft)
21.11.2016 02:43 9,3 °C 9,3 °C 60 % 1008,8 hPa 0,0 mm 2,5 km/h (1 Bft) O-SO 119 ° 0 min 0,000 mm 0,0 UV-I 0 W/m² 1,9 °C 4,8 km/h (1 Bft)
21.11.2016 02:44 9,2 °C 9,3 °C 61 % 1008,8 hPa 0,0 mm 1,5 km/h (1 Bft) O-SO 119 ° 0 min 0,000 mm 0,0 UV-I 0 W/m² 2,1 °C 3,2 km/h (1 Bft)
21.11.2016 02:45 9,2 °C 9,2 °C 62 % 1008,8 hPa 0,0 mm 0,8 km/h (0 Bft) S-SW 200 ° 0 min 0,000 mm 0,0 UV-I 0 W/m² 2,3 °C 3,2 km/h (1 Bft)
21.11.2016 02:46 9,2 °C 9,2 °C 63 % 1008,9 hPa 0,0 mm 4,2 km/h (1 Bft) W-SW 250 ° 0 min 0,000 mm 0,0 UV-I 0 W/m² 2,5 °C 4,8 km/h (1 Bft)
21.11.2016 02:47 9,2 °C 9,2 °C 61 % 1008,9 hPa 0,0 mm 6,0 km/h (2 Bft) W-SW 255 ° 0 min 0,000 mm 0,0 UV-I 0 W/m² 2,1 °C 8,0 km/h (2 Bft)
21.11.2016 02:48 9,1 °C 9,2 °C 62 % 1008,9 hPa 0,0 mm 5,4 km/h (1 Bft) S-SO 164 ° 0 min 0,000 mm 0,0 UV-I 0 W/m² 2,2 °C 8,0 km/h (2 Bft)
21.11.2016 02:49 9,1 °C 9,1 °C 63 % 1008,8 hPa 0,0 mm 4,7 km/h (1 Bft) SO 138 ° 0 min 0,000 mm 0,0 UV-I 0 W/m² 2,4 °C 6,4 km/h (2 Bft)
21.11.2016 02:50 9,1 °C 9,1 °C 62 % 1008,8 hPa 0,0 mm 5,3 km/h (1 Bft) S 169 ° 0 min 0,000 mm 0,0 UV-I 0 W/m² 2,2 °C 8,0 km/h (2 Bft)
21.11.2016 02:51 8,9 °C 9,1 °C 62 % 1008,8 hPa 0,0 mm 5,2 km/h (1 Bft) SO 139 ° 0 min 0,000 mm 0,0 UV-I 0 W/m² 2,0 °C 6,4 km/h (2 Bft)
21.11.2016 02:52 8,9 °C 9,0 °C 62 % 1008,8 hPa 0,0 mm 5,5 km/h (1 Bft) O-SO 123 ° 0 min 0,000 mm 0,0 UV-I 0 W/m² 2,0 °C 8,0 km/h (2 Bft)
21.11.2016 02:53 8,9 °C 8,9 °C 63 % 1008,7 hPa 0,0 mm 6,1 km/h (2 Bft) SO 124 ° 0 min 0,000 mm 0,0 UV-I 0 W/m² 2,2 °C 6,4 km/h (2 Bft)
21.11.2016 02:54 8,8 °C 8,9 °C 61 % 1008,7 hPa 0,0 mm 4,8 km/h (1 Bft) O-SO 117 ° 0 min 0,000 mm 0,0 UV-I 0 W/m² 1,7 °C 6,4 km/h (2 Bft)
21.11.2016 02:55 8,8 °C 8,8 °C 61 % 1008,6 hPa 0,0 mm 4,8 km/h (1 Bft) O-SO 117 ° 0 min 0,000 mm 0,0 UV-I 0 W/m² 1,7 °C 6,4 km/h (2 Bft)
21.11.2016 02:56 8,8 °C 8,8 °C 61 % 1008,5 hPa 0,0 mm 4,4 km/h (1 Bft) SO 144 ° 0 min 0,000 mm 0,0 UV-I 0 W/m² 1,7 °C 6,4 km/h (2 Bft)
21.11.2016 02:57 8,8 °C 8,8 °C 61 % 1008,5 hPa 0,0 mm 3,6 km/h (1 Bft) S-SO 150 ° 0 min 0,000 mm 0,0 UV-I 0 W/m² 1,7 °C 4,8 km/h (1 Bft)
21.11.2016 02:58 8,7 °C 8,8 °C 61 % 1008,6 hPa 0,0 mm 2,9 km/h (1 Bft) S-SO 150 ° 0 min 0,000 mm 0,0 UV-I 0 W/m² 1,6 °C 4,8 km/h (1 Bft)
21.11.2016 02:59 8,7 °C 8,7 °C 61 % 1008,6 hPa 0,0 mm 3,0 km/h (1 Bft) S-SO 150 ° 0 min 0,000 mm 0,0 UV-I 0 W/m² 1,6 °C 4,8 km/h (1 Bft)
21.11.2016 03:00 8,8 °C 8,8 °C 61 % 1008,7 hPa 0,0 mm 3,2 km/h (1 Bft) S-SO 150 ° 0 min 0,000 mm 0,0 UV-I 0 W/m² 1,7 °C 4,8 km/h (1 Bft)
21.11.2016 03:01 8,8 °C 8,8 °C 60 % 1008,7 hPa 0,0 mm 3,1 km/h (1 Bft) S-SO 150 ° 0 min 0,051 mm 0,0 UV-I 0 W/m² 1,5 °C 4,8 km/h (1 Bft)
21.11.2016 03:02 8,8 °C 8,8 °C 60 % 1008,6 hPa 0,0 mm 3,1 km/h (1 Bft) S-SO 164 ° 0 min 0,000 mm 0,0 UV-I 0 W/m² 1,5 °C 6,4 km/h (2 Bft)
21.11.2016 03:03 8,8 °C 8,8 °C 61 % 1008,7 hPa 0,0 mm 3,4 km/h (1 Bft) S-SO 164 ° 0 min 0,000 mm 0,0 UV-I 0 W/m² 1,7 °C 6,4 km/h (2 Bft)
21.11.2016 03:04 8,8 °C 8,8 °C 63 % 1008,7 hPa 0,0 mm 1,8 km/h (1 Bft) O 89 ° 0 min 0,000 mm 0,0 UV-I 0 W/m² 2,2 °C 4,8 km/h (1 Bft)
21.11.2016 03:05 8,8 °C 8,8 °C 64 % 1008,7 hPa 0,0 mm 4,0 km/h (1 Bft) O 88 ° 0 min 0,000 mm 0,0 UV-I 0 W/m² 2,4 °C 4,8 km/h (1 Bft)
21.11.2016 03:06 8,8 °C 8,8 °C 64 % 1008,5 hPa 0,0 mm 5,4 km/h (1 Bft) O-NO 75 ° 0 min 0,000 mm 0,0 UV-I 0 W/m² 2,4 °C 6,4 km/h (2 Bft)
21.11.2016 03:07 8,7 °C 8,8 °C 64 % 1008,5 hPa 0,0 mm 4,1 km/h (1 Bft) O 90 ° 0 min 0,000 mm 0,0 UV-I 0 W/m² 2,3 °C 6,4 km/h (2 Bft)
21.11.2016 03:08 8,7 °C 8,7 °C 64 % 1008,5 hPa 0,0 mm 0,1 km/h (0 Bft) O 90 ° 0 min 0,000 mm 0,0 UV-I 0 W/m² 2,3 °C 1,6 km/h (1 Bft)
21.11.2016 03:09 8,6 °C 8,7 °C 63 % 1008,6 hPa 0,0 mm 1,8 km/h (1 Bft) O 98 ° 0 min 0,000 mm 0,0 UV-I 0 W/m² 2,0 °C 3,2 km/h (1 Bft)
21.11.2016 03:10 8,6 °C 8,6 °C 62 % 1008,5 hPa 0,0 mm 4,8 km/h (1 Bft) S-SW 203 ° 0 min 0,000 mm 0,0 UV-I 0 W/m² 1,7 °C 8,0 km/h (2 Bft)
21.11.2016 03:11 8,6 °C 8,6 °C 63 % 1008,6 hPa 0,0 mm 2,6 km/h (1 Bft) S-SW 203 ° 0 min 0,000 mm 0,0 UV-I 0 W/m² 2,0 °C 6,4 km/h (2 Bft)
21.11.2016 03:12 8,6 °C 8,6 °C 63 % 1008,5 hPa 0,0 mm 1,3 km/h (1 Bft) S-SW 203 ° 0 min 0,000 mm 0,0 UV-I 0 W/m² 2,0 °C 3,2 km/h (1 Bft)
21.11.2016 03:13 8,4 °C 8,6 °C 64 % 1008,6 hPa 0,0 mm 0,3 km/h (0 Bft) S-SW 203 ° 0 min 0,000 mm 0,0 UV-I 0 W/m² 2,0 °C 1,6 km/h (1 Bft)
21.11.2016 03:14 8,4 °C 8,4 °C 64 % 1008,6 hPa 0,0 mm 1,1 km/h (1 Bft) S-SW 203 ° 0 min 0,000 mm 0,0 UV-I 0 W/m² 2,0 °C 3,2 km/h (1 Bft)
21.11.2016 03:15 8,4 °C 8,4 °C 64 % 1008,5 hPa 0,0 mm 1,3 km/h (1 Bft) S-SW 203 ° 0 min 0,000 mm 0,0 UV-I 0 W/m² 2,0 °C 1,6 km/h (1 Bft)
21.11.2016 03:16 8,3 °C 8,4 °C 67 % 1008,5 hPa 0,0 mm 0,9 km/h (0 Bft) S-SW 203 ° 0 min 0,000 mm 0,0 UV-I 0 W/m² 2,5 °C 1,6 km/h (1 Bft)
21.11.2016 03:17 8,2 °C 8,3 °C 66 % 1008,5 hPa 0,0 mm 2,2 km/h (1 Bft) S 184 ° 0 min 0,000 mm 0,0 UV-I 0 W/m² 2,2 °C 3,2 km/h (1 Bft)
21.11.2016 03:18 8,2 °C 8,3 °C 66 % 1008,4 hPa 0,0 mm 3,6 km/h (1 Bft) O-SO 119 ° 0 min 0,000 mm 0,0 UV-I 0 W/m² 2,2 °C 4,8 km/h (1 Bft)
21.11.2016 03:19 8,1 °C 8,2 °C 67 % 1008,4 hPa 0,0 mm 4,4 km/h (1 Bft) O-SO 118 ° 0 min 0,000 mm 0,0 UV-I 0 W/m² 2,3 °C 4,8 km/h (1 Bft)
21.11.2016 03:20 8,1 °C 8,1 °C 67 % 1008,4 hPa 0,0 mm 2,3 km/h (1 Bft) O-SO 118 ° 0 min 0,000 mm 0,0 UV-I 0 W/m² 2,3 °C 4,8 km/h (1 Bft)
21.11.2016 03:21 7,9 °C 8,1 °C 67 % 1008,3 hPa 0,0 mm 2,3 km/h (1 Bft) O-SO 118 ° 0 min 0,000 mm 0,0 UV-I 0 W/m² 2,2 °C 3,2 km/h (1 Bft)
21.11.2016 03:22 7,9 °C 8,0 °C 67 % 1008,3 hPa 0,0 mm 1,5 km/h (1 Bft) O-SO 118 ° 0 min 0,000 mm 0,0 UV-I 0 W/m² 2,2 °C 3,2 km/h (1 Bft)
21.11.2016 03:23 7,9 °C 7,9 °C 67 % 1008,3 hPa 0,0 mm 0,7 km/h (0 Bft) O-SO 118 ° 0 min 0,000 mm 0,0 UV-I 0 W/m² 2,2 °C 1,6 km/h (1 Bft)
21.11.2016 03:24 7,8 °C 7,9 °C 66 % 1008,2 hPa 0,0 mm 0,0 km/h (0 Bft) O-SO 118 ° 0 min 0,000 mm 0,0 UV-I 0 W/m² 1,9 °C 0,0 km/h (0 Bft)
21.11.2016 03:25 7,8 °C 7,8 °C 67 % 1008,2 hPa 0,0 mm 0,2 km/h (0 Bft) O-SO 118 ° 0 min 0,000 mm 0,0 UV-I 0 W/m² 2,1 °C 1,6 km/h (1 Bft)
21.11.2016 03:26 7,8 °C 7,8 °C 66 % 1008,3 hPa 0,0 mm 3,0 km/h (1 Bft) W-SW 244 ° 0 min 0,000 mm 0,0 UV-I 0 W/m² 1,9 °C 4,8 km/h (1 Bft)
21.11.2016 03:27 7,7 °C 7,8 °C 66 % 1008,3 hPa 0,0 mm 5,7 km/h (1 Bft) W-SW 257 ° 0 min 0,000 mm 0,0 UV-I 0 W/m² 1,8 °C 6,4 km/h (2 Bft)
21.11.2016 03:28 7,6 °C 7,7 °C 66 % 1008,3 hPa 0,0 mm 4,3 km/h (1 Bft) W 259 ° 0 min 0,000 mm 0,0 UV-I 0 W/m² 1,7 °C 4,8 km/h (1 Bft)
21.11.2016 03:29 7,6 °C 7,7 °C 66 % 1008,4 hPa 0,0 mm 3,2 km/h (1 Bft) W 259 ° 0 min 0,000 mm 0,0 UV-I 0 W/m² 1,7 °C 4,8 km/h (1 Bft)
21.11.2016 03:30 7,6 °C 7,6 °C 66 % 1008,4 hPa 0,0 mm 1,5 km/h (1 Bft) W 259 ° 0 min 0,000 mm 0,0 UV-I 0 W/m² 1,7 °C 3,2 km/h (1 Bft)
21.11.2016 03:31 7,4 °C 7,6 °C 67 % 1008,3 hPa 0,0 mm 0,2 km/h (0 Bft) W 259 ° 0 min 0,000 mm 0,0 UV-I 0 W/m² 1,7 °C 1,6 km/h (1 Bft)
21.11.2016 03:32 7,4 °C 7,4 °C 67 % 1008,3 hPa 0,0 mm 1,5 km/h (1 Bft) W 259 ° 0 min 0,000 mm 0,0 UV-I 0 W/m² 1,7 °C 3,2 km/h (1 Bft)
21.11.2016 03:33 7,3 °C 7,4 °C 67 % 1008,4 hPa 0,0 mm 0,9 km/h (0 Bft) W 259 ° 0 min 0,000 mm 0,0 UV-I 0 W/m² 1,6 °C 1,6 km/h (1 Bft)
21.11.2016 03:34 7,2 °C 7,3 °C 66 % 1008,4 hPa 0,0 mm 0,8 km/h (0 Bft) W 259 ° 0 min 0,000 mm 0,0 UV-I 0 W/m² 1,3 °C 1,6 km/h (1 Bft)
21.11.2016 03:35 7,2 °C 7,2 °C 66 % 1008,4 hPa 0,0 mm 1,1 km/h (1 Bft) W 259 ° 0 min 0,000 mm 0,0 UV-I 0 W/m² 1,3 °C 1,6 km/h (1 Bft)
21.11.2016 03:36 7,2 °C 7,2 °C 67 % 1008,4 hPa 0,0 mm 0,3 km/h (0 Bft) W 259 ° 0 min 0,000 mm 0,0 UV-I 0 W/m² 1,5 °C 1,6 km/h (1 Bft)
21.11.2016 03:37 7,1 °C 7,2 °C 67 % 1008,4 hPa 0,0 mm 0,5 km/h (0 Bft) W 259 ° 0 min 0,000 mm 0,0 UV-I 0 W/m² 1,4 °C 1,6 km/h (1 Bft)
21.11.2016 03:38 7,1 °C 7,2 °C 67 % 1008,4 hPa 0,0 mm 1,7 km/h (1 Bft) W 259 ° 0 min 0,000 mm 0,0 UV-I 0 W/m² 1,4 °C 3,2 km/h (1 Bft)
21.11.2016 03:39 7,1 °C 7,1 °C 68 % 1008,5 hPa 0,0 mm 0,3 km/h (0 Bft) W 259 ° 0 min 0,000 mm 0,0 UV-I 0 W/m² 1,6 °C 1,6 km/h (1 Bft)
21.11.2016 03:40 7,0 °C 7,1 °C 67 % 1008,5 hPa 0,0 mm 1,3 km/h (1 Bft) W 259 ° 0 min 0,000 mm 0,0 UV-I 0 W/m² 1,3 °C 3,2 km/h (1 Bft)
21.11.2016 03:41 6,9 °C 7,0 °C 67 % 1008,4 hPa 0,0 mm 1,8 km/h (1 Bft) W 259 ° 0 min 0,000 mm 0,0 UV-I 0 W/m² 1,2 °C 3,2 km/h (1 Bft)
21.11.2016 03:42 6,9 °C 7,0 °C 67 % 1008,4 hPa 0,0 mm 3,4 km/h (1 Bft) S 179 ° 0 min 0,000 mm 0,0 UV-I 0 W/m² 1,2 °C 4,8 km/h (1 Bft)
21.11.2016 03:43 6,9 °C 6,9 °C 66 % 1008,3 hPa 0,0 mm 3,1 km/h (1 Bft) S 179 ° 0 min 0,000 mm 0,0 UV-I 0 W/m² 1,0 °C 4,8 km/h (1 Bft)
21.11.2016 03:44 6,9 °C 6,9 °C 66 % 1008,3 hPa 0,0 mm 3,5 km/h (1 Bft) S 184 ° 0 min 0,000 mm 0,0 UV-I 0 W/m² 1,0 °C 4,8 km/h (1 Bft)
21.11.2016 03:45 6,9 °C 6,9 °C 65 % 1008,3 hPa 0,0 mm 4,2 km/h (1 Bft) SO 143 ° 0 min 0,000 mm 0,0 UV-I 0 W/m² 0,8 °C 6,4 km/h (2 Bft)
21.11.2016 03:46 7,0 °C 7,0 °C 65 % 1008,3 hPa 0,0 mm 4,6 km/h (1 Bft) SO 144 ° 0 min 0,000 mm 0,0 UV-I 0 W/m² 0,9 °C 6,4 km/h (2 Bft)
21.11.2016 03:47 7,1 °C 7,1 °C 65 % 1008,4 hPa 0,0 mm 3,9 km/h (1 Bft) S-SO 155 ° 0 min 0,000 mm 0,0 UV-I 0 W/m² 1,0 °C 4,8 km/h (1 Bft)
21.11.2016 03:48 7,1 °C 7,1 °C 66 % 1008,3 hPa 0,0 mm 5,5 km/h (1 Bft) SO 128 ° 0 min 0,000 mm 0,0 UV-I 0 W/m² 1,2 °C 8,0 km/h (2 Bft)
21.11.2016 03:49 7,1 °C 7,1 °C 67 % 1008,3 hPa 0,0 mm 4,8 km/h (1 Bft) SO 126 ° 0 min 0,000 mm 0,0 UV-I 0 W/m² 1,4 °C 6,4 km/h (2 Bft)
21.11.2016 03:50 7,1 °C 7,1 °C 66 % 1008,2 hPa 0,0 mm 4,7 km/h (1 Bft) O-SO 109 ° 0 min 0,000 mm 0,0 UV-I 0 W/m² 1,2 °C 6,4 km/h (2 Bft)
21.11.2016 03:51 7,2 °C 7,2 °C 66 % 1008,1 hPa 0,0 mm 4,4 km/h (1 Bft) O-SO 109 ° 0 min 0,000 mm 0,0 UV-I 0 W/m² 1,3 °C 4,8 km/h (1 Bft)
21.11.2016 03:52 7,2 °C 7,2 °C 67 % 1008,1 hPa 0,0 mm 6,0 km/h (2 Bft) SO 136 ° 0 min 0,000 mm 0,0 UV-I 0 W/m² 1,5 °C 6,4 km/h (2 Bft)
21.11.2016 03:53 7,2 °C 7,2 °C 66 % 1008,1 hPa 0,0 mm 5,2 km/h (1 Bft) SO 141 ° 0 min 0,000 mm 0,0 UV-I 0 W/m² 1,3 °C 6,4 km/h (2 Bft)
21.11.2016 03:54 7,3 °C 7,3 °C 64 % 1008,1 hPa 0,0 mm 1,7 km/h (1 Bft) S 182 ° 0 min 0,000 mm 0,0 UV-I 0 W/m² 1,0 °C 4,8 km/h (1 Bft)
21.11.2016 03:55 7,3 °C 7,3 °C 64 % 1008,2 hPa 0,0 mm 2,6 km/h (1 Bft) O-SO 121 ° 0 min 0,000 mm 0,0 UV-I 0 W/m² 1,0 °C 6,4 km/h (2 Bft)
21.11.2016 03:56 7,3 °C 7,3 °C 67 % 1008,2 hPa 0,0 mm 5,0 km/h (1 Bft) O-SO 123 ° 0 min 0,000 mm 0,0 UV-I 0 W/m² 1,6 °C 6,4 km/h (2 Bft)
21.11.2016 03:57 7,4 °C 7,4 °C 66 % 1008,2 hPa 0,0 mm 4,9 km/h (1 Bft) SO 140 ° 0 min 0,000 mm 0,0 UV-I 0 W/m² 1,5 °C 6,4 km/h (2 Bft)
21.11.2016 03:58 7,4 °C 7,4 °C 65 % 1008,1 hPa 0,0 mm 4,2 km/h (1 Bft) SO 140 ° 0 min 0,000 mm 0,0 UV-I 0 W/m² 1,3 °C 4,8 km/h (1 Bft)
21.11.2016 03:59 7,4 °C 7,4 °C 65 % 1008,1 hPa 0,0 mm 2,5 km/h (1 Bft) SO 140 ° 0 min 0,000 mm 0,0 UV-I 0 W/m² 1,3 °C 4,8 km/h (1 Bft)
21.11.2016 04:00 7,5 °C 7,5 °C 66 % 1008,2 hPa 0,0 mm 1,9 km/h (1 Bft) SO 140 ° 0 min 0,025 mm 0,0 UV-I 0 W/m² 1,6 °C 3,2 km/h (1 Bft)
21.11.2016 04:01 7,5 °C 7,5 °C 65 % 1008,2 hPa 0,0 mm 2,3 km/h (1 Bft) NW 323 ° 0 min 0,000 mm 0,0 UV-I 0 W/m² 1,4 °C 4,8 km/h (1 Bft)
21.11.2016 04:02 7,6 °C 7,6 °C 66 % 1008,3 hPa 0,0 mm 5,6 km/h (1 Bft) NW 319 ° 0 min 0,000 mm 0,0 UV-I 0 W/m² 1,7 °C 6,4 km/h (2 Bft)
21.11.2016 04:03 7,5 °C 7,6 °C 66 % 1008,3 hPa 0,0 mm 2,3 km/h (1 Bft) NW 319 ° 0 min 0,000 mm 0,0 UV-I 0 W/m² 1,6 °C 4,8 km/h (1 Bft)
21.11.2016 04:04 7,4 °C 7,5 °C 66 % 1008,3 hPa 0,0 mm 1,8 km/h (1 Bft) NW 319 ° 0 min 0,000 mm 0,0 UV-I 0 W/m² 1,5 °C 3,2 km/h (1 Bft)
21.11.2016 04:05 7,4 °C 7,5 °C 66 % 1008,2 hPa 0,0 mm 2,4 km/h (1 Bft) NO 48 ° 0 min 0,000 mm 0,0 UV-I 0 W/m² 1,5 °C 4,8 km/h (1 Bft)
21.11.2016 04:06 7,3 °C 7,4 °C 66 % 1008,1 hPa 0,0 mm 4,0 km/h (1 Bft) NO 55 ° 0 min 0,000 mm 0,0 UV-I 0 W/m² 1,4 °C 4,8 km/h (1 Bft)
21.11.2016 04:07 7,2 °C 7,3 °C 66 % 1008,0 hPa 0,0 mm 2,3 km/h (1 Bft) NO 55 ° 0 min 0,000 mm 0,0 UV-I 0 W/m² 1,3 °C 4,8 km/h (1 Bft)
21.11.2016 04:08 7,2 °C 7,2 °C 68 % 1008,0 hPa 0,0 mm 2,2 km/h (1 Bft) NO 55 ° 0 min 0,000 mm 0,0 UV-I 0 W/m² 1,7 °C 3,2 km/h (1 Bft)
21.11.2016 04:09 7,1 °C 7,2 °C 68 % 1008,1 hPa 0,0 mm 0,9 km/h (0 Bft) NO 55 ° 0 min 0,000 mm 0,0 UV-I 0 W/m² 1,6 °C 3,2 km/h (1 Bft)
21.11.2016 04:10 7,1 °C 7,2 °C 68 % 1008,1 hPa 0,0 mm 0,7 km/h (0 Bft) NO 55 ° 0 min 0,000 mm 0,0 UV-I 0 W/m² 1,6 °C 1,6 km/h (1 Bft)
21.11.2016 04:11 7,1 °C 7,1 °C 68 % 1008,1 hPa 0,0 mm 2,7 km/h (1 Bft) W-NW 302 ° 0 min 0,000 mm 0,0 UV-I 0 W/m² 1,6 °C 4,8 km/h (1 Bft)
21.11.2016 04:12 7,1 °C 7,1 °C 68 % 1008,1 hPa 0,0 mm 5,6 km/h (1 Bft) W-SW 258 ° 0 min 0,000 mm 0,0 UV-I 0 W/m² 1,6 °C 8,0 km/h (2 Bft)
21.11.2016 04:13 6,9 °C 7,1 °C 67 % 1008,2 hPa 0,0 mm 3,4 km/h (1 Bft) W 267 ° 0 min 0,000 mm 0,0 UV-I 0 W/m² 1,2 °C 6,4 km/h (2 Bft)
21.11.2016 04:14 6,9 °C 6,9 °C 67 % 1008,2 hPa 0,0 mm 2,5 km/h (1 Bft) W 267 ° 0 min 0,000 mm 0,0 UV-I 0 W/m² 1,2 °C 4,8 km/h (1 Bft)
21.11.2016 04:15 6,8 °C 6,9 °C 68 % 1008,2 hPa 0,0 mm 1,9 km/h (1 Bft) W 267 ° 0 min 0,000 mm 0,0 UV-I 0 W/m² 1,3 °C 3,2 km/h (1 Bft)
21.11.2016 04:16 6,8 °C 6,8 °C 68 % 1008,1 hPa 0,0 mm 3,3 km/h (1 Bft) S-SW 198 ° 0 min 0,000 mm 0,0 UV-I 0 W/m² 1,3 °C 4,8 km/h (1 Bft)
21.11.2016 04:17 6,8 °C 6,8 °C 69 % 1008,1 hPa 0,0 mm 3,4 km/h (1 Bft) S 188 ° 0 min 0,000 mm 0,0 UV-I 0 W/m² 1,5 °C 4,8 km/h (1 Bft)
21.11.2016 04:18 6,7 °C 6,8 °C 69 % 1008,0 hPa 0,0 mm 3,1 km/h (1 Bft) O 89 ° 0 min 0,000 mm 0,0 UV-I 0 W/m² 1,4 °C 4,8 km/h (1 Bft)
21.11.2016 04:19 6,7 °C 6,7 °C 71 % 1007,9 hPa 0,0 mm 3,7 km/h (1 Bft) O 98 ° 0 min 0,000 mm 0,0 UV-I 0 W/m² 1,8 °C 6,4 km/h (2 Bft)
21.11.2016 04:20 6,7 °C 6,7 °C 70 % 1008,0 hPa 0,0 mm 1,3 km/h (1 Bft) O 98 ° 0 min 0,000 mm 0,0 UV-I 0 W/m² 1,6 °C 1,6 km/h (1 Bft)
21.11.2016 04:21 6,6 °C 6,7 °C 70 % 1008,0 hPa 0,0 mm 3,2 km/h (1 Bft) S-SW 194 ° 0 min 0,000 mm 0,0 UV-I 0 W/m² 1,5 °C 6,4 km/h (2 Bft)
21.11.2016 04:22 6,6 °C 6,6 °C 69 % 1007,9 hPa 0,0 mm 6,6 km/h (2 Bft) S-SW 202 ° 0 min 0,000 mm 0,0 UV-I 0 W/m² 1,3 °C 9,7 km/h (2 Bft)
21.11.2016 04:23 6,6 °C 6,6 °C 69 % 1008,0 hPa 0,0 mm 3,6 km/h (1 Bft) S 180 ° 0 min 0,000 mm 0,0 UV-I 0 W/m² 1,3 °C 8,0 km/h (2 Bft)
21.11.2016 04:24 6,6 °C 6,7 °C 69 % 1008,0 hPa 0,0 mm 1,7 km/h (1 Bft) O-SO 109 ° 0 min 0,000 mm 0,0 UV-I 0 W/m² 1,3 °C 3,2 km/h (1 Bft)
21.11.2016 04:25 6,6 °C 6,6 °C 70 % 1008,0 hPa 0,0 mm 0,5 km/h (0 Bft) O-SO 109 ° 0 min 0,000 mm 0,0 UV-I 0 W/m² 1,5 °C 1,6 km/h (1 Bft)
21.11.2016 04:26 6,6 °C 6,6 °C 70 % 1008,0 hPa 0,0 mm 1,7 km/h (1 Bft) O-SO 109 ° 0 min 0,000 mm 0,0 UV-I 0 W/m² 1,5 °C 3,2 km/h (1 Bft)
21.11.2016 04:27 6,6 °C 6,6 °C 71 % 1007,9 hPa 0,0 mm 1,5 km/h (1 Bft) O-SO 109 ° 0 min 0,000 mm 0,0 UV-I 0 W/m² 1,7 °C 1,6 km/h (1 Bft)
21.11.2016 04:28 6,6 °C 6,6 °C 70 % 1008,0 hPa 0,0 mm 1,6 km/h (1 Bft) O-SO 110 ° 0 min 0,000 mm 0,0 UV-I 0 W/m² 1,5 °C 3,2 km/h (1 Bft)
21.11.2016 04:29 6,6 °C 6,6 °C 69 % 1007,9 hPa 0,0 mm 3,2 km/h (1 Bft) O-SO 110 ° 0 min 0,000 mm 0,0 UV-I 0 W/m² 1,3 °C 3,2 km/h (1 Bft)
21.11.2016 04:30 6,6 °C 6,6 °C 69 % 1008,0 hPa 0,0 mm 2,6 km/h (1 Bft) O-SO 110 ° 0 min 0,000 mm 0,0 UV-I 0 W/m² 1,3 °C 3,2 km/h (1 Bft)
21.11.2016 04:31 6,6 °C 6,6 °C 69 % 1008,0 hPa 0,0 mm 3,1 km/h (1 Bft) O-SO 111 ° 0 min 0,000 mm 0,0 UV-I 0 W/m² 1,3 °C 4,8 km/h (1 Bft)
21.11.2016 04:32 6,6 °C 6,6 °C 68 % 1008,0 hPa 0,0 mm 3,6 km/h (1 Bft) O-SO 111 ° 0 min 0,000 mm 0,0 UV-I 0 W/m² 1,1 °C 4,8 km/h (1 Bft)
21.11.2016 04:33 6,6 °C 6,6 °C 69 % 1007,9 hPa 0,0 mm 0,3 km/h (0 Bft) O-SO 111 ° 0 min 0,000 mm 0,0 UV-I 0 W/m² 1,3 °C 1,6 km/h (1 Bft)
21.11.2016 04:34 6,7 °C 6,7 °C 70 % 1007,8 hPa 0,0 mm 1,0 km/h (0 Bft) O-SO 111 ° 0 min 0,000 mm 0,0 UV-I 0 W/m² 1,6 °C 3,2 km/h (1 Bft)
21.11.2016 04:35 6,7 °C 6,7 °C 69 % 1007,8 hPa 0,0 mm 3,2 km/h (1 Bft) O-SO 111 ° 0 min 0,000 mm 0,0 UV-I 0 W/m² 1,4 °C 3,2 km/h (1 Bft)
21.11.2016 04:36 6,7 °C 6,7 °C 69 % 1008,0 hPa 0,0 mm 1,9 km/h (1 Bft) O-SO 111 ° 0 min 0,000 mm 0,0 UV-I 0 W/m² 1,4 °C 3,2 km/h (1 Bft)
21.11.2016 04:37 6,7 °C 6,7 °C 70 % 1007,9 hPa 0,0 mm 1,9 km/h (1 Bft) O-SO 111 ° 0 min 0,000 mm 0,0 UV-I 0 W/m² 1,6 °C 3,2 km/h (1 Bft)
21.11.2016 04:38 6,6 °C 6,7 °C 70 % 1007,9 hPa 0,0 mm 2,1 km/h (1 Bft) O-SO 111 ° 0 min 0,000 mm 0,0 UV-I 0 W/m² 1,5 °C 3,2 km/h (1 Bft)
21.11.2016 04:39 6,6 °C 6,6 °C 70 % 1007,9 hPa 0,0 mm 1,5 km/h (1 Bft) O-SO 111 ° 0 min 0,000 mm 0,0 UV-I 0 W/m² 1,5 °C 3,2 km/h (1 Bft)
21.11.2016 04:40 6,6 °C 6,6 °C 70 % 1007,9 hPa 0,0 mm 3,0 km/h (1 Bft) O-SO 111 ° 0 min 0,000 mm 0,0 UV-I 0 W/m² 1,5 °C 4,8 km/h (1 Bft)
21.11.2016 04:41 6,6 °C 6,6 °C 68 % 1007,8 hPa 0,0 mm 2,2 km/h (1 Bft) O-SO 111 ° 0 min 0,000 mm 0,0 UV-I 0 W/m² 1,1 °C 3,2 km/h (1 Bft)
21.11.2016 04:42 6,6 °C 6,6 °C 68 % 1007,9 hPa 0,0 mm 2,9 km/h (1 Bft) O-SO 111 ° 0 min 0,000 mm 0,0 UV-I 0 W/m² 1,1 °C 3,2 km/h (1 Bft)
21.11.2016 04:43 6,6 °C 6,6 °C 68 % 1007,8 hPa 0,0 mm 1,2 km/h (1 Bft) O-SO 111 ° 0 min 0,000 mm 0,0 UV-I 0 W/m² 1,1 °C 3,2 km/h (1 Bft)
21.11.2016 04:44 6,6 °C 6,6 °C 68 % 1007,8 hPa 0,0 mm 3,4 km/h (1 Bft) O-SO 111 ° 0 min 0,000 mm 0,0 UV-I 0 W/m² 1,1 °C 4,8 km/h (1 Bft)
21.11.2016 04:45 6,6 °C 6,6 °C 67 % 1007,7 hPa 0,0 mm 4,3 km/h (1 Bft) O-SO 111 ° 0 min 0,000 mm 0,0 UV-I 0 W/m² 0,9 °C 4,8 km/h (1 Bft)
21.11.2016 04:46 6,7 °C 6,7 °C 67 % 1007,7 hPa 0,0 mm 3,7 km/h (1 Bft) O-SO 111 ° 0 min 0,000 mm 0,0 UV-I 0 W/m² 1,0 °C 4,8 km/h (1 Bft)
21.11.2016 04:47 6,7 °C 6,7 °C 68 % 1007,7 hPa 0,0 mm 1,5 km/h (1 Bft) O-SO 111 ° 0 min 0,000 mm 0,0 UV-I 0 W/m² 1,2 °C 3,2 km/h (1 Bft)
21.11.2016 04:48 6,7 °C 6,7 °C 68 % 1007,9 hPa 0,0 mm 1,8 km/h (1 Bft) SO 130 ° 0 min 0,000 mm 0,0 UV-I 0 W/m² 1,2 °C 4,8 km/h (1 Bft)
21.11.2016 04:49 6,8 °C 6,8 °C 68 % 1007,9 hPa 0,0 mm 8,0 km/h (2 Bft) S-SW 205 ° 0 min 0,000 mm 0,0 UV-I 0 W/m² 1,3 °C 11,3 km/h (2 Bft)
21.11.2016 04:50 6,8 °C 6,8 °C 68 % 1007,9 hPa 0,0 mm 4,2 km/h (1 Bft) SW 229 ° 0 min 0,000 mm 0,0 UV-I 0 W/m² 1,3 °C 8,0 km/h (2 Bft)
21.11.2016 04:51 6,9 °C 6,9 °C 69 % 1007,9 hPa 0,0 mm 2,5 km/h (1 Bft) SW 229 ° 0 min 0,000 mm 0,0 UV-I 0 W/m² 1,6 °C 4,8 km/h (1 Bft)
21.11.2016 04:52 6,9 °C 6,9 °C 69 % 1007,8 hPa 0,0 mm 3,9 km/h (1 Bft) SO 130 ° 0 min 0,000 mm 0,0 UV-I 0 W/m² 1,6 °C 6,4 km/h (2 Bft)
21.11.2016 04:53 6,9 °C 6,9 °C 69 % 1007,8 hPa 0,0 mm 5,5 km/h (1 Bft) SO 129 ° 0 min 0,000 mm 0,0 UV-I 0 W/m² 1,6 °C 6,4 km/h (2 Bft)
21.11.2016 04:54 6,9 °C 6,9 °C 69 % 1007,8 hPa 0,0 mm 4,5 km/h (1 Bft) SO 130 ° 0 min 0,000 mm 0,0 UV-I 0 W/m² 1,6 °C 4,8 km/h (1 Bft)
21.11.2016 04:55 6,9 °C 6,9 °C 67 % 1007,7 hPa 0,0 mm 5,6 km/h (1 Bft) SO 130 ° 0 min 0,000 mm 0,0 UV-I 0 W/m² 1,2 °C 6,4 km/h (2 Bft)
21.11.2016 04:56 6,9 °C 6,9 °C 67 % 1007,7 hPa 0,0 mm 5,6 km/h (1 Bft) SO 141 ° 0 min 0,000 mm 0,0 UV-I 0 W/m² 1,2 °C 6,4 km/h (2 Bft)
21.11.2016 04:57 7,0 °C 7,0 °C 66 % 1007,6 hPa 0,0 mm 4,4 km/h (1 Bft) SO 145 ° 0 min 0,000 mm 0,0 UV-I 0 W/m² 1,1 °C 6,4 km/h (2 Bft)
21.11.2016 04:58 7,1 °C 7,1 °C 67 % 1007,6 hPa 0,0 mm 2,9 km/h (1 Bft) S-SO 164 ° 0 min 0,000 mm 0,0 UV-I 0 W/m² 1,4 °C 6,4 km/h (2 Bft)
21.11.2016 04:59 7,1 °C 7,1 °C 67 % 1007,7 hPa 0,0 mm 3,6 km/h (1 Bft) S 176 ° 0 min 0,000 mm 0,0 UV-I 0 W/m² 1,4 °C 6,4 km/h (2 Bft)
21.11.2016 05:00 7,2 °C 7,2 °C 66 % 1007,7 hPa 0,0 mm 2,7 km/h (1 Bft) S 174 ° 0 min 0,025 mm 0,0 UV-I 0 W/m² 1,3 °C 4,8 km/h (1 Bft)
21.11.2016 05:01 7,2 °C 7,2 °C 67 % 1007,7 hPa 0,0 mm 2,5 km/h (1 Bft) S 174 ° 0 min 0,000 mm 0,0 UV-I 0 W/m² 1,5 °C 4,8 km/h (1 Bft)
21.11.2016 05:02 7,3 °C 7,3 °C 65 % 1007,8 hPa 0,0 mm 2,3 km/h (1 Bft) S 174 ° 0 min 0,000 mm 0,0 UV-I 0 W/m² 1,2 °C 3,2 km/h (1 Bft)
21.11.2016 05:03 7,3 °C 7,3 °C 66 % 1007,7 hPa 0,0 mm 2,7 km/h (1 Bft) S 174 ° 0 min 0,000 mm 0,0 UV-I 0 W/m² 1,4 °C 4,8 km/h (1 Bft)
21.11.2016 05:04 7,4 °C 7,4 °C 66 % 1007,6 hPa 0,0 mm 2,6 km/h (1 Bft) S 174 ° 0 min 0,000 mm 0,0 UV-I 0 W/m² 1,5 °C 3,2 km/h (1 Bft)
21.11.2016 05:05 7,4 °C 7,4 °C 66 % 1007,6 hPa 0,0 mm 2,1 km/h (1 Bft) S 174 ° 0 min 0,000 mm 0,0 UV-I 0 W/m² 1,5 °C 3,2 km/h (1 Bft)
21.11.2016 05:06 7,4 °C 7,4 °C 67 % 1007,6 hPa 0,0 mm 4,2 km/h (1 Bft) S 188 ° 0 min 0,000 mm 0,0 UV-I 0 W/m² 1,7 °C 8,0 km/h (2 Bft)
21.11.2016 05:07 7,4 °C 7,4 °C 65 % 1007,6 hPa 0,0 mm 6,3 km/h (2 Bft) S-SO 161 ° 0 min 0,000 mm 0,0 UV-I 0 W/m² 1,3 °C 8,0 km/h (2 Bft)
21.11.2016 05:08 7,4 °C 7,4 °C 66 % 1007,5 hPa 0,0 mm 3,0 km/h (1 Bft) S 171 ° 0 min 0,000 mm 0,0 UV-I 0 W/m² 1,5 °C 6,4 km/h (2 Bft)
21.11.2016 05:09 7,4 °C 7,4 °C 66 % 1007,5 hPa 0,0 mm 3,8 km/h (1 Bft) S 171 ° 0 min 0,000 mm 0,0 UV-I 0 W/m² 1,5 °C 6,4 km/h (2 Bft)
21.11.2016 05:10 7,6 °C 7,6 °C 65 % 1007,5 hPa 0,0 mm 3,7 km/h (1 Bft) S 171 ° 0 min 0,000 mm 0,0 UV-I 0 W/m² 1,5 °C 6,4 km/h (2 Bft)
21.11.2016 05:11 7,6 °C 7,6 °C 66 % 1007,4 hPa 0,0 mm 2,1 km/h (1 Bft) S 171 ° 0 min 0,000 mm 0,0 UV-I 0 W/m² 1,7 °C 6,4 km/h (2 Bft)
21.11.2016 05:12 7,6 °C 7,6 °C 67 % 1007,4 hPa 0,0 mm 0,9 km/h (0 Bft) S 171 ° 0 min 0,000 mm 0,0 UV-I 0 W/m² 1,9 °C 3,2 km/h (1 Bft)
21.11.2016 05:13 7,5 °C 7,6 °C 67 % 1007,5 hPa 0,0 mm 0,0 km/h (0 Bft) S 171 ° 0 min 0,000 mm 0,0 UV-I 0 W/m² 1,8 °C 0,0 km/h (0 Bft)
21.11.2016 05:14 7,5 °C 7,5 °C 66 % 1007,6 hPa 0,0 mm 3,8 km/h (1 Bft) W 273 ° 0 min 0,000 mm 0,0 UV-I 0 W/m² 1,6 °C 4,8 km/h (1 Bft)
21.11.2016 05:15 7,4 °C 7,5 °C 66 % 1007,6 hPa 0,0 mm 3,2 km/h (1 Bft) W-NW 284 ° 0 min 0,000 mm 0,0 UV-I 0 W/m² 1,5 °C 4,8 km/h (1 Bft)
21.11.2016 05:16 7,3 °C 7,4 °C 67 % 1007,5 hPa 0,0 mm 4,2 km/h (1 Bft) S-SW 194 ° 0 min 0,000 mm 0,0 UV-I 0 W/m² 1,6 °C 6,4 km/h (2 Bft)
21.11.2016 05:17 7,3 °C 7,3 °C 67 % 1007,5 hPa 0,0 mm 2,1 km/h (1 Bft) S-SW 194 ° 0 min 0,000 mm 0,0 UV-I 0 W/m² 1,6 °C 3,2 km/h (1 Bft)
21.11.2016 05:18 7,2 °C 7,3 °C 68 % 1007,4 hPa 0,0 mm 0,5 km/h (0 Bft) S-SW 194 ° 0 min 0,000 mm 0,0 UV-I 0 W/m² 1,7 °C 1,6 km/h (1 Bft)
21.11.2016 05:19 7,2 °C 7,2 °C 67 % 1007,6 hPa 0,0 mm 1,9 km/h (1 Bft) S-SW 194 ° 0 min 0,000 mm 0,0 UV-I 0 W/m² 1,5 °C 3,2 km/h (1 Bft)
21.11.2016 05:20 7,1 °C 7,2 °C 67 % 1007,6 hPa 0,0 mm 3,4 km/h (1 Bft) S-SO 166 ° 0 min 0,000 mm 0,0 UV-I 0 W/m² 1,4 °C 6,4 km/h (2 Bft)
21.11.2016 05:21 7,1 °C 7,1 °C 65 % 1007,6 hPa 0,0 mm 5,2 km/h (1 Bft) S 177 ° 0 min 0,000 mm 0,0 UV-I 0 W/m² 1,0 °C 8,0 km/h (2 Bft)
21.11.2016 05:22 7,1 °C 7,1 °C 66 % 1007,6 hPa 0,0 mm 3,6 km/h (1 Bft) S 179 ° 0 min 0,000 mm 0,0 UV-I 0 W/m² 1,2 °C 8,0 km/h (2 Bft)
21.11.2016 05:23 7,1 °C 7,1 °C 66 % 1007,6 hPa 0,0 mm 6,8 km/h (2 Bft) S 188 ° 0 min 0,000 mm 0,0 UV-I 0 W/m² 1,2 °C 8,0 km/h (2 Bft)
21.11.2016 05:24 7,1 °C 7,2 °C 66 % 1007,5 hPa 0,0 mm 5,6 km/h (1 Bft) S 180 ° 0 min 0,000 mm 0,0 UV-I 0 W/m² 1,2 °C 8,0 km/h (2 Bft)
21.11.2016 05:25 7,2 °C 7,2 °C 66 % 1007,6 hPa 0,0 mm 3,4 km/h (1 Bft) S 180 ° 0 min 0,000 mm 0,0 UV-I 0 W/m² 1,3 °C 4,8 km/h (1 Bft)
21.11.2016 05:26 7,2 °C 7,2 °C 66 % 1007,5 hPa 0,0 mm 2,7 km/h (1 Bft) S 180 ° 0 min 0,000 mm 0,0 UV-I 0 W/m² 1,3 °C 3,2 km/h (1 Bft)
21.11.2016 05:27 7,2 °C 7,2 °C 66 % 1007,6 hPa 0,0 mm 1,7 km/h (1 Bft) S 180 ° 0 min 0,000 mm 0,0 UV-I 0 W/m² 1,3 °C 3,2 km/h (1 Bft)
21.11.2016 05:28 7,2 °C 7,3 °C 67 % 1007,6 hPa 0,0 mm 0,2 km/h (0 Bft) S 180 ° 0 min 0,000 mm 0,0 UV-I 0 W/m² 1,5 °C 1,6 km/h (1 Bft)
21.11.2016 05:29 7,3 °C 7,3 °C 68 % 1007,6 hPa 0,0 mm 3,0 km/h (1 Bft) S 180 ° 0 min 0,000 mm 0,0 UV-I 0 W/m² 1,8 °C 4,8 km/h (1 Bft)
21.11.2016 05:30 7,3 °C 7,3 °C 67 % 1007,6 hPa 0,0 mm 6,8 km/h (2 Bft) S-SO 160 ° 0 min 0,000 mm 0,0 UV-I 0 W/m² 1,6 °C 8,0 km/h (2 Bft)
21.11.2016 05:31 7,3 °C 7,3 °C 66 % 1007,5 hPa 0,0 mm 5,3 km/h (1 Bft) S-SO 151 ° 0 min 0,000 mm 0,0 UV-I 0 W/m² 1,4 °C 8,0 km/h (2 Bft)
21.11.2016 05:32 7,4 °C 7,4 °C 67 % 1007,5 hPa 0,0 mm 3,5 km/h (1 Bft) S-SO 148 ° 0 min 0,000 mm 0,0 UV-I 0 W/m² 1,7 °C 4,8 km/h (1 Bft)
21.11.2016 05:33 7,4 °C 7,4 °C 67 % 1007,3 hPa 0,0 mm 1,2 km/h (1 Bft) S-SO 148 ° 0 min 0,000 mm 0,0 UV-I 0 W/m² 1,7 °C 1,6 km/h (1 Bft)
21.11.2016 05:34 7,4 °C 7,4 °C 66 % 1007,4 hPa 0,0 mm 1,3 km/h (1 Bft) S-SO 148 ° 0 min 0,000 mm 0,0 UV-I 0 W/m² 1,5 °C 1,6 km/h (1 Bft)
21.11.2016 05:35 7,4 °C 7,4 °C 68 % 1007,5 hPa 0,0 mm 3,0 km/h (1 Bft) S-SO 157 ° 0 min 0,000 mm 0,0 UV-I 0 W/m² 1,9 °C 8,0 km/h (2 Bft)
21.11.2016 05:36 7,4 °C 7,4 °C 67 % 1007,6 hPa 0,0 mm 3,6 km/h (1 Bft) S-SO 157 ° 0 min 0,000 mm 0,0 UV-I 0 W/m² 1,7 °C 4,8 km/h (1 Bft)
21.11.2016 05:37 7,5 °C 7,5 °C 66 % 1007,5 hPa 0,0 mm 2,3 km/h (1 Bft) S-SO 157 ° 0 min 0,000 mm 0,0 UV-I 0 W/m² 1,6 °C 3,2 km/h (1 Bft)
21.11.2016 05:38 7,6 °C 7,6 °C 66 % 1007,4 hPa 0,0 mm 2,6 km/h (1 Bft) S-SO 155 ° 0 min 0,000 mm 0,0 UV-I 0 W/m² 1,7 °C 3,2 km/h (1 Bft)
21.11.2016 05:39 7,6 °C 7,6 °C 66 % 1007,3 hPa 0,0 mm 3,8 km/h (1 Bft) S-SO 155 ° 0 min 0,000 mm 0,0 UV-I 0 W/m² 1,7 °C 4,8 km/h (1 Bft)
21.11.2016 05:40 7,6 °C 7,6 °C 66 % 1007,4 hPa 0,0 mm 3,8 km/h (1 Bft) S-SO 155 ° 0 min 0,000 mm 0,0 UV-I 0 W/m² 1,7 °C 4,8 km/h (1 Bft)
21.11.2016 05:41 7,7 °C 7,7 °C 65 % 1007,5 hPa 0,0 mm 4,4 km/h (1 Bft) SO 146 ° 0 min 0,000 mm 0,0 UV-I 0 W/m² 1,5 °C 6,4 km/h (2 Bft)
21.11.2016 05:42 7,7 °C 7,7 °C 65 % 1007,5 hPa 0,0 mm 3,7 km/h (1 Bft) O-SO 116 ° 0 min 0,000 mm 0,0 UV-I 0 W/m² 1,5 °C 6,4 km/h (2 Bft)
21.11.2016 05:43 7,7 °C 7,7 °C 66 % 1007,4 hPa 0,0 mm 4,0 km/h (1 Bft) O 100 ° 0 min 0,000 mm 0,0 UV-I 0 W/m² 1,8 °C 4,8 km/h (1 Bft)
21.11.2016 05:44 7,8 °C 7,8 °C 66 % 1007,5 hPa 0,0 mm 2,3 km/h (1 Bft) O 101 ° 0 min 0,000 mm 0,0 UV-I 0 W/m² 1,9 °C 3,2 km/h (1 Bft)
21.11.2016 05:45 7,8 °C 7,8 °C 64 % 1007,5 hPa 0,0 mm 2,5 km/h (1 Bft) O 101 ° 0 min 0,000 mm 0,0 UV-I 0 W/m² 1,4 °C 4,8 km/h (1 Bft)
21.11.2016 05:46 7,8 °C 7,8 °C 66 % 1007,5 hPa 0,0 mm 2,0 km/h (1 Bft) O 101 ° 0 min 0,000 mm 0,0 UV-I 0 W/m² 1,9 °C 3,2 km/h (1 Bft)
21.11.2016 05:47 7,8 °C 7,8 °C 67 % 1007,5 hPa 0,0 mm 3,1 km/h (1 Bft) O 101 ° 0 min 0,000 mm 0,0 UV-I 0 W/m² 2,1 °C 4,8 km/h (1 Bft)
21.11.2016 05:48 7,8 °C 7,8 °C 67 % 1007,3 hPa 0,0 mm 3,4 km/h (1 Bft) O 101 ° 0 min 0,000 mm 0,0 UV-I 0 W/m² 2,1 °C 4,8 km/h (1 Bft)
21.11.2016 05:49 7,9 °C 7,9 °C 66 % 1007,3 hPa 0,0 mm 3,4 km/h (1 Bft) O-SO 102 ° 0 min 0,000 mm 0,0 UV-I 0 W/m² 1,9 °C 4,8 km/h (1 Bft)
21.11.2016 05:50 7,9 °C 7,9 °C 65 % 1007,3 hPa 0,0 mm 3,3 km/h (1 Bft) S-SO 156 ° 0 min 0,000 mm 0,0 UV-I 0 W/m² 1,7 °C 4,8 km/h (1 Bft)
21.11.2016 05:51 7,9 °C 7,9 °C 65 % 1007,4 hPa 0,0 mm 6,4 km/h (2 Bft) S-SO 148 ° 0 min 0,000 mm 0,0 UV-I 0 W/m² 1,7 °C 8,0 km/h (2 Bft)
21.11.2016 05:52 8,0 °C 8,0 °C 66 % 1007,4 hPa 0,0 mm 6,2 km/h (2 Bft) S-SO 159 ° 0 min 0,000 mm 0,0 UV-I 0 W/m² 2,0 °C 8,0 km/h (2 Bft)
21.11.2016 05:53 8,1 °C 8,1 °C 65 % 1007,4 hPa 0,0 mm 4,8 km/h (1 Bft) S-SO 164 ° 0 min 0,000 mm 0,0 UV-I 0 W/m² 1,9 °C 8,0 km/h (2 Bft)
21.11.2016 05:54 8,1 °C 8,1 °C 65 % 1007,4 hPa 0,0 mm 5,9 km/h (2 Bft) SO 124 ° 0 min 0,000 mm 0,0 UV-I 0 W/m² 1,9 °C 8,0 km/h (2 Bft)
21.11.2016 05:55 8,1 °C 8,2 °C 66 % 1007,4 hPa 0,0 mm 5,5 km/h (1 Bft) SO 135 ° 0 min 0,000 mm 0,0 UV-I 0 W/m² 2,1 °C 6,4 km/h (2 Bft)
21.11.2016 05:56 8,2 °C 8,2 °C 64 % 1007,5 hPa 0,0 mm 4,1 km/h (1 Bft) SO 134 ° 0 min 0,000 mm 0,0 UV-I 0 W/m² 1,8 °C 4,8 km/h (1 Bft)
21.11.2016 05:57 8,3 °C 8,3 °C 64 % 1007,4 hPa 0,0 mm 3,6 km/h (1 Bft) SO 134 ° 0 min 0,000 mm 0,0 UV-I 0 W/m² 1,9 °C 4,8 km/h (1 Bft)
21.11.2016 05:58 8,3 °C 8,3 °C 64 % 1007,4 hPa 0,0 mm 3,0 km/h (1 Bft) S 175 ° 0 min 0,000 mm 0,0 UV-I 0 W/m² 1,9 °C 4,8 km/h (1 Bft)
21.11.2016 05:59 8,3 °C 8,3 °C 64 % 1007,4 hPa 0,0 mm 2,6 km/h (1 Bft) S 174 ° 0 min 0,000 mm 0,0 UV-I 0 W/m² 1,9 °C 4,8 km/h (1 Bft)
21.11.2016 06:00 8,4 °C 8,4 °C 64 % 1007,5 hPa 0,0 mm 2,2 km/h (1 Bft) S-SO 167 ° 0 min 0,000 mm 0,0 UV-I 0 W/m² 2,0 °C 6,4 km/h (2 Bft)
21.11.2016 06:01 8,4 °C 8,4 °C 64 % 1007,4 hPa 0,0 mm 3,2 km/h (1 Bft) S-SO 167 ° 0 min 0,026 mm 0,0 UV-I 0 W/m² 2,0 °C 6,4 km/h (2 Bft)
21.11.2016 06:02 8,4 °C 8,4 °C 64 % 1007,3 hPa 0,0 mm 4,5 km/h (1 Bft) S-SO 167 ° 0 min 0,000 mm 0,0 UV-I 0 W/m² 2,0 °C 6,4 km/h (2 Bft)
21.11.2016 06:03 8,4 °C 8,4 °C 65 % 1007,2 hPa 0,0 mm 1,1 km/h (1 Bft) S-SO 167 ° 0 min 0,000 mm 0,0 UV-I 0 W/m² 2,2 °C 4,8 km/h (1 Bft)
21.11.2016 06:04 8,4 °C 8,4 °C 66 % 1007,2 hPa 0,0 mm 1,7 km/h (1 Bft) S-SO 158 ° 0 min 0,000 mm 0,0 UV-I 0 W/m² 2,4 °C 3,2 km/h (1 Bft)
21.11.2016 06:05 8,4 °C 8,4 °C 66 % 1007,2 hPa 0,0 mm 2,5 km/h (1 Bft) S-SO 158 ° 0 min 0,000 mm 0,0 UV-I 0 W/m² 2,4 °C 3,2 km/h (1 Bft)
21.11.2016 06:06 8,4 °C 8,4 °C 64 % 1007,2 hPa 0,0 mm 5,4 km/h (1 Bft) S-SO 158 ° 0 min 0,000 mm 0,0 UV-I 0 W/m² 2,0 °C 8,0 km/h (2 Bft)
21.11.2016 06:07 8,4 °C 8,4 °C 63 % 1007,2 hPa 0,0 mm 5,0 km/h (1 Bft) SO 137 ° 0 min 0,000 mm 0,0 UV-I 0 W/m² 1,8 °C 8,0 km/h (2 Bft)
21.11.2016 06:08 8,4 °C 8,4 °C 63 % 1007,2 hPa 0,0 mm 3,9 km/h (1 Bft) SO 137 ° 0 min 0,000 mm 0,0 UV-I 0 W/m² 1,8 °C 6,4 km/h (2 Bft)
21.11.2016 06:09 8,3 °C 8,4 °C 63 % 1007,1 hPa 0,0 mm 1,3 km/h (1 Bft) SO 137 ° 0 min 0,000 mm 0,0 UV-I 0 W/m² 1,7 °C 3,2 km/h (1 Bft)
21.11.2016 06:10 8,3 °C 8,4 °C 65 % 1007,1 hPa 0,0 mm 0,1 km/h (0 Bft) SO 137 ° 0 min 0,000 mm 0,0 UV-I 0 W/m² 2,1 °C 1,6 km/h (1 Bft)
21.11.2016 06:11 8,3 °C 8,3 °C 66 % 1007,1 hPa 0,0 mm 1,1 km/h (1 Bft) SO 137 ° 0 min 0,000 mm 0,0 UV-I 0 W/m² 2,3 °C 3,2 km/h (1 Bft)
21.11.2016 06:12 8,3 °C 8,3 °C 66 % 1006,9 hPa 0,0 mm 0,9 km/h (0 Bft) SO 137 ° 0 min 0,000 mm 0,0 UV-I 0 W/m² 2,3 °C 1,6 km/h (1 Bft)
21.11.2016 06:13 8,3 °C 8,3 °C 66 % 1006,9 hPa 0,0 mm 0,3 km/h (0 Bft) SO 137 ° 0 min 0,000 mm 0,0 UV-I 0 W/m² 2,3 °C 1,6 km/h (1 Bft)
21.11.2016 06:14 8,3 °C 8,3 °C 66 % 1006,9 hPa 0,0 mm 0,7 km/h (0 Bft) SO 137 ° 0 min 0,000 mm 0,0 UV-I 0 W/m² 2,3 °C 1,6 km/h (1 Bft)
21.11.2016 06:15 8,3 °C 8,3 °C 66 % 1006,9 hPa 0,0 mm 0,9 km/h (0 Bft) SO 137 ° 0 min 0,000 mm 0,0 UV-I 0 W/m² 2,3 °C 1,6 km/h (1 Bft)
21.11.2016 06:16 8,2 °C 8,3 °C 66 % 1006,8 hPa 0,0 mm 0,5 km/h (0 Bft) SO 137 ° 0 min 0,000 mm 0,0 UV-I 0 W/m² 2,2 °C 1,6 km/h (1 Bft)
21.11.2016 06:17 8,2 °C 8,3 °C 67 % 1006,9 hPa 0,0 mm 1,3 km/h (1 Bft) SO 137 ° 0 min 0,000 mm 0,0 UV-I 0 W/m² 2,4 °C 3,2 km/h (1 Bft)
21.11.2016 06:18 8,2 °C 8,2 °C 65 % 1007,0 hPa 0,0 mm 3,8 km/h (1 Bft) S-SW 208 ° 0 min 0,000 mm 0,0 UV-I 0 W/m² 2,0 °C 6,4 km/h (2 Bft)
21.11.2016 06:19 8,1 °C 8,2 °C 66 % 1007,1 hPa 0,0 mm 3,0 km/h (1 Bft) S-SW 207 ° 0 min 0,000 mm 0,0 UV-I 0 W/m² 2,1 °C 4,8 km/h (1 Bft)
21.11.2016 06:20 8,0 °C 8,1 °C 66 % 1007,1 hPa 0,0 mm 0,4 km/h (0 Bft) S-SW 207 ° 0 min 0,000 mm 0,0 UV-I 0 W/m² 2,0 °C 1,6 km/h (1 Bft)
21.11.2016 06:21 8,0 °C 8,1 °C 67 % 1007,1 hPa 0,0 mm 1,1 km/h (1 Bft) S-SW 208 ° 0 min 0,000 mm 0,0 UV-I 0 W/m² 2,3 °C 1,6 km/h (1 Bft)
21.11.2016 06:22 7,9 °C 8,0 °C 67 % 1007,0 hPa 0,0 mm 1,4 km/h (1 Bft) S-SW 208 ° 0 min 0,000 mm 0,0 UV-I 0 W/m² 2,2 °C 3,2 km/h (1 Bft)
21.11.2016 06:23 7,8 °C 7,9 °C 67 % 1007,0 hPa 0,0 mm 1,7 km/h (1 Bft) S-SW 208 ° 0 min 0,000 mm 0,0 UV-I 0 W/m² 2,1 °C 3,2 km/h (1 Bft)
21.11.2016 06:24 7,8 °C 7,8 °C 67 % 1007,0 hPa 0,0 mm 0,3 km/h (0 Bft) S-SW 207 ° 0 min 0,000 mm 0,0 UV-I 0 W/m² 2,1 °C 1,6 km/h (1 Bft)
21.11.2016 06:25 7,7 °C 7,8 °C 67 % 1006,9 hPa 0,0 mm 1,9 km/h (1 Bft) S-SW 207 ° 0 min 0,000 mm 0,0 UV-I 0 W/m² 2,0 °C 3,2 km/h (1 Bft)
21.11.2016 06:26 7,6 °C 7,7 °C 67 % 1006,9 hPa 0,0 mm 2,9 km/h (1 Bft) S-SW 207 ° 0 min 0,000 mm 0,0 UV-I 0 W/m² 1,9 °C 3,2 km/h (1 Bft)
21.11.2016 06:27 7,6 °C 7,7 °C 68 % 1006,9 hPa 0,0 mm 2,3 km/h (1 Bft) S-SW 207 ° 0 min 0,000 mm 0,0 UV-I 0 W/m² 2,1 °C 3,2 km/h (1 Bft)
21.11.2016 06:28 7,6 °C 7,6 °C 68 % 1006,9 hPa 0,0 mm 2,3 km/h (1 Bft) S-SW 207 ° 0 min 0,000 mm 0,0 UV-I 0 W/m² 2,1 °C 4,8 km/h (1 Bft)
21.11.2016 06:29 7,5 °C 7,6 °C 67 % 1006,9 hPa 0,0 mm 6,4 km/h (2 Bft) S-SW 209 ° 0 min 0,000 mm 0,0 UV-I 0 W/m² 1,8 °C 8,0 km/h (2 Bft)
21.11.2016 06:30 7,5 °C 7,5 °C 66 % 1006,9 hPa 0,0 mm 7,6 km/h (2 Bft) S-SW 202 ° 0 min 0,000 mm 0,0 UV-I 0 W/m² 1,6 °C 9,7 km/h (2 Bft)
21.11.2016 06:31 7,5 °C 7,6 °C 68 % 1007,0 hPa 0,0 mm 2,5 km/h (1 Bft) SO 142 ° 0 min 0,000 mm 0,0 UV-I 0 W/m² 2,0 °C 4,8 km/h (1 Bft)
21.11.2016 06:32 7,4 °C 7,5 °C 68 % 1007,0 hPa 0,0 mm 1,4 km/h (1 Bft) SO 142 ° 0 min 0,000 mm 0,0 UV-I 0 W/m² 1,9 °C 3,2 km/h (1 Bft)
21.11.2016 06:33 7,4 °C 7,4 °C 69 % 1007,0 hPa 0,0 mm 0,1 km/h (0 Bft) SO 142 ° 0 min 0,000 mm 0,0 UV-I 0 W/m² 2,1 °C 1,6 km/h (1 Bft)
21.11.2016 06:34 7,4 °C 7,4 °C 69 % 1007,0 hPa 0,0 mm 3,0 km/h (1 Bft) SO 142 ° 0 min 0,000 mm 0,0 UV-I 0 W/m² 2,1 °C 4,8 km/h (1 Bft)
21.11.2016 06:35 7,3 °C 7,4 °C 69 % 1007,1 hPa 0,0 mm 1,8 km/h (1 Bft) SW 214 ° 0 min 0,000 mm 0,0 UV-I 0 W/m² 2,0 °C 3,2 km/h (1 Bft)
21.11.2016 06:36 7,2 °C 7,3 °C 69 % 1007,1 hPa 0,0 mm 2,0 km/h (1 Bft) S-SW 196 ° 0 min 0,000 mm 0,0 UV-I 0 W/m² 1,9 °C 4,8 km/h (1 Bft)
21.11.2016 06:37 7,2 °C 7,2 °C 69 % 1007,0 hPa 0,0 mm 4,6 km/h (1 Bft) SO 139 ° 0 min 0,000 mm 0,0 UV-I 0 W/m² 1,9 °C 6,4 km/h (2 Bft)
21.11.2016 06:38 7,1 °C 7,2 °C 70 % 1006,9 hPa 0,0 mm 6,2 km/h (2 Bft) SO 142 ° 0 min 0,000 mm 0,0 UV-I 0 W/m² 2,0 °C 8,0 km/h (2 Bft)
21.11.2016 06:39 7,1 °C 7,1 °C 71 % 1006,8 hPa 0,0 mm 4,6 km/h (1 Bft) S-SO 161 ° 0 min 0,000 mm 0,0 UV-I 0 W/m² 2,2 °C 6,4 km/h (2 Bft)
21.11.2016 06:40 7,1 °C 7,1 °C 69 % 1006,7 hPa 0,0 mm 5,6 km/h (1 Bft) S-SO 161 ° 0 min 0,000 mm 0,0 UV-I 0 W/m² 1,8 °C 8,0 km/h (2 Bft)
21.11.2016 06:41 7,0 °C 7,1 °C 69 % 1006,7 hPa 0,0 mm 4,0 km/h (1 Bft) SO 125 ° 0 min 0,000 mm 0,0 UV-I 0 W/m² 1,7 °C 6,4 km/h (2 Bft)
21.11.2016 06:42 7,0 °C 7,1 °C 71 % 1006,6 hPa 0,0 mm 3,0 km/h (1 Bft) SO 125 ° 0 min 0,000 mm 0,0 UV-I 0 W/m² 2,1 °C 4,8 km/h (1 Bft)
21.11.2016 06:43 7,1 °C 7,1 °C 69 % 1006,8 hPa 0,0 mm 0,7 km/h (0 Bft) SO 125 ° 0 min 0,000 mm 0,0 UV-I 0 W/m² 1,8 °C 3,2 km/h (1 Bft)
21.11.2016 06:44 7,0 °C 7,1 °C 71 % 1006,9 hPa 0,0 mm 0,4 km/h (0 Bft) SO 126 ° 0 min 0,000 mm 0,0 UV-I 0 W/m² 2,1 °C 1,6 km/h (1 Bft)
21.11.2016 06:45 7,0 °C 7,1 °C 71 % 1006,8 hPa 0,0 mm 5,0 km/h (1 Bft) NW 307 ° 0 min 0,000 mm 0,0 UV-I 0 W/m² 2,1 °C 8,0 km/h (2 Bft)
21.11.2016 06:46 7,0 °C 7,1 °C 71 % 1006,8 hPa 0,0 mm 2,2 km/h (1 Bft) NW 307 ° 0 min 0,000 mm 0,0 UV-I 0 W/m² 2,1 °C 4,8 km/h (1 Bft)
21.11.2016 06:47 7,0 °C 7,0 °C 70 % 1006,9 hPa 0,0 mm 0,2 km/h (0 Bft) NW 307 ° 0 min 0,000 mm 0,0 UV-I 0 W/m² 1,9 °C 1,6 km/h (1 Bft)
21.11.2016 06:48 6,9 °C 7,0 °C 70 % 1006,7 hPa 0,0 mm 0,8 km/h (0 Bft) S-SO 168 ° 0 min 0,000 mm 0,0 UV-I 0 W/m² 1,8 °C 6,4 km/h (2 Bft)
21.11.2016 06:49 6,9 °C 6,9 °C 70 % 1006,8 hPa 0,0 mm 5,5 km/h (1 Bft) S-SO 168 ° 0 min 0,000 mm 0,0 UV-I 0 W/m² 1,8 °C 8,0 km/h (2 Bft)
21.11.2016 06:50 6,9 °C 6,9 °C 70 % 1006,8 hPa 0,0 mm 2,3 km/h (1 Bft) S-SO 168 ° 0 min 0,000 mm 0,0 UV-I 0 W/m² 1,8 °C 6,4 km/h (2 Bft)
21.11.2016 06:51 6,8 °C 6,9 °C 70 % 1006,7 hPa 0,0 mm 1,4 km/h (1 Bft) S-SO 168 ° 0 min 0,000 mm 0,0 UV-I 0 W/m² 1,7 °C 3,2 km/h (1 Bft)
21.11.2016 06:52 6,8 °C 6,8 °C 70 % 1006,8 hPa 0,0 mm 3,0 km/h (1 Bft) S 174 ° 0 min 0,000 mm 0,0 UV-I 0 W/m² 1,7 °C 4,8 km/h (1 Bft)
21.11.2016 06:53 6,8 °C 6,8 °C 71 % 1006,8 hPa 0,0 mm 1,7 km/h (1 Bft) S 174 ° 0 min 0,000 mm 0,0 UV-I 0 W/m² 1,9 °C 3,2 km/h (1 Bft)
21.11.2016 06:54 6,8 °C 6,8 °C 71 % 1006,8 hPa 0,0 mm 1,6 km/h (1 Bft) S 174 ° 0 min 0,000 mm 0,0 UV-I 0 W/m² 1,9 °C 3,2 km/h (1 Bft)
21.11.2016 06:55 6,8 °C 6,8 °C 72 % 1006,8 hPa 0,0 mm 2,1 km/h (1 Bft) S 174 ° 0 min 0,000 mm 0,0 UV-I 0 W/m² 2,1 °C 3,2 km/h (1 Bft)
21.11.2016 06:56 6,7 °C 6,8 °C 71 % 1006,8 hPa 0,0 mm 1,3 km/h (1 Bft) S 174 ° 0 min 0,000 mm 0,0 UV-I 0 W/m² 1,8 °C 3,2 km/h (1 Bft)
21.11.2016 06:57 6,7 °C 6,7 °C 71 % 1006,8 hPa 0,0 mm 3,6 km/h (1 Bft) S 174 ° 0 min 0,000 mm 0,0 UV-I 0 W/m² 1,8 °C 4,8 km/h (1 Bft)
21.11.2016 06:58 6,7 °C 6,7 °C 70 % 1006,8 hPa 0,0 mm 1,5 km/h (1 Bft) S 174 ° 0 min 0,000 mm 0,0 UV-I 0 W/m² 1,6 °C 3,2 km/h (1 Bft)
21.11.2016 06:59 6,7 °C 6,7 °C 70 % 1006,8 hPa 0,0 mm 1,9 km/h (1 Bft) S-SW 201 ° 0 min 0,000 mm 0,0 UV-I 0 W/m² 1,6 °C 4,8 km/h (1 Bft)
21.11.2016 07:00 6,7 °C 6,7 °C 70 % 1006,8 hPa 0,0 mm 3,3 km/h (1 Bft) S 186 ° 0 min 0,025 mm 0,0 UV-I 0 W/m² 1,6 °C 4,8 km/h (1 Bft)
21.11.2016 07:01 6,8 °C 6,8 °C 70 % 1006,7 hPa 0,0 mm 3,6 km/h (1 Bft) S 184 ° 0 min 0,000 mm 0,0 UV-I 0 W/m² 1,7 °C 8,0 km/h (2 Bft)
21.11.2016 07:02 6,8 °C 6,8 °C 70 % 1006,7 hPa 0,0 mm 1,5 km/h (1 Bft) S 184 ° 0 min 0,000 mm 0,0 UV-I 0 W/m² 1,7 °C 3,2 km/h (1 Bft)
21.11.2016 07:03 6,9 °C 6,9 °C 71 % 1006,6 hPa 0,0 mm 1,1 km/h (1 Bft) S 184 ° 0 min 0,000 mm 0,0 UV-I 0 W/m² 2,0 °C 1,6 km/h (1 Bft)
21.11.2016 07:04 6,9 °C 6,9 °C 70 % 1006,6 hPa 0,0 mm 2,7 km/h (1 Bft) S 184 ° 0 min 0,000 mm 0,0 UV-I 0 W/m² 1,8 °C 4,8 km/h (1 Bft)
21.11.2016 07:05 6,9 °C 6,9 °C 70 % 1006,5 hPa 0,0 mm 3,5 km/h (1 Bft) SO 146 ° 0 min 0,000 mm 0,0 UV-I 0 W/m² 1,8 °C 4,8 km/h (1 Bft)
21.11.2016 07:06 7,0 °C 7,0 °C 71 % 1006,5 hPa 0,0 mm 3,6 km/h (1 Bft) S-SO 148 ° 0 min 0,000 mm 0,0 UV-I 0 W/m² 2,1 °C 6,4 km/h (2 Bft)
21.11.2016 07:07 7,1 °C 7,1 °C 70 % 1006,5 hPa 0,0 mm 5,0 km/h (1 Bft) S 177 ° 0 min 0,000 mm 0,0 UV-I 0 W/m² 2,0 °C 8,0 km/h (2 Bft)
21.11.2016 07:08 7,1 °C 7,1 °C 70 % 1006,5 hPa 0,0 mm 0,9 km/h (0 Bft) S 178 ° 0 min 0,000 mm 0,0 UV-I 0 W/m² 2,0 °C 3,2 km/h (1 Bft)
21.11.2016 07:09 7,1 °C 7,1 °C 71 % 1006,4 hPa 0,0 mm 1,1 km/h (1 Bft) S 177 ° 0 min 0,000 mm 0,0 UV-I 0 W/m² 2,2 °C 3,2 km/h (1 Bft)
21.11.2016 07:10 7,1 °C 7,2 °C 72 % 1006,5 hPa 0,0 mm 1,9 km/h (1 Bft) S 177 ° 0 min 0,000 mm 0,0 UV-I 0 W/m² 2,4 °C 3,2 km/h (1 Bft)
21.11.2016 07:11 7,1 °C 7,2 °C 71 % 1006,4 hPa 0,0 mm 2,3 km/h (1 Bft) W-NW 288 ° 0 min 0,000 mm 0,0 UV-I 0 W/m² 2,2 °C 4,8 km/h (1 Bft)
21.11.2016 07:12 7,2 °C 7,2 °C 71 % 1006,4 hPa 0,0 mm 3,6 km/h (1 Bft) W-NW 292 ° 0 min 0,000 mm 0,0 UV-I 0 W/m² 2,3 °C 4,8 km/h (1 Bft)
21.11.2016 07:13 7,1 °C 7,2 °C 70 % 1006,5 hPa 0,0 mm 1,9 km/h (1 Bft) NW 311 ° 0 min 0,000 mm 0,0 UV-I 0 W/m² 2,0 °C 3,2 km/h (1 Bft)
21.11.2016 07:14 7,1 °C 7,1 °C 70 % 1006,4 hPa 0,0 mm 1,8 km/h (1 Bft) NW 311 ° 0 min 0,000 mm 0,0 UV-I 0 W/m² 2,0 °C 3,2 km/h (1 Bft)
21.11.2016 07:15 7,1 °C 7,1 °C 70 % 1006,4 hPa 0,0 mm 2,0 km/h (1 Bft) NW 311 ° 0 min 0,000 mm 0,0 UV-I 0 W/m² 2,0 °C 3,2 km/h (1 Bft)
21.11.2016 07:16 7,0 °C 7,1 °C 71 % 1006,4 hPa 0,0 mm 1,8 km/h (1 Bft) NW 311 ° 0 min 0,000 mm 0,0 UV-I 0 W/m² 2,1 °C 3,2 km/h (1 Bft)
21.11.2016 07:17 6,9 °C 7,0 °C 71 % 1006,4 hPa 0,0 mm 1,4 km/h (1 Bft) NW 311 ° 0 min 0,000 mm 0,0 UV-I 0 W/m² 2,0 °C 1,6 km/h (1 Bft)
21.11.2016 07:18 6,8 °C 6,9 °C 71 % 1006,5 hPa 0,0 mm 1,7 km/h (1 Bft) NW 311 ° 0 min 0,000 mm 0,0 UV-I 0 W/m² 1,9 °C 4,8 km/h (1 Bft)
21.11.2016 07:19 6,8 °C 6,9 °C 71 % 1006,6 hPa 0,0 mm 4,8 km/h (1 Bft) W-NW 294 ° 0 min 0,000 mm 0,0 UV-I 0 W/m² 1,9 °C 6,4 km/h (2 Bft)
21.11.2016 07:20 6,8 °C 6,8 °C 71 % 1006,6 hPa 0,0 mm 2,9 km/h (1 Bft) W 270 ° 0 min 0,000 mm 0,0 UV-I 0 W/m² 1,9 °C 4,8 km/h (1 Bft)
21.11.2016 07:21 6,7 °C 6,8 °C 72 % 1006,6 hPa 0,0 mm 3,2 km/h (1 Bft) O-SO 109 ° 0 min 0,000 mm 0,0 UV-I 0 W/m² 2,0 °C 4,8 km/h (1 Bft)
21.11.2016 07:22 6,7 °C 6,7 °C 72 % 1006,5 hPa 0,0 mm 3,9 km/h (1 Bft) O 90 ° 0 min 0,000 mm 0,0 UV-I 0 W/m² 2,0 °C 6,4 km/h (2 Bft)
21.11.2016 07:23 6,6 °C 6,7 °C 72 % 1006,5 hPa 0,0 mm 2,1 km/h (1 Bft) O 90 ° 0 min 0,000 mm 0,0 UV-I 0 W/m² 1,9 °C 3,2 km/h (1 Bft)
21.11.2016 07:24 6,5 °C 6,6 °C 73 % 1006,4 hPa 0,0 mm 1,7 km/h (1 Bft) S-SO 150 ° 0 min 0,000 mm 0,0 UV-I 0 W/m² 2,0 °C 6,4 km/h (2 Bft)
21.11.2016 07:25 6,5 °C 6,6 °C 73 % 1006,3 hPa 0,0 mm 5,2 km/h (1 Bft) S-SO 150 ° 0 min 0,000 mm 0,0 UV-I 0 W/m² 2,0 °C 6,4 km/h (2 Bft)
21.11.2016 07:26 6,5 °C 6,5 °C 73 % 1006,4 hPa 0,0 mm 4,1 km/h (1 Bft) S-SO 150 ° 0 min 0,000 mm 0,0 UV-I 5 W/m² 2,0 °C 4,8 km/h (1 Bft)
21.11.2016 07:27 6,4 °C 6,5 °C 73 % 1006,3 hPa 0,0 mm 7,0 km/h (2 Bft) S 169 ° 0 min 0,000 mm 0,0 UV-I 7 W/m² 1,9 °C 8,0 km/h (2 Bft)
21.11.2016 07:28 6,4 °C 6,4 °C 72 % 1006,3 hPa 0,0 mm 3,1 km/h (1 Bft) S-SO 167 ° 0 min 0,000 mm 0,0 UV-I 7 W/m² 1,7 °C 6,4 km/h (2 Bft)
21.11.2016 07:29 6,4 °C 6,4 °C 73 % 1006,3 hPa 0,0 mm 2,9 km/h (1 Bft) S-SO 157 ° 0 min 0,000 mm 0,0 UV-I 9 W/m² 1,9 °C 4,8 km/h (1 Bft)
21.11.2016 07:30 6,4 °C 6,4 °C 72 % 1006,4 hPa 0,0 mm 4,6 km/h (1 Bft) S 172 ° 0 min 0,000 mm 0,0 UV-I 9 W/m² 1,7 °C 8,0 km/h (2 Bft)
21.11.2016 07:31 6,4 °C 6,4 °C 71 % 1006,4 hPa 0,0 mm 3,4 km/h (1 Bft) S 172 ° 0 min 0,000 mm 0,0 UV-I 9 W/m² 1,5 °C 8,0 km/h (2 Bft)
21.11.2016 07:32 6,5 °C 6,5 °C 71 % 1006,3 hPa 0,0 mm 1,9 km/h (1 Bft) S 171 ° 0 min 0,000 mm 0,0 UV-I 9 W/m² 1,6 °C 3,2 km/h (1 Bft)
21.11.2016 07:33 6,6 °C 6,6 °C 71 % 1006,2 hPa 0,0 mm 3,0 km/h (1 Bft) SO 132 ° 0 min 0,000 mm 0,0 UV-I 9 W/m² 1,7 °C 4,8 km/h (1 Bft)
21.11.2016 07:34 6,6 °C 6,6 °C 73 % 1006,3 hPa 0,0 mm 3,8 km/h (1 Bft) SO 128 ° 0 min 0,000 mm 0,0 UV-I 7 W/m² 2,1 °C 4,8 km/h (1 Bft)
21.11.2016 07:35 6,6 °C 6,6 °C 71 % 1006,2 hPa 0,0 mm 3,2 km/h (1 Bft) S-SO 161 ° 0 min 0,000 mm 0,0 UV-I 7 W/m² 1,7 °C 6,4 km/h (2 Bft)
21.11.2016 07:36 6,7 °C 6,7 °C 71 % 1006,3 hPa 0,0 mm 2,9 km/h (1 Bft) S-SO 161 ° 0 min 0,000 mm 0,0 UV-I 7 W/m² 1,8 °C 6,4 km/h (2 Bft)
21.11.2016 07:37 6,7 °C 6,7 °C 72 % 1006,2 hPa 0,0 mm 1,7 km/h (1 Bft) S-SO 161 ° 0 min 0,000 mm 0,0 UV-I 7 W/m² 2,0 °C 3,2 km/h (1 Bft)
21.11.2016 07:38 6,8 °C 6,8 °C 71 % 1006,3 hPa 0,0 mm 2,3 km/h (1 Bft) SW 220 ° 0 min 0,000 mm 0,0 UV-I 7 W/m² 1,9 °C 3,2 km/h (1 Bft)
21.11.2016 07:39 6,8 °C 6,8 °C 72 % 1006,3 hPa 0,0 mm 0,7 km/h (0 Bft) SW 220 ° 0 min 0,000 mm 0,0 UV-I 9 W/m² 2,1 °C 3,2 km/h (1 Bft)
21.11.2016 07:40 6,8 °C 6,8 °C 72 % 1006,2 hPa 0,0 mm 1,1 km/h (1 Bft) SW 220 ° 0 min 0,000 mm 0,0 UV-I 11 W/m² 2,1 °C 3,2 km/h (1 Bft)
21.11.2016 07:41 6,8 °C 6,8 °C 72 % 1006,2 hPa 0,0 mm 1,0 km/h (0 Bft) SW 220 ° 0 min 0,000 mm 0,0 UV-I 11 W/m² 2,1 °C 1,6 km/h (1 Bft)
21.11.2016 07:42 6,8 °C 6,8 °C 72 % 1006,3 hPa 0,0 mm 0,7 km/h (0 Bft) SW 220 ° 0 min 0,000 mm 0,0 UV-I 12 W/m² 2,1 °C 1,6 km/h (1 Bft)
21.11.2016 07:43 6,8 °C 6,8 °C 72 % 1006,2 hPa 0,0 mm 1,1 km/h (1 Bft) SW 219 ° 0 min 0,000 mm 0,0 UV-I 14 W/m² 2,1 °C 1,6 km/h (1 Bft)
21.11.2016 07:44 6,8 °C 6,8 °C 72 % 1006,2 hPa 0,0 mm 2,8 km/h (1 Bft) S-SW 196 ° 0 min 0,000 mm 0,0 UV-I 16 W/m² 2,1 °C 4,8 km/h (1 Bft)
21.11.2016 07:45 6,8 °C 6,8 °C 74 % 1006,2 hPa 0,0 mm 3,6 km/h (1 Bft) S-SO 160 ° 0 min 0,000 mm 0,0 UV-I 16 W/m² 2,5 °C 6,4 km/h (2 Bft)
21.11.2016 07:46 6,8 °C 6,8 °C 74 % 1006,3 hPa 0,0 mm 2,1 km/h (1 Bft) S-SO 160 ° 0 min 0,000 mm 0,0 UV-I 18 W/m² 2,5 °C 3,2 km/h (1 Bft)
21.11.2016 07:47 6,8 °C 6,8 °C 75 % 1006,2 hPa 0,0 mm 2,1 km/h (1 Bft) S-SO 160 ° 0 min 0,000 mm 0,0 UV-I 18 W/m² 2,7 °C 3,2 km/h (1 Bft)
21.11.2016 07:48 6,8 °C 6,8 °C 74 % 1006,2 hPa 0,0 mm 2,1 km/h (1 Bft) S-SO 160 ° 0 min 0,000 mm 0,0 UV-I 19 W/m² 2,5 °C 3,2 km/h (1 Bft)
21.11.2016 07:49 6,8 °C 6,8 °C 74 % 1006,2 hPa 0,0 mm 1,3 km/h (1 Bft) S-SO 160 ° 0 min 0,000 mm 0,0 UV-I 19 W/m² 2,5 °C 3,2 km/h (1 Bft)
21.11.2016 07:50 6,8 °C 6,8 °C 74 % 1006,2 hPa 0,0 mm 0,3 km/h (0 Bft) S-SO 160 ° 0 min 0,000 mm 0,0 UV-I 19 W/m² 2,5 °C 1,6 km/h (1 Bft)
21.11.2016 07:51 6,8 °C 6,8 °C 73 % 1006,2 hPa 0,0 mm 0,4 km/h (0 Bft) S-SO 160 ° 0 min 0,000 mm 0,0 UV-I 21 W/m² 2,3 °C 1,6 km/h (1 Bft)
21.11.2016 07:52 6,8 °C 6,8 °C 72 % 1006,1 hPa 0,0 mm 2,6 km/h (1 Bft) S-SO 160 ° 0 min 0,000 mm 0,0 UV-I 21 W/m² 2,1 °C 6,4 km/h (2 Bft)
21.11.2016 07:53 6,8 °C 6,8 °C 73 % 1006,1 hPa 0,0 mm 1,1 km/h (1 Bft) S-SO 160 ° 0 min 0,000 mm 0,0 UV-I 23 W/m² 2,3 °C 3,2 km/h (1 Bft)
21.11.2016 07:54 6,8 °C 6,8 °C 74 % 1006,2 hPa 0,0 mm 3,9 km/h (1 Bft) S-SO 160 ° 0 min 0,000 mm 0,0 UV-I 25 W/m² 2,5 °C 6,4 km/h (2 Bft)
21.11.2016 07:55 6,8 °C 6,8 °C 74 % 1006,3 hPa 0,0 mm 2,6 km/h (1 Bft) S-SW 200 ° 0 min 0,000 mm 0,0 UV-I 25 W/m² 2,5 °C 4,8 km/h (1 Bft)
21.11.2016 07:56 6,8 °C 6,8 °C 74 % 1006,3 hPa 0,0 mm 3,7 km/h (1 Bft) W 278 ° 0 min 0,000 mm 0,0 UV-I 25 W/m² 2,5 °C 9,7 km/h (2 Bft)
21.11.2016 07:57 6,8 °C 6,8 °C 74 % 1006,3 hPa 0,0 mm 6,2 km/h (2 Bft) W-NW 285 ° 0 min 0,000 mm 0,0 UV-I 25 W/m² 2,5 °C 11,3 km/h (2 Bft)
21.11.2016 07:58 6,8 °C 6,8 °C 73 % 1006,2 hPa 0,0 mm 2,5 km/h (1 Bft) W-NW 296 ° 0 min 0,000 mm 0,0 UV-I 26 W/m² 2,3 °C 3,2 km/h (1 Bft)
21.11.2016 07:59 6,8 °C 6,8 °C 74 % 1006,2 hPa 0,0 mm 1,3 km/h (1 Bft) W-NW 296 ° 0 min 0,000 mm 0,0 UV-I 26 W/m² 2,5 °C 3,2 km/h (1 Bft)
21.11.2016 08:00 6,8 °C 6,8 °C 74 % 1006,2 hPa 0,0 mm 1,8 km/h (1 Bft) W-NW 296 ° 0 min 0,000 mm 0,0 UV-I 28 W/m² 2,5 °C 3,2 km/h (1 Bft)
21.11.2016 08:01 6,8 °C 6,8 °C 74 % 1006,2 hPa 0,0 mm 1,8 km/h (1 Bft) W-NW 296 ° 0 min 0,026 mm 0,0 UV-I 28 W/m² 2,5 °C 3,2 km/h (1 Bft)
21.11.2016 08:02 6,8 °C 6,8 °C 74 % 1006,2 hPa 0,0 mm 1,3 km/h (1 Bft) W-NW 296 ° 0 min 0,000 mm 0,0 UV-I 30 W/m² 2,5 °C 3,2 km/h (1 Bft)
21.11.2016 08:03 6,8 °C 6,8 °C 75 % 1006,1 hPa 0,0 mm 4,0 km/h (1 Bft) W-NW 296 ° 0 min 0,000 mm 0,0 UV-I 30 W/m² 2,7 °C 4,8 km/h (1 Bft)
21.11.2016 08:04 6,8 °C 6,8 °C 75 % 1006,1 hPa 0,0 mm 3,2 km/h (1 Bft) W-NW 295 ° 0 min 0,000 mm 0,0 UV-I 32 W/m² 2,7 °C 4,8 km/h (1 Bft)
21.11.2016 08:05 6,7 °C 6,8 °C 76 % 1006,1 hPa 0,0 mm 2,1 km/h (1 Bft) W-NW 295 ° 0 min 0,000 mm 0,0 UV-I 32 W/m² 2,8 °C 3,2 km/h (1 Bft)
21.11.2016 08:06 6,7 °C 6,8 °C 76 % 1005,9 hPa 0,0 mm 1,8 km/h (1 Bft) W-NW 295 ° 0 min 0,000 mm 0,0 UV-I 33 W/m² 2,8 °C 3,2 km/h (1 Bft)
21.11.2016 08:07 6,8 °C 6,8 °C 77 % 1006,0 hPa 0,0 mm 1,7 km/h (1 Bft) W-NW 295 ° 0 min 0,000 mm 0,0 UV-I 33 W/m² 3,1 °C 3,2 km/h (1 Bft)
21.11.2016 08:08 6,7 °C 6,8 °C 77 % 1006,0 hPa 0,0 mm 1,0 km/h (0 Bft) W-NW 296 ° 0 min 0,000 mm 0,0 UV-I 33 W/m² 3,0 °C 3,2 km/h (1 Bft)
21.11.2016 08:09 6,8 °C 6,8 °C 77 % 1006,0 hPa 0,0 mm 1,4 km/h (1 Bft) W-NW 296 ° 0 min 0,000 mm 0,0 UV-I 33 W/m² 3,1 °C 3,2 km/h (1 Bft)
21.11.2016 08:10 6,7 °C 6,8 °C 77 % 1006,0 hPa 0,0 mm 2,2 km/h (1 Bft) W-NW 295 ° 0 min 0,000 mm 0,0 UV-I 33 W/m² 3,0 °C 4,8 km/h (1 Bft)
21.11.2016 08:11 6,7 °C 6,8 °C 76 % 1006,1 hPa 0,0 mm 2,7 km/h (1 Bft) W-NW 295 ° 0 min 0,000 mm 0,0 UV-I 35 W/m² 2,8 °C 4,8 km/h (1 Bft)
21.11.2016 08:12 6,7 °C 6,8 °C 76 % 1006,1 hPa 0,0 mm 3,4 km/h (1 Bft) NW 308 ° 0 min 0,000 mm 0,0 UV-I 35 W/m² 2,8 °C 8,0 km/h (2 Bft)
21.11.2016 08:13 6,7 °C 6,7 °C 75 % 1006,1 hPa 0,0 mm 3,7 km/h (1 Bft) NW 308 ° 0 min 0,000 mm 0,0 UV-I 35 W/m² 2,6 °C 6,4 km/h (2 Bft)
21.11.2016 08:14 6,7 °C 6,7 °C 75 % 1006,1 hPa 0,0 mm 2,3 km/h (1 Bft) W-SW 248 ° 0 min 0,000 mm 0,0 UV-I 35 W/m² 2,6 °C 4,8 km/h (1 Bft)
21.11.2016 08:15 6,7 °C 6,7 °C 75 % 1006,1 hPa 0,0 mm 2,9 km/h (1 Bft) W-SW 238 ° 0 min 0,000 mm 0,0 UV-I 35 W/m² 2,6 °C 3,2 km/h (1 Bft)
21.11.2016 08:16 6,7 °C 6,7 °C 75 % 1006,0 hPa 0,0 mm 2,6 km/h (1 Bft) W-SW 238 ° 0 min 0,000 mm 0,0 UV-I 35 W/m² 2,6 °C 3,2 km/h (1 Bft)
21.11.2016 08:17 6,7 °C 6,7 °C 75 % 1005,9 hPa 0,0 mm 2,7 km/h (1 Bft) W-SW 238 ° 0 min 0,000 mm 0,0 UV-I 35 W/m² 2,6 °C 3,2 km/h (1 Bft)
21.11.2016 08:18 6,7 °C 6,7 °C 75 % 1006,0 hPa 0,0 mm 1,1 km/h (1 Bft) S-SW 205 ° 0 min 0,000 mm 0,0 UV-I 33 W/m² 2,6 °C 3,2 km/h (1 Bft)
21.11.2016 08:19 6,7 °C 6,7 °C 76 % 1006,0 hPa 0,0 mm 3,8 km/h (1 Bft) O 96 ° 0 min 0,000 mm 0,0 UV-I 33 W/m² 2,8 °C 4,8 km/h (1 Bft)
21.11.2016 08:20 6,7 °C 6,7 °C 77 % 1005,9 hPa 0,0 mm 2,0 km/h (1 Bft) O 96 ° 0 min 0,000 mm 0,0 UV-I 33 W/m² 3,0 °C 3,2 km/h (1 Bft)
21.11.2016 08:21 6,7 °C 6,7 °C 77 % 1005,9 hPa 0,0 mm 2,9 km/h (1 Bft) N-NW 339 ° 0 min 0,000 mm 0,0 UV-I 33 W/m² 3,0 °C 6,4 km/h (2 Bft)
21.11.2016 08:22 6,7 °C 6,7 °C 76 % 1005,8 hPa 0,0 mm 2,2 km/h (1 Bft) S-SO 153 ° 0 min 0,000 mm 0,0 UV-I 33 W/m² 2,8 °C 4,8 km/h (1 Bft)
21.11.2016 08:23 6,7 °C 6,7 °C 75 % 1005,9 hPa 0,0 mm 3,6 km/h (1 Bft) NW 324 ° 0 min 0,000 mm 0,0 UV-I 33 W/m² 2,6 °C 6,4 km/h (2 Bft)
21.11.2016 08:24 6,7 °C 6,7 °C 75 % 1005,8 hPa 0,0 mm 3,2 km/h (1 Bft) NW 315 ° 0 min 0,000 mm 0,0 UV-I 33 W/m² 2,6 °C 4,8 km/h (1 Bft)
21.11.2016 08:25 6,7 °C 6,7 °C 74 % 1005,8 hPa 0,0 mm 3,3 km/h (1 Bft) W-NW 284 ° 0 min 0,000 mm 0,0 UV-I 33 W/m² 2,4 °C 4,8 km/h (1 Bft)
21.11.2016 08:26 6,7 °C 6,7 °C 74 % 1006,0 hPa 0,0 mm 3,9 km/h (1 Bft) N-NW 335 ° 0 min 0,000 mm 0,0 UV-I 33 W/m² 2,4 °C 4,8 km/h (1 Bft)
21.11.2016 08:27 6,8 °C 6,8 °C 75 % 1005,9 hPa 0,0 mm 2,8 km/h (1 Bft) NO 38 ° 0 min 0,000 mm 0,0 UV-I 33 W/m² 2,7 °C 3,2 km/h (1 Bft)
21.11.2016 08:28 6,7 °C 6,8 °C 74 % 1005,8 hPa 0,0 mm 1,7 km/h (1 Bft) O-SO 109 ° 0 min 0,000 mm 0,0 UV-I 33 W/m² 2,4 °C 3,2 km/h (1 Bft)
21.11.2016 08:29 6,7 °C 6,8 °C 73 % 1006,0 hPa 0,0 mm 1,0 km/h (0 Bft) O-SO 109 ° 0 min 0,000 mm 0,0 UV-I 33 W/m² 2,2 °C 3,2 km/h (1 Bft)
21.11.2016 08:30 6,8 °C 6,8 °C 73 % 1005,9 hPa 0,0 mm 3,1 km/h (1 Bft) W 263 ° 0 min 0,000 mm 0,0 UV-I 33 W/m² 2,3 °C 6,4 km/h (2 Bft)
21.11.2016 08:31 6,8 °C 6,8 °C 73 % 1005,9 hPa 0,0 mm 2,2 km/h (1 Bft) W 263 ° 0 min 0,000 mm 0,0 UV-I 35 W/m² 2,3 °C 3,2 km/h (1 Bft)
21.11.2016 08:32 6,8 °C 6,8 °C 72 % 1005,9 hPa 0,0 mm 3,9 km/h (1 Bft) S-SO 167 ° 0 min 0,000 mm 0,0 UV-I 35 W/m² 2,1 °C 8,0 km/h (2 Bft)
21.11.2016 08:33 6,9 °C 6,9 °C 71 % 1005,9 hPa 0,0 mm 5,0 km/h (1 Bft) S 172 ° 0 min 0,000 mm 0,0 UV-I 35 W/m² 2,0 °C 6,4 km/h (2 Bft)
21.11.2016 08:34 7,1 °C 7,1 °C 72 % 1005,9 hPa 0,0 mm 1,9 km/h (1 Bft) NW 321 ° 0 min 0,000 mm 0,0 UV-I 35 W/m² 2,4 °C 3,2 km/h (1 Bft)
21.11.2016 08:35 7,1 °C 7,1 °C 72 % 1005,8 hPa 0,0 mm 1,0 km/h (0 Bft) S 182 ° 0 min 0,000 mm 0,0 UV-I 35 W/m² 2,4 °C 3,2 km/h (1 Bft)
21.11.2016 08:36 7,2 °C 7,2 °C 73 % 1005,7 hPa 0,0 mm 4,6 km/h (1 Bft) O-SO 123 ° 0 min 0,000 mm 0,0 UV-I 35 W/m² 2,7 °C 6,4 km/h (2 Bft)
21.11.2016 08:37 7,2 °C 7,2 °C 72 % 1005,7 hPa 0,0 mm 2,9 km/h (1 Bft) O-SO 122 ° 0 min 0,000 mm 0,0 UV-I 35 W/m² 2,5 °C 4,8 km/h (1 Bft)
21.11.2016 08:38 7,2 °C 7,2 °C 70 % 1005,7 hPa 0,0 mm 3,3 km/h (1 Bft) S 181 ° 0 min 0,000 mm 0,0 UV-I 35 W/m² 2,1 °C 6,4 km/h (2 Bft)
21.11.2016 08:39 7,3 °C 7,3 °C 69 % 1005,8 hPa 0,0 mm 3,1 km/h (1 Bft) N-NW 335 ° 0 min 0,000 mm 0,0 UV-I 35 W/m² 2,0 °C 4,8 km/h (1 Bft)
21.11.2016 08:40 7,4 °C 7,4 °C 71 % 1005,6 hPa 0,0 mm 5,1 km/h (1 Bft) SO 145 ° 0 min 0,000 mm 0,0 UV-I 35 W/m² 2,5 °C 8,0 km/h (2 Bft)
21.11.2016 08:41 7,5 °C 7,5 °C 70 % 1005,6 hPa 0,0 mm 6,4 km/h (2 Bft) O-NO 69 ° 0 min 0,000 mm 0,0 UV-I 37 W/m² 2,4 °C 12,9 km/h (3 Bft)
21.11.2016 08:42 7,6 °C 7,6 °C 73 % 1005,5 hPa 0,0 mm 6,8 km/h (2 Bft) O-SO 109 ° 0 min 0,000 mm 0,0 UV-I 37 W/m² 3,1 °C 12,9 km/h (3 Bft)
21.11.2016 08:43 7,7 °C 7,7 °C 69 % 1005,6 hPa 0,0 mm 3,2 km/h (1 Bft) O-SO 109 ° 0 min 0,000 mm 0,0 UV-I 37 W/m² 2,4 °C 6,4 km/h (2 Bft)
21.11.2016 08:44 7,9 °C 7,9 °C 68 % 1005,6 hPa 0,0 mm 7,2 km/h (2 Bft) W-SW 252 ° 0 min 0,000 mm 0,0 UV-I 37 W/m² 2,4 °C 12,9 km/h (3 Bft)
21.11.2016 08:45 8,1 °C 8,1 °C 67 % 1005,6 hPa 0,0 mm 2,8 km/h (1 Bft) N-NW 341 ° 0 min 0,000 mm 0,0 UV-I 37 W/m² 2,3 °C 4,8 km/h (1 Bft)
21.11.2016 08:46 8,2 °C 8,2 °C 67 % 1005,5 hPa 0,0 mm 2,0 km/h (1 Bft) N-NW 337 ° 0 min 0,000 mm 0,0 UV-I 39 W/m² 2,4 °C 3,2 km/h (1 Bft)
21.11.2016 08:47 8,4 °C 8,4 °C 67 % 1005,6 hPa 0,0 mm 1,8 km/h (1 Bft) N-NW 337 ° 0 min 0,000 mm 0,0 UV-I 39 W/m² 2,6 °C 3,2 km/h (1 Bft)
21.11.2016 08:48 8,6 °C 8,6 °C 67 % 1005,5 hPa 0,0 mm 1,0 km/h (0 Bft) N-NW 337 ° 0 min 0,000 mm 0,0 UV-I 40 W/m² 2,8 °C 3,2 km/h (1 Bft)
21.11.2016 08:49 8,7 °C 8,7 °C 68 % 1005,5 hPa 0,0 mm 1,6 km/h (1 Bft) N-NW 338 ° 0 min 0,000 mm 0,0 UV-I 40 W/m² 3,1 °C 3,2 km/h (1 Bft)
21.11.2016 08:50 8,8 °C 8,8 °C 70 % 1005,5 hPa 0,0 mm 1,1 km/h (1 Bft) N-NW 338 ° 0 min 0,000 mm 0,0 UV-I 40 W/m² 3,6 °C 3,2 km/h (1 Bft)
21.11.2016 08:51 8,8 °C 8,8 °C 68 % 1005,5 hPa 0,0 mm 0,8 km/h (0 Bft) N-NW 338 ° 0 min 0,000 mm 0,0 UV-I 40 W/m² 3,2 °C 3,2 km/h (1 Bft)
21.11.2016 08:52 8,9 °C 8,9 °C 67 % 1005,6 hPa 0,0 mm 0,0 km/h (0 Bft) N-NW 338 ° 0 min 0,000 mm 0,0 UV-I 42 W/m² 3,1 °C 0,0 km/h (0 Bft)
21.11.2016 08:53 8,9 °C 8,9 °C 67 % 1005,6 hPa 0,0 mm 4,1 km/h (1 Bft) NO 38 ° 0 min 0,000 mm 0,0 UV-I 42 W/m² 3,1 °C 12,9 km/h (3 Bft)
21.11.2016 08:54 9,0 °C 9,0 °C 67 % 1005,5 hPa 0,0 mm 3,7 km/h (1 Bft) O-SO 122 ° 0 min 0,000 mm 0,0 UV-I 42 W/m² 3,2 °C 4,8 km/h (1 Bft)
21.11.2016 08:55 9,1 °C 9,1 °C 66 % 1005,5 hPa 0,0 mm 2,9 km/h (1 Bft) N 11 ° 0 min 0,000 mm 0,0 UV-I 44 W/m² 3,1 °C 4,8 km/h (1 Bft)
21.11.2016 08:56 9,1 °C 9,1 °C 65 % 1005,4 hPa 0,0 mm 4,1 km/h (1 Bft) O 98 ° 0 min 0,000 mm 0,0 UV-I 44 W/m² 2,9 °C 6,4 km/h (2 Bft)
21.11.2016 08:57 9,1 °C 9,1 °C 67 % 1005,5 hPa 0,0 mm 3,3 km/h (1 Bft) NO 54 ° 0 min 0,000 mm 0,0 UV-I 44 W/m² 3,3 °C 6,4 km/h (2 Bft)
21.11.2016 08:58 9,1 °C 9,1 °C 67 % 1005,4 hPa 0,0 mm 3,6 km/h (1 Bft) S-SW 194 ° 0 min 0,000 mm 0,0 UV-I 44 W/m² 3,3 °C 12,9 km/h (3 Bft)
21.11.2016 08:59 9,2 °C 9,2 °C 65 % 1005,5 hPa 0,0 mm 10,4 km/h (2 Bft) W 277 ° 0 min 0,000 mm 0,0 UV-I 44 W/m² 3,0 °C 17,7 km/h (3 Bft)
21.11.2016 09:00 9,3 °C 9,3 °C 65 % 1005,6 hPa 0,0 mm 9,9 km/h (2 Bft) W-NW 299 ° 0 min 0,000 mm 0,0 UV-I 46 W/m² 3,1 °C 14,5 km/h (3 Bft)
21.11.2016 09:01 9,5 °C 9,5 °C 64 % 1005,5 hPa 0,0 mm 10,7 km/h (2 Bft) W-NW 284 ° 0 min 0,025 mm 0,0 UV-I 46 W/m² 3,0 °C 12,9 km/h (3 Bft)
21.11.2016 09:02 9,6 °C 9,6 °C 64 % 1005,6 hPa 0,0 mm 6,7 km/h (2 Bft) W 261 ° 0 min 0,000 mm 0,0 UV-I 44 W/m² 3,1 °C 9,7 km/h (2 Bft)
21.11.2016 09:03 9,7 °C 9,7 °C 64 % 1005,6 hPa 0,0 mm 4,0 km/h (1 Bft) W-NW 293 ° 0 min 0,000 mm 0,0 UV-I 44 W/m² 3,2 °C 4,8 km/h (1 Bft)
21.11.2016 09:04 9,8 °C 9,8 °C 64 % 1005,4 hPa 0,0 mm 4,3 km/h (1 Bft) SO 143 ° 0 min 0,000 mm 0,0 UV-I 46 W/m² 3,3 °C 6,4 km/h (2 Bft)
21.11.2016 09:05 9,8 °C 9,8 °C 63 % 1005,5 hPa 0,0 mm 4,0 km/h (1 Bft) O-SO 104 ° 0 min 0,000 mm 0,0 UV-I 46 W/m² 3,1 °C 6,4 km/h (2 Bft)
21.11.2016 09:06 9,9 °C 9,9 °C 65 % 1005,4 hPa 0,0 mm 1,3 km/h (1 Bft) O-SO 105 ° 0 min 0,000 mm 0,0 UV-I 46 W/m² 3,6 °C 3,2 km/h (1 Bft)
21.11.2016 09:07 9,9 °C 9,9 °C 63 % 1005,4 hPa 0,0 mm 1,9 km/h (1 Bft) O-SO 105 ° 0 min 0,000 mm 0,0 UV-I 46 W/m² 3,2 °C 3,2 km/h (1 Bft)
21.11.2016 09:08 10,0 °C 10,0 °C 63 % 1005,3 hPa 0,0 mm 3,2 km/h (1 Bft) NO 49 ° 0 min 0,000 mm 0,0 UV-I 46 W/m² 3,3 °C 4,8 km/h (1 Bft)
21.11.2016 09:09 10,1 °C 10,1 °C 63 % 1005,3 hPa 0,0 mm 4,6 km/h (1 Bft) O-NO 68 ° 0 min 0,000 mm 0,0 UV-I 47 W/m² 3,4 °C 6,4 km/h (2 Bft)
21.11.2016 09:10 10,1 °C 10,1 °C 64 % 1005,4 hPa 0,0 mm 10,9 km/h (2 Bft) O 94 ° 0 min 0,000 mm 0,0 UV-I 49 W/m² 3,6 °C 17,7 km/h (3 Bft)
21.11.2016 09:11 10,1 °C 10,1 °C 64 % 1005,4 hPa 0,0 mm 5,7 km/h (1 Bft) O-NO 70 ° 0 min 0,000 mm 0,0 UV-I 51 W/m² 3,6 °C 12,9 km/h (3 Bft)
21.11.2016 09:12 10,2 °C 10,2 °C 63 % 1005,4 hPa 0,0 mm 3,5 km/h (1 Bft) O 80 ° 0 min 0,000 mm 0,0 UV-I 51 W/m² 3,5 °C 8,0 km/h (2 Bft)
21.11.2016 09:13 10,2 °C 10,2 °C 62 % 1005,4 hPa 0,0 mm 6,4 km/h (2 Bft) SO 144 ° 0 min 0,000 mm 0,0 UV-I 53 W/m² 3,3 °C 12,9 km/h (3 Bft)
21.11.2016 09:14 10,3 °C 10,3 °C 62 % 1005,3 hPa 0,0 mm 3,4 km/h (1 Bft) SO 144 ° 0 min 0,000 mm 0,0 UV-I 54 W/m² 3,3 °C 4,8 km/h (1 Bft)
21.11.2016 09:15 10,3 °C 10,3 °C 62 % 1005,3 hPa 0,0 mm 5,3 km/h (1 Bft) O-NO 65 ° 0 min 0,000 mm 0,5 UV-I 56 W/m² 3,3 °C 8,0 km/h (2 Bft)
21.11.2016 09:16 10,4 °C 10,4 °C 63 % 1005,3 hPa 0,0 mm 3,9 km/h (1 Bft) O-NO 65 ° 0 min 0,000 mm 0,5 UV-I 60 W/m² 3,7 °C 8,0 km/h (2 Bft)
21.11.2016 09:17 10,4 °C 10,4 °C 63 % 1005,3 hPa 0,0 mm 5,2 km/h (1 Bft) O-NO 71 ° 0 min 0,000 mm 0,5 UV-I 60 W/m² 3,7 °C 9,7 km/h (2 Bft)
21.11.2016 09:18 10,4 °C 10,4 °C 65 % 1005,4 hPa 0,0 mm 2,7 km/h (1 Bft) NO 55 ° 0 min 0,000 mm 0,6 UV-I 63 W/m² 4,1 °C 4,8 km/h (1 Bft)
21.11.2016 09:19 10,5 °C 10,5 °C 62 % 1005,1 hPa 0,0 mm 1,7 km/h (1 Bft) O-NO 71 ° 0 min 0,000 mm 0,6 UV-I 65 W/m² 3,5 °C 4,8 km/h (1 Bft)
21.11.2016 09:20 10,6 °C 10,6 °C 62 % 1005,1 hPa 0,0 mm 3,8 km/h (1 Bft) O-NO 74 ° 0 min 0,000 mm 0,6 UV-I 67 W/m² 3,6 °C 6,4 km/h (2 Bft)
21.11.2016 09:21 10,6 °C 10,6 °C 63 % 1005,1 hPa 0,0 mm 7,4 km/h (2 Bft) NO 45 ° 0 min 0,000 mm 0,6 UV-I 67 W/m² 3,9 °C 12,9 km/h (3 Bft)
21.11.2016 09:22 10,6 °C 10,6 °C 63 % 1005,2 hPa 0,0 mm 2,7 km/h (1 Bft) O 89 ° 0 min 0,000 mm 0,6 UV-I 69 W/m² 3,9 °C 4,8 km/h (1 Bft)
21.11.2016 09:23 10,7 °C 10,7 °C 61 % 1005,3 hPa 0,0 mm 1,9 km/h (1 Bft) NO 44 ° 0 min 0,000 mm 0,6 UV-I 69 W/m² 3,5 °C 4,8 km/h (1 Bft)
21.11.2016 09:24 10,8 °C 10,8 °C 62 % 1005,2 hPa 0,0 mm 3,5 km/h (1 Bft) N 360 ° 0 min 0,000 mm 0,6 UV-I 70 W/m² 3,8 °C 4,8 km/h (1 Bft)
21.11.2016 09:25 10,8 °C 10,8 °C 64 % 1005,2 hPa 0,0 mm 2,7 km/h (1 Bft) N-NO 21 ° 0 min 0,000 mm 0,6 UV-I 72 W/m² 4,3 °C 4,8 km/h (1 Bft)
21.11.2016 09:26 10,9 °C 10,9 °C 65 % 1005,2 hPa 0,0 mm 7,4 km/h (2 Bft) NO 42 ° 0 min 0,000 mm 0,6 UV-I 74 W/m² 4,6 °C 12,9 km/h (3 Bft)
21.11.2016 09:27 10,9 °C 10,9 °C 61 % 1005,1 hPa 0,0 mm 2,4 km/h (1 Bft) S-SW 196 ° 0 min 0,000 mm 0,7 UV-I 77 W/m² 3,7 °C 4,8 km/h (1 Bft)
21.11.2016 09:28 11,0 °C 11,0 °C 61 % 1005,2 hPa 0,0 mm 1,8 km/h (1 Bft) W-NW 296 ° 0 min 0,000 mm 0,7 UV-I 77 W/m² 3,8 °C 3,2 km/h (1 Bft)
21.11.2016 09:29 11,1 °C 11,1 °C 61 % 1005,2 hPa 0,0 mm 1,1 km/h (1 Bft) NW 304 ° 0 min 0,000 mm 0,7 UV-I 79 W/m² 3,9 °C 3,2 km/h (1 Bft)
21.11.2016 09:30 11,1 °C 11,1 °C 61 % 1005,2 hPa 0,0 mm 3,5 km/h (1 Bft) N-NW 344 ° 0 min 0,000 mm 0,7 UV-I 81 W/m² 3,9 °C 4,8 km/h (1 Bft)
21.11.2016 09:31 11,2 °C 11,2 °C 61 % 1005,2 hPa 0,0 mm 2,6 km/h (1 Bft) N-NO 13 ° 0 min 0,000 mm 0,7 UV-I 83 W/m² 4,0 °C 6,4 km/h (2 Bft)
21.11.2016 09:32 11,2 °C 11,2 °C 61 % 1005,2 hPa 0,0 mm 2,8 km/h (1 Bft) O 85 ° 0 min 0,000 mm 0,7 UV-I 86 W/m² 4,0 °C 6,4 km/h (2 Bft)
21.11.2016 09:33 11,3 °C 11,3 °C 62 % 1005,2 hPa 0,0 mm 2,9 km/h (1 Bft) N 5 ° 0 min 0,000 mm 0,7 UV-I 90 W/m² 4,3 °C 4,8 km/h (1 Bft)
21.11.2016 09:34 11,4 °C 11,4 °C 61 % 1005,1 hPa 0,0 mm 3,6 km/h (1 Bft) N 5 ° 0 min 0,000 mm 0,7 UV-I 91 W/m² 4,2 °C 4,8 km/h (1 Bft)
21.11.2016 09:35 11,5 °C 11,5 °C 60 % 1005,1 hPa 0,0 mm 3,3 km/h (1 Bft) O 94 ° 0 min 0,000 mm 0,7 UV-I 93 W/m² 4,0 °C 6,4 km/h (2 Bft)
21.11.2016 09:36 11,6 °C 11,6 °C 62 % 1005,1 hPa 0,0 mm 4,4 km/h (1 Bft) N 5 ° 0 min 0,000 mm 0,8 UV-I 95 W/m² 4,6 °C 8,0 km/h (2 Bft)
21.11.2016 09:37 11,7 °C 11,7 °C 61 % 1005,1 hPa 0,0 mm 4,8 km/h (1 Bft) NW 316 ° 0 min 0,000 mm 0,8 UV-I 97 W/m² 4,4 °C 12,9 km/h (3 Bft)
21.11.2016 09:38 11,9 °C 11,9 °C 59 % 1005,1 hPa 0,0 mm 6,4 km/h (2 Bft) O-NO 69 ° 0 min 0,000 mm 0,8 UV-I 98 W/m² 4,1 °C 9,7 km/h (2 Bft)
21.11.2016 09:39 12,2 °C 12,2 °C 60 % 1005,2 hPa 0,0 mm 4,1 km/h (1 Bft) NO 36 ° 0 min 0,000 mm 0,8 UV-I 100 W/m² 4,7 °C 6,4 km/h (2 Bft)
21.11.2016 09:40 12,4 °C 12,4 °C 62 % 1005,1 hPa 0,0 mm 4,3 km/h (1 Bft) N-NO 21 ° 0 min 0,000 mm 0,8 UV-I 104 W/m² 5,3 °C 9,7 km/h (2 Bft)
21.11.2016 09:41 12,7 °C 12,7 °C 57 % 1005,1 hPa 0,0 mm 2,6 km/h (1 Bft) O 80 ° 0 min 0,000 mm 0,8 UV-I 107 W/m² 4,4 °C 4,8 km/h (1 Bft)
21.11.2016 09:42 12,8 °C 12,8 °C 58 % 1005,1 hPa 0,0 mm 6,1 km/h (2 Bft) NO 39 ° 0 min 0,000 mm 0,8 UV-I 109 W/m² 4,7 °C 14,5 km/h (3 Bft)
21.11.2016 09:43 13,1 °C 13,1 °C 55 % 1005,1 hPa 0,0 mm 4,8 km/h (1 Bft) O-NO 70 ° 0 min 0,000 mm 0,8 UV-I 111 W/m² 4,3 °C 6,4 km/h (2 Bft)
21.11.2016 09:44 13,3 °C 13,3 °C 57 % 1005,0 hPa 0,0 mm 5,2 km/h (1 Bft) O 88 ° 0 min 0,000 mm 0,9 UV-I 113 W/m² 5,0 °C 8,0 km/h (2 Bft)
21.11.2016 09:45 13,4 °C 13,4 °C 59 % 1005,1 hPa 0,0 mm 6,4 km/h (2 Bft) N 355 ° 0 min 0,000 mm 0,9 UV-I 118 W/m² 5,6 °C 17,7 km/h (3 Bft)
21.11.2016 09:46 13,6 °C 13,6 °C 55 % 1005,1 hPa 0,0 mm 9,9 km/h (2 Bft) N-NO 26 ° 0 min 0,000 mm 0,9 UV-I 118 W/m² 4,7 °C 16,1 km/h (3 Bft)
21.11.2016 09:47 13,8 °C 13,8 °C 53 % 1005,0 hPa 0,0 mm 5,6 km/h (1 Bft) O 101 ° 0 min 0,000 mm 0,9 UV-I 120 W/m² 4,4 °C 12,9 km/h (3 Bft)
21.11.2016 09:48 13,9 °C 13,9 °C 54 % 1005,1 hPa 0,0 mm 6,4 km/h (2 Bft) O 80 ° 0 min 0,000 mm 0,9 UV-I 121 W/m² 4,7 °C 9,7 km/h (2 Bft)
21.11.2016 09:49 13,9 °C 13,9 °C 53 % 1005,1 hPa 0,0 mm 5,7 km/h (1 Bft) O-NO 65 ° 0 min 0,000 mm 0,9 UV-I 123 W/m² 4,5 °C 9,7 km/h (2 Bft)
21.11.2016 09:50 14,1 °C 14,1 °C 51 % 1005,1 hPa 0,0 mm 1,7 km/h (1 Bft) SO 144 ° 0 min 0,000 mm 0,9 UV-I 123 W/m² 4,1 °C 3,2 km/h (1 Bft)
21.11.2016 09:51 14,2 °C 14,2 °C 50 % 1005,1 hPa 0,0 mm 3,2 km/h (1 Bft) N 355 ° 0 min 0,000 mm 0,9 UV-I 125 W/m² 3,9 °C 4,8 km/h (1 Bft)
21.11.2016 09:52 14,3 °C 14,3 °C 52 % 1005,1 hPa 0,0 mm 3,1 km/h (1 Bft) N-NO 17 ° 0 min 0,000 mm 0,9 UV-I 127 W/m² 4,6 °C 4,8 km/h (1 Bft)
21.11.2016 09:53 14,7 °C 14,7 °C 47 % 1005,1 hPa 0,0 mm 2,2 km/h (1 Bft) N 9 ° 0 min 0,000 mm 0,9 UV-I 127 W/m² 3,5 °C 3,2 km/h (1 Bft)
21.11.2016 09:54 14,8 °C 14,8 °C 49 % 1005,1 hPa 0,0 mm 0,8 km/h (0 Bft) N 5 ° 0 min 0,000 mm 0,9 UV-I 127 W/m² 4,2 °C 3,2 km/h (1 Bft)
21.11.2016 09:55 14,8 °C 14,9 °C 50 % 1005,1 hPa 0,0 mm 3,4 km/h (1 Bft) N-NW 337 ° 0 min 0,000 mm 0,9 UV-I 128 W/m² 4,5 °C 4,8 km/h (1 Bft)
21.11.2016 09:56 14,8 °C 14,8 °C 49 % 1005,1 hPa 0,0 mm 0,1 km/h (0 Bft) N-NW 337 ° 0 min 0,000 mm 0,9 UV-I 128 W/m² 4,2 °C 1,6 km/h (1 Bft)
21.11.2016 09:57 14,9 °C 14,9 °C 49 % 1005,1 hPa 0,0 mm 1,7 km/h (1 Bft) N 360 ° 0 min 0,000 mm 0,9 UV-I 130 W/m² 4,3 °C 3,2 km/h (1 Bft)
21.11.2016 09:58 14,9 °C 14,9 °C 47 % 1005,1 hPa 0,0 mm 3,4 km/h (1 Bft) N 355 ° 0 min 0,000 mm 0,9 UV-I 132 W/m² 3,7 °C 8,0 km/h (2 Bft)
21.11.2016 09:59 14,9 °C 14,9 °C 48 % 1005,0 hPa 0,0 mm 5,6 km/h (1 Bft) O-SO 123 ° 0 min 0,000 mm 0,9 UV-I 134 W/m² 4,0 °C 8,0 km/h (2 Bft)
21.11.2016 10:00 15,0 °C 15,0 °C 51 % 1005,0 hPa 0,0 mm 4,8 km/h (1 Bft) N-NO 30 ° 0 min 0,000 mm 0,9 UV-I 134 W/m² 4,9 °C 6,4 km/h (2 Bft)
21.11.2016 10:01 14,9 °C 15,0 °C 52 % 1004,8 hPa 0,0 mm 2,5 km/h (1 Bft) N 5 ° 0 min 0,076 mm 0,9 UV-I 134 W/m² 5,1 °C 4,8 km/h (1 Bft)
21.11.2016 10:02 14,8 °C 14,9 °C 51 % 1004,9 hPa 0,0 mm 4,9 km/h (1 Bft) W-NW 303 ° 0 min 0,000 mm 0,9 UV-I 135 W/m² 4,8 °C 6,4 km/h (2 Bft)
21.11.2016 10:03 14,8 °C 14,8 °C 49 % 1004,9 hPa 0,0 mm 4,9 km/h (1 Bft) W 265 ° 0 min 0,000 mm 0,9 UV-I 137 W/m² 4,2 °C 9,7 km/h (2 Bft)
21.11.2016 10:04 14,7 °C 14,8 °C 55 % 1005,0 hPa 0,0 mm 3,2 km/h (1 Bft) NW 316 ° 0 min 0,000 mm 0,9 UV-I 137 W/m² 5,8 °C 4,8 km/h (1 Bft)
21.11.2016 10:05 14,4 °C 14,7 °C 56 % 1004,9 hPa 0,0 mm 5,1 km/h (1 Bft) N-NO 29 ° 0 min 0,000 mm 0,9 UV-I 139 W/m² 5,7 °C 8,0 km/h (2 Bft)
21.11.2016 10:06 14,4 °C 14,4 °C 56 % 1004,9 hPa 0,0 mm 4,2 km/h (1 Bft) O-NO 65 ° 0 min 0,000 mm 0,9 UV-I 139 W/m² 5,7 °C 6,4 km/h (2 Bft)
21.11.2016 10:07 14,4 °C 14,4 °C 49 % 1004,9 hPa 0,0 mm 1,8 km/h (1 Bft) O-NO 65 ° 0 min 0,000 mm 0,9 UV-I 139 W/m² 3,8 °C 3,2 km/h (1 Bft)
21.11.2016 10:08 14,6 °C 14,6 °C 52 % 1004,9 hPa 0,0 mm 2,1 km/h (1 Bft) NO 52 ° 0 min 0,000 mm 0,9 UV-I 139 W/m² 4,9 °C 6,4 km/h (2 Bft)
21.11.2016 10:09 14,8 °C 14,8 °C 52 % 1005,0 hPa 0,0 mm 3,7 km/h (1 Bft) O 84 ° 0 min 0,000 mm 0,9 UV-I 139 W/m² 5,0 °C 6,4 km/h (2 Bft)
21.11.2016 10:10 14,8 °C 14,8 °C 51 % 1005,0 hPa 0,0 mm 3,3 km/h (1 Bft) O 91 ° 0 min 0,000 mm 0,9 UV-I 139 W/m² 4,8 °C 4,8 km/h (1 Bft)
21.11.2016 10:11 14,8 °C 14,8 °C 54 % 1005,0 hPa 0,0 mm 0,5 km/h (0 Bft) O 91 ° 0 min 0,000 mm 0,9 UV-I 139 W/m² 5,6 °C 1,6 km/h (1 Bft)
21.11.2016 10:12 14,9 °C 14,9 °C 52 % 1004,9 hPa 0,0 mm 1,9 km/h (1 Bft) O 84 ° 0 min 0,000 mm 0,9 UV-I 139 W/m² 5,1 °C 6,4 km/h (2 Bft)
21.11.2016 10:13 14,9 °C 14,9 °C 53 % 1004,9 hPa 0,0 mm 10,0 km/h (2 Bft) S-SO 163 ° 0 min 0,000 mm 0,9 UV-I 139 W/m² 5,4 °C 14,5 km/h (3 Bft)
21.11.2016 10:14 14,9 °C 14,9 °C 49 % 1004,9 hPa 0,0 mm 4,5 km/h (1 Bft) N 360 ° 0 min 0,000 mm 0,9 UV-I 141 W/m² 4,3 °C 9,7 km/h (2 Bft)
21.11.2016 10:15 15,0 °C 15,0 °C 52 % 1004,8 hPa 0,0 mm 12,2 km/h (2 Bft) O 79 ° 0 min 0,000 mm 0,9 UV-I 141 W/m² 5,2 °C 16,1 km/h (3 Bft)
21.11.2016 10:16 15,0 °C 15,0 °C 49 % 1004,8 hPa 0,0 mm 10,1 km/h (2 Bft) O-SO 112 ° 0 min 0,000 mm 0,9 UV-I 141 W/m² 4,4 °C 16,1 km/h (3 Bft)
21.11.2016 10:17 15,0 °C 15,1 °C 50 % 1004,9 hPa 0,0 mm 1,6 km/h (1 Bft) O-SO 117 ° 0 min 0,000 mm 0,9 UV-I 141 W/m² 4,7 °C 4,8 km/h (1 Bft)
21.11.2016 10:18 15,1 °C 15,1 °C 52 % 1005,0 hPa 0,0 mm 0,3 km/h (0 Bft) O-SO 117 ° 0 min 0,000 mm 0,9 UV-I 141 W/m² 5,3 °C 1,6 km/h (1 Bft)
21.11.2016 10:19 15,0 °C 15,1 °C 52 % 1005,1 hPa 0,0 mm 2,1 km/h (1 Bft) O-SO 113 ° 0 min 0,000 mm 1,0 UV-I 142 W/m² 5,2 °C 3,2 km/h (1 Bft)
21.11.2016 10:20 14,9 °C 15,0 °C 56 % 1005,0 hPa 0,0 mm 1,9 km/h (1 Bft) O 85 ° 0 min 0,000 mm 1,0 UV-I 144 W/m² 6,2 °C 3,2 km/h (1 Bft)
21.11.2016 10:21 14,7 °C 14,9 °C 58 % 1005,0 hPa 0,0 mm 1,5 km/h (1 Bft) O 85 ° 0 min 0,000 mm 1,0 UV-I 144 W/m² 6,5 °C 3,2 km/h (1 Bft)
21.11.2016 10:22 14,6 °C 14,7 °C 54 % 1004,9 hPa 0,0 mm 3,0 km/h (1 Bft) O-NO 61 ° 0 min 0,000 mm 1,0 UV-I 146 W/m² 5,4 °C 4,8 km/h (1 Bft)
21.11.2016 10:23 14,6 °C 14,6 °C 55 % 1004,9 hPa 0,0 mm 2,6 km/h (1 Bft) O-NO 60 ° 0 min 0,000 mm 1,0 UV-I 146 W/m² 5,7 °C 4,8 km/h (1 Bft)
21.11.2016 10:24 14,6 °C 14,6 °C 55 % 1004,9 hPa 0,0 mm 2,0 km/h (1 Bft) N-NO 15 ° 0 min 0,000 mm 1,0 UV-I 148 W/m² 5,7 °C 3,2 km/h (1 Bft)
21.11.2016 10:25 14,6 °C 14,6 °C 55 % 1004,9 hPa 0,0 mm 3,6 km/h (1 Bft) NW 321 ° 0 min 0,000 mm 1,0 UV-I 148 W/m² 5,7 °C 4,8 km/h (1 Bft)
21.11.2016 10:26 14,7 °C 14,7 °C 53 % 1005,0 hPa 0,0 mm 5,3 km/h (1 Bft) SW 225 ° 0 min 0,000 mm 1,0 UV-I 148 W/m² 5,2 °C 6,4 km/h (2 Bft)
21.11.2016 10:27 14,8 °C 14,8 °C 49 % 1005,0 hPa 0,0 mm 6,0 km/h (2 Bft) W-SW 249 ° 0 min 0,000 mm 1,0 UV-I 148 W/m² 4,2 °C 8,0 km/h (2 Bft)
21.11.2016 10:28 15,1 °C 15,1 °C 48 % 1005,0 hPa 0,0 mm 4,6 km/h (1 Bft) W 261 ° 0 min 0,000 mm 1,0 UV-I 149 W/m² 4,2 °C 6,4 km/h (2 Bft)
21.11.2016 10:29 15,3 °C 15,3 °C 47 % 1005,0 hPa 0,0 mm 2,1 km/h (1 Bft) W 261 ° 0 min 0,000 mm 1,0 UV-I 149 W/m² 4,1 °C 3,2 km/h (1 Bft)
21.11.2016 10:30 15,5 °C 15,5 °C 49 % 1005,0 hPa 0,0 mm 2,1 km/h (1 Bft) W 260 ° 0 min 0,000 mm 1,0 UV-I 151 W/m² 4,8 °C 3,2 km/h (1 Bft)
21.11.2016 10:31 15,5 °C 15,5 °C 49 % 1005,0 hPa 0,0 mm 3,4 km/h (1 Bft) W-NW 283 ° 0 min 0,000 mm 1,0 UV-I 151 W/m² 4,8 °C 4,8 km/h (1 Bft)
21.11.2016 10:32 15,3 °C 15,5 °C 51 % 1005,0 hPa 0,0 mm 9,1 km/h (2 Bft) W 275 ° 0 min 0,000 mm 1,0 UV-I 151 W/m² 5,2 °C 12,9 km/h (3 Bft)
21.11.2016 10:33 15,3 °C 15,3 °C 49 % 1004,9 hPa 0,0 mm 7,2 km/h (2 Bft) W 271 ° 0 min 0,000 mm 1,0 UV-I 151 W/m² 4,7 °C 9,7 km/h (2 Bft)
21.11.2016 10:34 15,2 °C 15,3 °C 47 % 1004,8 hPa 0,0 mm 8,8 km/h (2 Bft) NW 310 ° 0 min 0,000 mm 1,0 UV-I 151 W/m² 4,0 °C 11,3 km/h (2 Bft)
21.11.2016 10:35 15,2 °C 15,2 °C 49 % 1005,0 hPa 0,0 mm 3,7 km/h (1 Bft) SW 235 ° 0 min 0,000 mm 1,0 UV-I 151 W/m² 4,6 °C 6,4 km/h (2 Bft)
21.11.2016 10:36 15,1 °C 15,2 °C 49 % 1005,1 hPa 0,0 mm 4,4 km/h (1 Bft) W-SW 245 ° 0 min 0,000 mm 1,1 UV-I 151 W/m² 4,5 °C 8,0 km/h (2 Bft)
21.11.2016 10:37 15,1 °C 15,1 °C 49 % 1005,0 hPa 0,0 mm 4,3 km/h (1 Bft) W 265 ° 0 min 0,000 mm 1,1 UV-I 153 W/m² 4,5 °C 4,8 km/h (1 Bft)
21.11.2016 10:38 15,0 °C 15,1 °C 49 % 1005,0 hPa 0,0 mm 4,0 km/h (1 Bft) W 271 ° 0 min 0,000 mm 1,1 UV-I 151 W/m² 4,4 °C 4,8 km/h (1 Bft)
21.11.2016 10:39 14,9 °C 15,0 °C 51 % 1005,1 hPa 0,0 mm 2,8 km/h (1 Bft) NW 304 ° 0 min 0,000 mm 1,1 UV-I 151 W/m² 4,9 °C 4,8 km/h (1 Bft)
21.11.2016 10:40 14,8 °C 14,9 °C 49 % 1005,0 hPa 0,0 mm 2,1 km/h (1 Bft) NW 304 ° 0 min 0,000 mm 1,1 UV-I 151 W/m² 4,2 °C 3,2 km/h (1 Bft)
21.11.2016 10:41 14,7 °C 14,8 °C 52 % 1005,0 hPa 0,0 mm 1,3 km/h (1 Bft) NW 304 ° 0 min 0,000 mm 1,1 UV-I 151 W/m² 5,0 °C 3,2 km/h (1 Bft)
21.11.2016 10:42 14,6 °C 14,7 °C 51 % 1005,1 hPa 0,0 mm 1,8 km/h (1 Bft) SW 215 ° 0 min 0,000 mm 1,1 UV-I 149 W/m² 4,6 °C 3,2 km/h (1 Bft)
21.11.2016 10:43 14,6 °C 14,7 °C 51 % 1005,1 hPa 0,0 mm 2,7 km/h (1 Bft) SW 215 ° 0 min 0,000 mm 1,1 UV-I 149 W/m² 4,6 °C 4,8 km/h (1 Bft)
21.11.2016 10:44 14,6 °C 14,6 °C 55 % 1005,1 hPa 0,0 mm 0,1 km/h (0 Bft) SW 215 ° 0 min 0,000 mm 1,1 UV-I 149 W/m² 5,7 °C 1,6 km/h (1 Bft)
21.11.2016 10:45 14,4 °C 14,6 °C 56 % 1004,9 hPa 0,0 mm 0,3 km/h (0 Bft) SW 215 ° 0 min 0,000 mm 1,1 UV-I 148 W/m² 5,7 °C 1,6 km/h (1 Bft)
21.11.2016 10:46 14,4 °C 14,4 °C 56 % 1005,0 hPa 0,0 mm 1,1 km/h (1 Bft) SW 215 ° 0 min 0,000 mm 1,1 UV-I 148 W/m² 5,7 °C 1,6 km/h (1 Bft)
21.11.2016 10:47 14,4 °C 14,4 °C 51 % 1005,0 hPa 0,0 mm 0,7 km/h (0 Bft) SW 215 ° 0 min 0,000 mm 1,1 UV-I 148 W/m² 4,4 °C 3,2 km/h (1 Bft)
21.11.2016 10:48 14,4 °C 14,4 °C 50 % 1004,9 hPa 0,0 mm 3,1 km/h (1 Bft) N-NO 19 ° 0 min 0,000 mm 1,1 UV-I 148 W/m² 4,1 °C 4,8 km/h (1 Bft)
21.11.2016 10:49 14,4 °C 14,5 °C 56 % 1004,9 hPa 0,0 mm 2,3 km/h (1 Bft) N-NO 19 ° 0 min 0,000 mm 1,1 UV-I 146 W/m² 5,7 °C 4,8 km/h (1 Bft)
21.11.2016 10:50 14,4 °C 14,5 °C 54 % 1004,9 hPa 0,0 mm 2,2 km/h (1 Bft) O-NO 57 ° 0 min 0,000 mm 1,1 UV-I 144 W/m² 5,2 °C 3,2 km/h (1 Bft)
21.11.2016 10:51 14,4 °C 14,4 °C 52 % 1005,0 hPa 0,0 mm 2,5 km/h (1 Bft) O-NO 69 ° 0 min 0,000 mm 1,1 UV-I 144 W/m² 4,7 °C 3,2 km/h (1 Bft)
21.11.2016 10:52 14,4 °C 14,4 °C 54 % 1004,9 hPa 0,0 mm 6,6 km/h (2 Bft) O 88 ° 0 min 0,000 mm 1,1 UV-I 142 W/m² 5,2 °C 11,3 km/h (2 Bft)
21.11.2016 10:53 14,3 °C 14,4 °C 53 % 1004,8 hPa 0,0 mm 6,5 km/h (2 Bft) O-SO 111 ° 0 min 0,000 mm 1,1 UV-I 142 W/m² 4,9 °C 9,7 km/h (2 Bft)
21.11.2016 10:54 14,3 °C 14,3 °C 53 % 1004,8 hPa 0,0 mm 8,9 km/h (2 Bft) SO 126 ° 0 min 0,000 mm 1,2 UV-I 142 W/m² 4,9 °C 12,9 km/h (3 Bft)
21.11.2016 10:55 14,3 °C 14,3 °C 55 % 1004,8 hPa 0,0 mm 5,8 km/h (2 Bft) NO 37 ° 0 min 0,000 mm 1,2 UV-I 142 W/m² 5,4 °C 6,4 km/h (2 Bft)
21.11.2016 10:56 14,3 °C 14,3 °C 52 % 1004,8 hPa 0,0 mm 3,0 km/h (1 Bft) NO 35 ° 0 min 0,000 mm 1,2 UV-I 139 W/m² 4,6 °C 6,4 km/h (2 Bft)
21.11.2016 10:57 14,2 °C 14,3 °C 54 % 1004,9 hPa 0,0 mm 4,2 km/h (1 Bft) SO 131 ° 0 min 0,000 mm 1,2 UV-I 135 W/m² 5,0 °C 6,4 km/h (2 Bft)
21.11.2016 10:58 14,2 °C 14,3 °C 53 % 1004,9 hPa 0,0 mm 1,9 km/h (1 Bft) O 92 ° 0 min 0,000 mm 1,2 UV-I 135 W/m² 4,8 °C 6,4 km/h (2 Bft)
21.11.2016 10:59 14,1 °C 14,2 °C 61 % 1004,9 hPa 0,0 mm 8,4 km/h (2 Bft) O-NO 61 ° 0 min 0,000 mm 1,2 UV-I 134 W/m² 6,7 °C 12,9 km/h (3 Bft)
21.11.2016 11:00 13,9 °C 14,1 °C 55 % 1004,8 hPa 0,0 mm 7,0 km/h (2 Bft) N-NO 24 ° 0 min 0,000 mm 1,2 UV-I 132 W/m² 5,0 °C 14,5 km/h (3 Bft)
21.11.2016 11:01 14,0 °C 14,0 °C 55 % 1004,8 hPa 0,0 mm 3,9 km/h (1 Bft) NO 48 ° 0 min 0,102 mm 1,2 UV-I 134 W/m² 5,1 °C 6,4 km/h (2 Bft)
21.11.2016 11:02 14,0 °C 14,0 °C 57 % 1004,8 hPa 0,0 mm 3,9 km/h (1 Bft) O 94 ° 0 min 0,000 mm 1,2 UV-I 135 W/m² 5,6 °C 4,8 km/h (1 Bft)
21.11.2016 11:03 14,1 °C 14,1 °C 55 % 1004,8 hPa 0,0 mm 1,3 km/h (1 Bft) O 89 ° 0 min 0,000 mm 1,2 UV-I 132 W/m² 5,2 °C 3,2 km/h (1 Bft)
21.11.2016 11:04 14,1 °C 14,2 °C 53 % 1004,8 hPa 0,0 mm 3,6 km/h (1 Bft) O 91 ° 0 min 0,000 mm 1,2 UV-I 128 W/m² 4,7 °C 4,8 km/h (1 Bft)
21.11.2016 11:05 14,2 °C 14,2 °C 56 % 1004,8 hPa 0,0 mm 4,8 km/h (1 Bft) O-SO 113 ° 0 min 0,000 mm 1,2 UV-I 127 W/m² 5,6 °C 6,4 km/h (2 Bft)
21.11.2016 11:06 14,3 °C 14,3 °C 47 % 1004,9 hPa 0,0 mm 10,0 km/h (2 Bft) SW 225 ° 0 min 0,000 mm 1,2 UV-I 125 W/m² 3,1 °C 14,5 km/h (3 Bft)
21.11.2016 11:07 14,9 °C 14,9 °C 51 % 1004,8 hPa 0,0 mm 2,8 km/h (1 Bft) S-SW 192 ° 0 min 0,000 mm 1,2 UV-I 123 W/m² 4,9 °C 8,0 km/h (2 Bft)
21.11.2016 11:08 14,9 °C 14,9 °C 53 % 1004,7 hPa 0,0 mm 3,8 km/h (1 Bft) N-NW 332 ° 0 min 0,000 mm 1,2 UV-I 125 W/m² 5,4 °C 6,4 km/h (2 Bft)
21.11.2016 11:09 14,9 °C 14,9 °C 54 % 1004,7 hPa 0,0 mm 4,6 km/h (1 Bft) S-SO 155 ° 0 min 0,000 mm 1,2 UV-I 125 W/m² 5,7 °C 9,7 km/h (2 Bft)
21.11.2016 11:10 14,9 °C 14,9 °C 52 % 1004,8 hPa 0,0 mm 6,5 km/h (2 Bft) SO 126 ° 0 min 0,000 mm 1,2 UV-I 125 W/m² 5,1 °C 11,3 km/h (2 Bft)
21.11.2016 11:11 15,2 °C 15,2 °C 47 % 1004,8 hPa 0,0 mm 2,1 km/h (1 Bft) O-SO 111 ° 0 min 0,000 mm 1,2 UV-I 125 W/m² 4,0 °C 3,2 km/h (1 Bft)
21.11.2016 11:12 15,2 °C 15,2 °C 49 % 1004,8 hPa 0,0 mm 2,4 km/h (1 Bft) SO 134 ° 0 min 0,000 mm 1,2 UV-I 123 W/m² 4,6 °C 4,8 km/h (1 Bft)
21.11.2016 11:13 15,4 °C 15,4 °C 49 % 1004,8 hPa 0,0 mm 1,8 km/h (1 Bft) SO 140 ° 0 min 0,000 mm 1,2 UV-I 125 W/m² 4,7 °C 3,2 km/h (1 Bft)
21.11.2016 11:14 15,7 °C 15,7 °C 44 % 1004,7 hPa 0,0 mm 7,0 km/h (2 Bft) S-SW 204 ° 0 min 0,000 mm 1,2 UV-I 125 W/m² 3,5 °C 12,9 km/h (3 Bft)
21.11.2016 11:15 15,9 °C 15,9 °C 43 % 1004,7 hPa 0,0 mm 5,3 km/h (1 Bft) O-NO 63 ° 0 min 0,000 mm 1,2 UV-I 128 W/m² 3,3 °C 8,0 km/h (2 Bft)
21.11.2016 11:16 15,8 °C 15,9 °C 50 % 1004,6 hPa 0,0 mm 5,6 km/h (1 Bft) SO 142 ° 0 min 0,000 mm 1,2 UV-I 135 W/m² 5,4 °C 9,7 km/h (2 Bft)
21.11.2016 11:17 15,6 °C 15,8 °C 52 % 1004,6 hPa 0,0 mm 4,8 km/h (1 Bft) SO 134 ° 0 min 0,000 mm 1,2 UV-I 141 W/m² 5,8 °C 6,4 km/h (2 Bft)
21.11.2016 11:18 15,6 °C 15,6 °C 51 % 1004,7 hPa 0,0 mm 2,3 km/h (1 Bft) O 91 ° 0 min 0,000 mm 1,2 UV-I 146 W/m² 5,5 °C 4,8 km/h (1 Bft)
21.11.2016 11:19 15,4 °C 15,6 °C 53 % 1004,7 hPa 0,0 mm 4,6 km/h (1 Bft) NO 42 ° 0 min 0,000 mm 1,2 UV-I 148 W/m² 5,9 °C 11,3 km/h (2 Bft)
21.11.2016 11:20 15,3 °C 15,4 °C 54 % 1004,6 hPa 0,0 mm 8,1 km/h (2 Bft) NO 38 ° 0 min 0,000 mm 1,2 UV-I 151 W/m² 6,0 °C 16,1 km/h (3 Bft)
21.11.2016 11:21 15,2 °C 15,3 °C 55 % 1004,4 hPa 0,0 mm 8,3 km/h (2 Bft) O 92 ° 0 min 0,000 mm 1,2 UV-I 158 W/m² 6,2 °C 25,7 km/h (4 Bft)
21.11.2016 11:22 15,3 °C 15,3 °C 51 % 1004,4 hPa 0,0 mm 4,6 km/h (1 Bft) N-NW 339 ° 0 min 0,000 mm 1,2 UV-I 162 W/m² 5,2 °C 8,0 km/h (2 Bft)
21.11.2016 11:23 15,6 °C 15,6 °C 48 % 1004,4 hPa 0,0 mm 4,4 km/h (1 Bft) SO 136 ° 0 min 0,000 mm 1,2 UV-I 162 W/m² 4,6 °C 8,0 km/h (2 Bft)
21.11.2016 11:24 15,7 °C 15,7 °C 50 % 1004,4 hPa 0,0 mm 1,7 km/h (1 Bft) SO 136 ° 0 min 0,000 mm 1,2 UV-I 162 W/m² 5,3 °C 3,2 km/h (1 Bft)
21.11.2016 11:25 15,8 °C 15,8 °C 49 % 1004,5 hPa 0,0 mm 1,2 km/h (1 Bft) O-SO 109 ° 0 min 0,000 mm 1,2 UV-I 162 W/m² 5,1 °C 3,2 km/h (1 Bft)
21.11.2016 11:26 15,8 °C 15,8 °C 51 % 1004,5 hPa 0,0 mm 1,4 km/h (1 Bft) O 94 ° 0 min 0,000 mm 1,2 UV-I 162 W/m² 5,7 °C 3,2 km/h (1 Bft)
21.11.2016 11:27 15,9 °C 15,9 °C 48 % 1004,5 hPa 0,0 mm 2,1 km/h (1 Bft) W 279 ° 0 min 0,000 mm 1,2 UV-I 162 W/m² 4,9 °C 3,2 km/h (1 Bft)
21.11.2016 11:28 16,1 °C 16,1 °C 47 % 1004,5 hPa 0,0 mm 4,7 km/h (1 Bft) NW 308 ° 0 min 0,000 mm 1,2 UV-I 163 W/m² 4,8 °C 6,4 km/h (2 Bft)
21.11.2016 11:29 16,3 °C 16,3 °C 49 % 1004,5 hPa 0,0 mm 3,4 km/h (1 Bft) W-SW 256 ° 0 min 0,000 mm 1,2 UV-I 162 W/m² 5,6 °C 4,8 km/h (1 Bft)
21.11.2016 11:30 16,3 °C 16,3 °C 46 % 1004,5 hPa 0,0 mm 0,5 km/h (0 Bft) W-SW 256 ° 0 min 0,000 mm 1,1 UV-I 158 W/m² 4,7 °C 1,6 km/h (1 Bft)
21.11.2016 11:31 16,3 °C 16,3 °C 45 % 1004,4 hPa 0,0 mm 2,1 km/h (1 Bft) S-SW 205 ° 0 min 0,000 mm 1,1 UV-I 153 W/m² 4,3 °C 4,8 km/h (1 Bft)
21.11.2016 11:32 16,3 °C 16,3 °C 45 % 1004,4 hPa 0,0 mm 4,4 km/h (1 Bft) N-NO 14 ° 0 min 0,000 mm 1,1 UV-I 151 W/m² 4,3 °C 6,4 km/h (2 Bft)
21.11.2016 11:33 16,1 °C 16,3 °C 54 % 1004,5 hPa 0,0 mm 3,8 km/h (1 Bft) W-SW 258 ° 0 min 0,000 mm 1,1 UV-I 149 W/m² 6,8 °C 6,4 km/h (2 Bft)
21.11.2016 11:34 16,3 °C 16,3 °C 44 % 1004,5 hPa 0,0 mm 6,5 km/h (2 Bft) S-SO 153 ° 0 min 0,000 mm 1,1 UV-I 149 W/m² 4,0 °C 12,9 km/h (3 Bft)
21.11.2016 11:35 16,4 °C 16,4 °C 45 % 1004,4 hPa 0,0 mm 4,0 km/h (1 Bft) S-SW 198 ° 0 min 0,000 mm 1,1 UV-I 148 W/m² 4,4 °C 4,8 km/h (1 Bft)
21.11.2016 11:36 16,4 °C 16,5 °C 46 % 1004,5 hPa 0,0 mm 2,6 km/h (1 Bft) W-SW 251 ° 0 min 0,000 mm 1,1 UV-I 151 W/m² 4,8 °C 4,8 km/h (1 Bft)
21.11.2016 11:37 16,4 °C 16,5 °C 51 % 1004,5 hPa 0,0 mm 1,7 km/h (1 Bft) N-NO 32 ° 0 min 0,000 mm 1,1 UV-I 151 W/m² 6,2 °C 3,2 km/h (1 Bft)
21.11.2016 11:38 16,3 °C 16,4 °C 46 % 1004,5 hPa 0,0 mm 1,5 km/h (1 Bft) NO 38 ° 0 min 0,000 mm 1,1 UV-I 148 W/m² 4,7 °C 4,8 km/h (1 Bft)
21.11.2016 11:39 16,2 °C 16,3 °C 50 % 1004,4 hPa 0,0 mm 2,8 km/h (1 Bft) W-NW 289 ° 0 min 0,000 mm 1,1 UV-I 144 W/m² 5,8 °C 4,8 km/h (1 Bft)
21.11.2016 11:40 16,2 °C 16,2 °C 46 % 1004,3 hPa 0,0 mm 6,8 km/h (2 Bft) W-SW 245 ° 0 min 0,000 mm 1,1 UV-I 141 W/m² 4,6 °C 12,9 km/h (3 Bft)
21.11.2016 11:41 16,2 °C 16,3 °C 49 % 1004,2 hPa 0,0 mm 4,0 km/h (1 Bft) NO 38 ° 0 min 0,000 mm 1,1 UV-I 135 W/m² 5,5 °C 9,7 km/h (2 Bft)
21.11.2016 11:42 16,2 °C 16,2 °C 47 % 1004,2 hPa 0,0 mm 1,9 km/h (1 Bft) NO 40 ° 0 min 0,000 mm 1,0 UV-I 134 W/m² 4,9 °C 3,2 km/h (1 Bft)
21.11.2016 11:43 16,2 °C 16,2 °C 47 % 1004,3 hPa 0,0 mm 4,4 km/h (1 Bft) W-SW 250 ° 0 min 0,000 mm 1,0 UV-I 132 W/m² 4,9 °C 14,5 km/h (3 Bft)
21.11.2016 11:44 16,1 °C 16,2 °C 47 % 1004,2 hPa 0,0 mm 3,8 km/h (1 Bft) SO 128 ° 0 min 0,000 mm 1,0 UV-I 132 W/m² 4,8 °C 6,4 km/h (2 Bft)
21.11.2016 11:45 16,1 °C 16,1 °C 47 % 1004,2 hPa 0,0 mm 2,7 km/h (1 Bft) NO 40 ° 0 min 0,000 mm 1,0 UV-I 132 W/m² 4,8 °C 4,8 km/h (1 Bft)
21.11.2016 11:46 16,1 °C 16,1 °C 46 % 1004,2 hPa 0,0 mm 0,9 km/h (0 Bft) NO 40 ° 0 min 0,000 mm 1,0 UV-I 132 W/m² 4,5 °C 1,6 km/h (1 Bft)
21.11.2016 11:47 16,1 °C 16,1 °C 50 % 1004,2 hPa 0,0 mm 3,7 km/h (1 Bft) N-NO 28 ° 0 min 0,000 mm 1,0 UV-I 134 W/m² 5,7 °C 4,8 km/h (1 Bft)
21.11.2016 11:48 16,1 °C 16,1 °C 48 % 1004,3 hPa 0,0 mm 3,4 km/h (1 Bft) SW 236 ° 0 min 0,000 mm 1,0 UV-I 132 W/m² 5,1 °C 4,8 km/h (1 Bft)
21.11.2016 11:49 16,2 °C 16,2 °C 50 % 1004,1 hPa 0,0 mm 5,4 km/h (1 Bft) N-NW 328 ° 0 min 0,000 mm 1,0 UV-I 134 W/m² 5,8 °C 9,7 km/h (2 Bft)
21.11.2016 11:50 16,1 °C 16,2 °C 47 % 1004,1 hPa 0,0 mm 3,4 km/h (1 Bft) NO 42 ° 0 min 0,000 mm 1,0 UV-I 135 W/m² 4,8 °C 4,8 km/h (1 Bft)
21.11.2016 11:51 16,1 °C 16,1 °C 51 % 1004,2 hPa 0,0 mm 3,7 km/h (1 Bft) NO 40 ° 0 min 0,000 mm 1,0 UV-I 139 W/m² 6,0 °C 6,4 km/h (2 Bft)
21.11.2016 11:52 16,0 °C 16,1 °C 50 % 1004,3 hPa 0,0 mm 2,3 km/h (1 Bft) NW 320 ° 0 min 0,000 mm 1,0 UV-I 142 W/m² 5,6 °C 8,0 km/h (2 Bft)
21.11.2016 11:53 16,1 °C 16,1 °C 47 % 1004,3 hPa 0,0 mm 3,5 km/h (1 Bft) S-SW 212 ° 0 min 0,000 mm 1,0 UV-I 144 W/m² 4,8 °C 6,4 km/h (2 Bft)
21.11.2016 11:54 16,3 °C 16,3 °C 43 % 1004,2 hPa 0,0 mm 6,1 km/h (2 Bft) W-NW 291 ° 0 min 0,000 mm 1,0 UV-I 146 W/m² 3,7 °C 9,7 km/h (2 Bft)
21.11.2016 11:55 16,2 °C 16,3 °C 50 % 1004,0 hPa 0,0 mm 9,3 km/h (2 Bft) S-SO 150 ° 0 min 0,000 mm 1,1 UV-I 146 W/m² 5,8 °C 17,7 km/h (3 Bft)
21.11.2016 11:56 16,3 °C 16,3 °C 46 % 1004,0 hPa 0,0 mm 5,6 km/h (1 Bft) W-SW 258 ° 0 min 0,000 mm 1,1 UV-I 146 W/m² 4,7 °C 11,3 km/h (2 Bft)
21.11.2016 11:57 16,4 °C 16,4 °C 44 % 1004,1 hPa 0,0 mm 9,0 km/h (2 Bft) S-SW 205 ° 0 min 0,000 mm 1,1 UV-I 148 W/m² 4,1 °C 14,5 km/h (3 Bft)
21.11.2016 11:58 16,6 °C 16,6 °C 46 % 1004,0 hPa 0,0 mm 7,5 km/h (2 Bft) W 259 ° 0 min 0,000 mm 1,1 UV-I 151 W/m² 4,9 °C 12,9 km/h (3 Bft)
21.11.2016 11:59 16,6 °C 16,6 °C 46 % 1004,1 hPa 0,0 mm 4,4 km/h (1 Bft) SO 136 ° 0 min 0,000 mm 1,1 UV-I 155 W/m² 4,9 °C 6,4 km/h (2 Bft)
21.11.2016 12:00 16,6 °C 16,6 °C 42 % 1004,1 hPa 0,0 mm 3,2 km/h (1 Bft) N 355 ° 0 min 0,000 mm 1,1 UV-I 155 W/m² 3,6 °C 8,0 km/h (2 Bft)
21.11.2016 12:01 16,6 °C 16,6 °C 47 % 1004,0 hPa 0,0 mm 3,6 km/h (1 Bft) S-SW 193 ° 0 min 0,101 mm 1,1 UV-I 153 W/m² 5,2 °C 6,4 km/h (2 Bft)
21.11.2016 12:02 16,6 °C 16,6 °C 44 % 1004,1 hPa 0,0 mm 1,8 km/h (1 Bft) W-NW 298 ° 0 min 0,000 mm 1,1 UV-I 149 W/m² 4,3 °C 4,8 km/h (1 Bft)
21.11.2016 12:03 16,7 °C 16,7 °C 45 % 1004,1 hPa 0,0 mm 4,1 km/h (1 Bft) SW 215 ° 0 min 0,000 mm 1,1 UV-I 146 W/m² 4,7 °C 9,7 km/h (2 Bft)
21.11.2016 12:04 16,7 °C 16,7 °C 43 % 1004,0 hPa 0,0 mm 9,8 km/h (2 Bft) W 264 ° 0 min 0,000 mm 1,1 UV-I 144 W/m² 4,1 °C 20,9 km/h (4 Bft)
21.11.2016 12:05 16,7 °C 16,8 °C 47 % 1004,1 hPa 0,0 mm 3,2 km/h (1 Bft) O 96 ° 0 min 0,000 mm 1,1 UV-I 142 W/m² 5,3 °C 9,7 km/h (2 Bft)
21.11.2016 12:06 16,7 °C 16,7 °C 47 % 1004,1 hPa 0,0 mm 6,4 km/h (2 Bft) NO 36 ° 0 min 0,000 mm 1,1 UV-I 137 W/m² 5,3 °C 14,5 km/h (3 Bft)
21.11.2016 12:07 16,7 °C 16,7 °C 45 % 1004,0 hPa 0,0 mm 3,1 km/h (1 Bft) W-NW 285 ° 0 min 0,000 mm 1,1 UV-I 135 W/m² 4,7 °C 6,4 km/h (2 Bft)
21.11.2016 12:08 16,7 °C 16,7 °C 46 % 1004,0 hPa 0,0 mm 2,2 km/h (1 Bft) N-NW 338 ° 0 min 0,000 mm 1,1 UV-I 132 W/m² 5,0 °C 4,8 km/h (1 Bft)
21.11.2016 12:09 16,8 °C 16,8 °C 43 % 1004,1 hPa 0,0 mm 5,9 km/h (2 Bft) N-NO 30 ° 0 min 0,000 mm 1,1 UV-I 130 W/m² 4,2 °C 8,0 km/h (2 Bft)
21.11.2016 12:10 16,8 °C 16,8 °C 43 % 1004,0 hPa 0,0 mm 4,3 km/h (1 Bft) O-NO 58 ° 0 min 0,000 mm 1,1 UV-I 130 W/m² 4,2 °C 8,0 km/h (2 Bft)
21.11.2016 12:11 16,7 °C 16,8 °C 46 % 1004,1 hPa 0,0 mm 2,9 km/h (1 Bft) O-NO 58 ° 0 min 0,000 mm 1,1 UV-I 139 W/m² 5,0 °C 3,2 km/h (1 Bft)
21.11.2016 12:12 16,7 °C 16,7 °C 45 % 1004,1 hPa 0,0 mm 6,0 km/h (2 Bft) W-SW 257 ° 0 min 0,000 mm 1,1 UV-I 139 W/m² 4,7 °C 11,3 km/h (2 Bft)
21.11.2016 12:13 16,7 °C 16,7 °C 46 % 1004,0 hPa 0,0 mm 6,9 km/h (2 Bft) SW 222 ° 0 min 0,000 mm 1,1 UV-I 139 W/m² 5,0 °C 11,3 km/h (2 Bft)
21.11.2016 12:14 16,7 °C 16,7 °C 45 % 1004,0 hPa 0,0 mm 7,2 km/h (2 Bft) S-SO 152 ° 0 min 0,000 mm 1,1 UV-I 139 W/m² 4,7 °C 14,5 km/h (3 Bft)
21.11.2016 12:15 16,7 °C 16,7 °C 43 % 1004,1 hPa 0,0 mm 4,4 km/h (1 Bft) SO 133 ° 0 min 0,000 mm 1,1 UV-I 137 W/m² 4,1 °C 9,7 km/h (2 Bft)
21.11.2016 12:16 16,7 °C 16,7 °C 45 % 1004,1 hPa 0,0 mm 7,1 km/h (2 Bft) N-NO 26 ° 0 min 0,000 mm 1,1 UV-I 139 W/m² 4,7 °C 14,5 km/h (3 Bft)
21.11.2016 12:17 16,7 °C 16,7 °C 45 % 1004,1 hPa 0,0 mm 2,0 km/h (1 Bft) NO 53 ° 0 min 0,000 mm 1,1 UV-I 148 W/m² 4,7 °C 6,4 km/h (2 Bft)
21.11.2016 12:18 16,6 °C 16,7 °C 47 % 1004,1 hPa 0,0 mm 3,8 km/h (1 Bft) N 5 ° 0 min 0,000 mm 1,1 UV-I 151 W/m² 5,2 °C 9,7 km/h (2 Bft)
21.11.2016 12:19 16,7 °C 16,7 °C 41 % 1003,9 hPa 0,0 mm 11,3 km/h (2 Bft) N-NO 20 ° 0 min 0,000 mm 1,1 UV-I 153 W/m² 3,4 °C 20,9 km/h (4 Bft)
21.11.2016 12:20 16,9 °C 16,9 °C 42 % 1003,9 hPa 0,0 mm 5,4 km/h (1 Bft) NO 53 ° 0 min 0,000 mm 1,1 UV-I 151 W/m² 3,9 °C 9,7 km/h (2 Bft)
21.11.2016 12:21 17,1 °C 17,1 °C 43 % 1004,0 hPa 0,0 mm 5,7 km/h (1 Bft) W 269 ° 0 min 0,000 mm 1,1 UV-I 153 W/m² 4,4 °C 9,7 km/h (2 Bft)
21.11.2016 12:22 17,1 °C 17,1 °C 43 % 1004,1 hPa 0,0 mm 5,0 km/h (1 Bft) S-SW 200 ° 0 min 0,000 mm 1,1 UV-I 158 W/m² 4,4 °C 8,0 km/h (2 Bft)
21.11.2016 12:23 17,1 °C 17,1 °C 43 % 1004,1 hPa 0,0 mm 3,9 km/h (1 Bft) O 87 ° 0 min 0,000 mm 1,2 UV-I 169 W/m² 4,4 °C 6,4 km/h (2 Bft)
21.11.2016 12:24 17,0 °C 17,1 °C 49 % 1004,0 hPa 0,0 mm 5,8 km/h (2 Bft) O-NO 65 ° 0 min 0,000 mm 1,2 UV-I 171 W/m² 6,2 °C 8,0 km/h (2 Bft)
21.11.2016 12:25 16,9 °C 17,0 °C 48 % 1004,0 hPa 0,0 mm 2,8 km/h (1 Bft) W 269 ° 0 min 0,000 mm 1,2 UV-I 171 W/m² 5,8 °C 4,8 km/h (1 Bft)
21.11.2016 12:26 16,9 °C 16,9 °C 44 % 1004,0 hPa 0,0 mm 3,6 km/h (1 Bft) O 98 ° 0 min 0,000 mm 1,2 UV-I 171 W/m² 4,6 °C 6,4 km/h (2 Bft)
21.11.2016 12:27 16,9 °C 16,9 °C 45 % 1004,1 hPa 0,0 mm 14,9 km/h (3 Bft) S 188 ° 0 min 0,000 mm 1,2 UV-I 171 W/m² 4,9 °C 27,4 km/h (4 Bft)
21.11.2016 12:28 17,0 °C 17,0 °C 43 % 1003,9 hPa 0,0 mm 6,8 km/h (2 Bft) S-SO 152 ° 0 min 0,000 mm 1,2 UV-I 172 W/m² 4,3 °C 17,7 km/h (3 Bft)
21.11.2016 12:29 17,2 °C 17,2 °C 40 % 1004,0 hPa 0,0 mm 4,6 km/h (1 Bft) O 89 ° 0 min 0,000 mm 1,2 UV-I 178 W/m² 3,5 °C 6,4 km/h (2 Bft)
21.11.2016 12:30 17,3 °C 17,3 °C 45 % 1004,0 hPa 0,0 mm 2,7 km/h (1 Bft) N-NO 12 ° 0 min 0,000 mm 1,2 UV-I 176 W/m² 5,3 °C 4,8 km/h (1 Bft)
21.11.2016 12:31 17,2 °C 17,3 °C 46 % 1003,9 hPa 0,0 mm 5,3 km/h (1 Bft) W-SW 249 ° 0 min 0,000 mm 1,2 UV-I 176 W/m² 5,5 °C 8,0 km/h (2 Bft)
21.11.2016 12:32 17,2 °C 17,2 °C 44 % 1004,0 hPa 0,0 mm 10,1 km/h (2 Bft) S-SW 206 ° 0 min 0,000 mm 1,2 UV-I 165 W/m² 4,8 °C 16,1 km/h (3 Bft)
21.11.2016 12:33 17,3 °C 17,3 °C 43 % 1003,9 hPa 0,0 mm 6,0 km/h (2 Bft) W 269 ° 0 min 0,000 mm 1,2 UV-I 163 W/m² 4,6 °C 11,3 km/h (2 Bft)
21.11.2016 12:34 17,4 °C 17,4 °C 40 % 1004,0 hPa 0,0 mm 4,0 km/h (1 Bft) W 270 ° 0 min 0,000 mm 1,2 UV-I 163 W/m² 3,7 °C 6,4 km/h (2 Bft)
21.11.2016 12:35 17,5 °C 17,5 °C 42 % 1003,9 hPa 0,0 mm 8,0 km/h (2 Bft) NO 40 ° 0 min 0,000 mm 1,2 UV-I 165 W/m² 4,4 °C 16,1 km/h (3 Bft)
21.11.2016 12:36 17,5 °C 17,5 °C 40 % 1003,9 hPa 0,0 mm 3,8 km/h (1 Bft) NO 39 ° 0 min 0,000 mm 1,2 UV-I 160 W/m² 3,8 °C 6,4 km/h (2 Bft)
21.11.2016 12:37 17,6 °C 17,6 °C 38 % 1003,8 hPa 0,0 mm 4,5 km/h (1 Bft) NO 39 ° 0 min 0,000 mm 1,2 UV-I 153 W/m² 3,1 °C 8,0 km/h (2 Bft)
21.11.2016 12:38 17,5 °C 17,6 °C 45 % 1003,8 hPa 0,0 mm 1,3 km/h (1 Bft) NO 36 ° 0 min 0,000 mm 1,2 UV-I 148 W/m² 5,4 °C 3,2 km/h (1 Bft)
21.11.2016 12:39 17,3 °C 17,5 °C 44 % 1003,9 hPa 0,0 mm 4,4 km/h (1 Bft) N 360 ° 0 min 0,000 mm 1,2 UV-I 146 W/m² 4,9 °C 6,4 km/h (2 Bft)
21.11.2016 12:40 17,2 °C 17,3 °C 44 % 1003,9 hPa 0,0 mm 4,2 km/h (1 Bft) N-NW 343 ° 0 min 0,000 mm 1,2 UV-I 146 W/m² 4,8 °C 6,4 km/h (2 Bft)
21.11.2016 12:41 17,1 °C 17,2 °C 44 % 1003,9 hPa 0,0 mm 4,7 km/h (1 Bft) O-NO 57 ° 0 min 0,000 mm 1,2 UV-I 146 W/m² 4,8 °C 8,0 km/h (2 Bft)
21.11.2016 12:42 17,1 °C 17,1 °C 43 % 1003,9 hPa 0,0 mm 10,1 km/h (2 Bft) W 271 ° 0 min 0,000 mm 1,2 UV-I 149 W/m² 4,4 °C 22,5 km/h (4 Bft)
21.11.2016 12:43 17,2 °C 17,2 °C 40 % 1003,9 hPa 0,0 mm 10,9 km/h (2 Bft) S-SW 194 ° 0 min 0,000 mm 1,2 UV-I 155 W/m² 3,5 °C 17,7 km/h (3 Bft)
21.11.2016 12:44 17,3 °C 17,3 °C 40 % 1003,9 hPa 0,0 mm 4,3 km/h (1 Bft) N-NW 336 ° 0 min 0,000 mm 1,2 UV-I 156 W/m² 3,6 °C 11,3 km/h (2 Bft)
21.11.2016 12:45 17,4 °C 17,4 °C 41 % 1004,0 hPa 0,0 mm 7,8 km/h (2 Bft) N 11 ° 0 min 0,000 mm 1,2 UV-I 158 W/m² 4,0 °C 12,9 km/h (3 Bft)
21.11.2016 12:46 17,5 °C 17,5 °C 39 % 1003,9 hPa 0,0 mm 5,3 km/h (1 Bft) N-NO 12 ° 0 min 0,000 mm 1,2 UV-I 160 W/m² 3,4 °C 12,9 km/h (3 Bft)
21.11.2016 12:47 17,6 °C 17,6 °C 38 % 1003,9 hPa 0,0 mm 7,8 km/h (2 Bft) N-NO 13 ° 0 min 0,000 mm 1,2 UV-I 163 W/m² 3,1 °C 14,5 km/h (3 Bft)
21.11.2016 12:48 17,7 °C 17,7 °C 37 % 1004,1 hPa 0,0 mm 4,1 km/h (1 Bft) W-NW 293 ° 0 min 0,000 mm 1,2 UV-I 163 W/m² 2,8 °C 9,7 km/h (2 Bft)
21.11.2016 12:49 17,7 °C 17,7 °C 41 % 1004,0 hPa 0,0 mm 6,8 km/h (2 Bft) W-SW 246 ° 0 min 0,000 mm 1,2 UV-I 162 W/m² 4,3 °C 11,3 km/h (2 Bft)
21.11.2016 12:50 17,7 °C 17,7 °C 42 % 1004,1 hPa 0,0 mm 3,4 km/h (1 Bft) SW 224 ° 0 min 0,000 mm 1,1 UV-I 160 W/m² 4,6 °C 6,4 km/h (2 Bft)
21.11.2016 12:51 17,7 °C 17,7 °C 37 % 1004,1 hPa 0,0 mm 7,7 km/h (2 Bft) O-NO 59 ° 0 min 0,000 mm 1,1 UV-I 160 W/m² 2,8 °C 17,7 km/h (3 Bft)
21.11.2016 12:52 17,8 °C 17,8 °C 36 % 1004,0 hPa 0,0 mm 5,6 km/h (1 Bft) SW 228 ° 0 min 0,000 mm 1,1 UV-I 158 W/m² 2,5 °C 14,5 km/h (3 Bft)
21.11.2016 12:53 17,9 °C 17,9 °C 38 % 1004,1 hPa 0,0 mm 4,1 km/h (1 Bft) N-NO 26 ° 0 min 0,000 mm 1,1 UV-I 155 W/m² 3,4 °C 8,0 km/h (2 Bft)
21.11.2016 12:54 17,8 °C 17,9 °C 38 % 1003,9 hPa 0,0 mm 9,5 km/h (2 Bft) SO 138 ° 0 min 0,000 mm 1,1 UV-I 155 W/m² 3,3 °C 12,9 km/h (3 Bft)
21.11.2016 12:55 17,8 °C 17,8 °C 38 % 1004,1 hPa 0,0 mm 11,1 km/h (2 Bft) SW 234 ° 0 min 0,000 mm 1,1 UV-I 158 W/m² 3,3 °C 19,3 km/h (3 Bft)
21.11.2016 12:56 17,9 °C 17,9 °C 39 % 1004,1 hPa 0,0 mm 7,2 km/h (2 Bft) N-NW 329 ° 0 min 0,000 mm 1,1 UV-I 156 W/m² 3,8 °C 12,9 km/h (3 Bft)
21.11.2016 12:57 17,8 °C 17,9 °C 41 % 1004,0 hPa 0,0 mm 6,0 km/h (2 Bft) S 184 ° 0 min 0,000 mm 1,1 UV-I 155 W/m² 4,4 °C 9,7 km/h (2 Bft)
21.11.2016 12:58 17,7 °C 17,8 °C 39 % 1004,1 hPa 0,0 mm 5,1 km/h (1 Bft) S-SW 200 ° 0 min 0,000 mm 1,1 UV-I 139 W/m² 3,6 °C 16,1 km/h (3 Bft)
21.11.2016 12:59 17,6 °C 17,7 °C 43 % 1004,0 hPa 0,0 mm 8,5 km/h (2 Bft) S-SW 208 ° 0 min 0,000 mm 1,1 UV-I 132 W/m² 4,9 °C 14,5 km/h (3 Bft)
21.11.2016 13:00 17,6 °C 17,6 °C 40 % 1003,9 hPa 0,0 mm 6,6 km/h (2 Bft) O 89 ° 0 min 0,127 mm 1,0 UV-I 127 W/m² 3,8 °C 12,9 km/h (3 Bft)
21.11.2016 13:01 17,6 °C 17,6 °C 41 % 1003,9 hPa 0,0 mm 4,2 km/h (1 Bft) N 11 ° 0 min 0,000 mm 1,0 UV-I 123 W/m² 4,2 °C 8,0 km/h (2 Bft)
21.11.2016 13:02 17,6 °C 17,6 °C 41 % 1003,9 hPa 0,0 mm 2,9 km/h (1 Bft) N-NO 17 ° 0 min 0,000 mm 1,0 UV-I 121 W/m² 4,2 °C 6,4 km/h (2 Bft)
21.11.2016 13:03 17,3 °C 17,6 °C 44 % 1003,9 hPa 0,0 mm 4,2 km/h (1 Bft) N-NO 19 ° 0 min 0,000 mm 1,0 UV-I 120 W/m² 4,9 °C 8,0 km/h (2 Bft)
21.11.2016 13:04 17,1 °C 17,3 °C 44 % 1003,9 hPa 0,0 mm 4,6 km/h (1 Bft) NW 304 ° 0 min 0,000 mm 1,0 UV-I 127 W/m² 4,8 °C 8,0 km/h (2 Bft)
21.11.2016 13:05 17,0 °C 17,1 °C 43 % 1004,0 hPa 0,0 mm 4,5 km/h (1 Bft) NW 311 ° 0 min 0,000 mm 1,0 UV-I 130 W/m² 4,3 °C 6,4 km/h (2 Bft)
21.11.2016 13:06 17,1 °C 17,1 °C 41 % 1004,0 hPa 0,0 mm 1,9 km/h (1 Bft) W-NW 288 ° 0 min 0,000 mm 1,1 UV-I 135 W/m² 3,7 °C 4,8 km/h (1 Bft)
21.11.2016 13:07 17,0 °C 17,1 °C 46 % 1004,0 hPa 0,0 mm 3,0 km/h (1 Bft) W-NW 288 ° 0 min 0,000 mm 1,1 UV-I 142 W/m² 5,3 °C 4,8 km/h (1 Bft)
21.11.2016 13:08 16,9 °C 17,0 °C 44 % 1004,1 hPa 0,0 mm 4,6 km/h (1 Bft) SO 141 ° 0 min 0,000 mm 1,1 UV-I 142 W/m² 4,6 °C 8,0 km/h (2 Bft)
21.11.2016 13:09 16,9 °C 16,9 °C 45 % 1004,0 hPa 0,0 mm 6,0 km/h (2 Bft) N-NW 343 ° 0 min 0,000 mm 1,1 UV-I 137 W/m² 4,9 °C 8,0 km/h (2 Bft)
21.11.2016 13:10 16,9 °C 16,9 °C 42 % 1004,0 hPa 0,0 mm 5,9 km/h (2 Bft) O-SO 103 ° 0 min 0,000 mm 1,1 UV-I 132 W/m² 3,9 °C 12,9 km/h (3 Bft)
21.11.2016 13:11 16,9 °C 16,9 °C 43 % 1003,9 hPa 0,0 mm 7,4 km/h (2 Bft) O-SO 120 ° 0 min 0,000 mm 1,0 UV-I 128 W/m² 4,2 °C 16,1 km/h (3 Bft)
21.11.2016 13:12 16,9 °C 16,9 °C 43 % 1003,9 hPa 0,0 mm 2,5 km/h (1 Bft) N-NO 19 ° 0 min 0,000 mm 1,0 UV-I 128 W/m² 4,2 °C 6,4 km/h (2 Bft)
21.11.2016 13:13 16,8 °C 16,9 °C 46 % 1003,9 hPa 0,0 mm 2,5 km/h (1 Bft) NW 313 ° 0 min 0,000 mm 1,0 UV-I 127 W/m² 5,1 °C 8,0 km/h (2 Bft)
21.11.2016 13:14 16,7 °C 16,8 °C 45 % 1003,8 hPa 0,0 mm 5,2 km/h (1 Bft) N 5 ° 0 min 0,000 mm 1,0 UV-I 125 W/m² 4,7 °C 9,7 km/h (2 Bft)
21.11.2016 13:15 16,7 °C 16,7 °C 45 % 1003,9 hPa 0,0 mm 6,6 km/h (2 Bft) N-NO 13 ° 0 min 0,000 mm 1,0 UV-I 123 W/m² 4,7 °C 11,3 km/h (2 Bft)
21.11.2016 13:16 16,6 °C 16,7 °C 45 % 1003,9 hPa 0,0 mm 0,4 km/h (0 Bft) N-NO 13 ° 0 min 0,000 mm 1,0 UV-I 120 W/m² 4,6 °C 1,6 km/h (1 Bft)
21.11.2016 13:17 16,7 °C 16,7 °C 45 % 1003,9 hPa 0,0 mm 2,6 km/h (1 Bft) N 349 ° 0 min 0,000 mm 1,0 UV-I 118 W/m² 4,7 °C 4,8 km/h (1 Bft)
21.11.2016 13:18 16,8 °C 16,8 °C 46 % 1004,0 hPa 0,0 mm 2,1 km/h (1 Bft) N 350 ° 0 min 0,000 mm 1,0 UV-I 116 W/m² 5,1 °C 3,2 km/h (1 Bft)
21.11.2016 13:19 16,7 °C 16,8 °C 46 % 1004,1 hPa 0,0 mm 2,7 km/h (1 Bft) NW 321 ° 0 min 0,000 mm 1,0 UV-I 118 W/m² 5,0 °C 3,2 km/h (1 Bft)
21.11.2016 13:20 16,7 °C 16,7 °C 44 % 1004,1 hPa 0,0 mm 4,4 km/h (1 Bft) S-SW 211 ° 0 min 0,000 mm 1,0 UV-I 120 W/m² 4,4 °C 6,4 km/h (2 Bft)
21.11.2016 13:21 16,8 °C 16,8 °C 43 % 1004,1 hPa 0,0 mm 3,6 km/h (1 Bft) W-NW 293 ° 0 min 0,000 mm 1,0 UV-I 121 W/m² 4,2 °C 4,8 km/h (1 Bft)
21.11.2016 13:22 16,8 °C 16,8 °C 45 % 1004,1 hPa 0,0 mm 1,7 km/h (1 Bft) W-NW 293 ° 0 min 0,000 mm 1,0 UV-I 125 W/m² 4,8 °C 4,8 km/h (1 Bft)
21.11.2016 13:23 16,8 °C 16,9 °C 44 % 1004,1 hPa 0,0 mm 2,6 km/h (1 Bft) N-NW 333 ° 0 min 0,000 mm 0,9 UV-I 123 W/m² 4,5 °C 6,4 km/h (2 Bft)
21.11.2016 13:24 16,9 °C 16,9 °C 42 % 1004,1 hPa 0,0 mm 4,1 km/h (1 Bft) N-NW 334 ° 0 min 0,000 mm 0,9 UV-I 121 W/m² 3,9 °C 6,4 km/h (2 Bft)
21.11.2016 13:25 16,9 °C 16,9 °C 43 % 1004,1 hPa 0,0 mm 2,3 km/h (1 Bft) S 176 ° 0 min 0,000 mm 0,9 UV-I 121 W/m² 4,2 °C 4,8 km/h (1 Bft)
21.11.2016 13:26 16,9 °C 16,9 °C 46 % 1004,2 hPa 0,0 mm 2,0 km/h (1 Bft) S 176 ° 0 min 0,000 mm 0,9 UV-I 121 W/m² 5,2 °C 3,2 km/h (1 Bft)
21.11.2016 13:27 16,9 °C 16,9 °C 43 % 1004,2 hPa 0,0 mm 0,8 km/h (0 Bft) S 176 ° 0 min 0,000 mm 0,9 UV-I 121 W/m² 4,2 °C 1,6 km/h (1 Bft)
21.11.2016 13:28 17,0 °C 17,0 °C 40 % 1004,2 hPa 0,0 mm 4,7 km/h (1 Bft) W-NW 303 ° 0 min 0,000 mm 0,9 UV-I 123 W/m² 3,3 °C 11,3 km/h (2 Bft)
21.11.2016 13:29 17,1 °C 17,1 °C 41 % 1004,0 hPa 0,0 mm 10,6 km/h (2 Bft) N 5 ° 0 min 0,000 mm 0,9 UV-I 123 W/m² 3,7 °C 14,5 km/h (3 Bft)
21.11.2016 13:30 17,2 °C 17,2 °C 43 % 1004,1 hPa 0,0 mm 6,0 km/h (2 Bft) S-SW 213 ° 0 min 0,000 mm 0,9 UV-I 123 W/m² 4,5 °C 9,7 km/h (2 Bft)
21.11.2016 13:31 17,3 °C 17,3 °C 41 % 1004,2 hPa 0,0 mm 3,2 km/h (1 Bft) SW 219 ° 0 min 0,000 mm 0,9 UV-I 125 W/m² 3,9 °C 6,4 km/h (2 Bft)
21.11.2016 13:32 17,3 °C 17,3 °C 39 % 1004,2 hPa 0,0 mm 1,5 km/h (1 Bft) SW 219 ° 0 min 0,000 mm 0,9 UV-I 128 W/m² 3,2 °C 3,2 km/h (1 Bft)
21.11.2016 13:33 17,4 °C 17,4 °C 39 % 1004,2 hPa 0,0 mm 4,5 km/h (1 Bft) W 259 ° 0 min 0,000 mm 0,9 UV-I 132 W/m² 3,3 °C 8,0 km/h (2 Bft)
21.11.2016 13:34 17,6 °C 17,6 °C 39 % 1004,2 hPa 0,0 mm 4,8 km/h (1 Bft) NW 304 ° 0 min 0,000 mm 0,9 UV-I 135 W/m² 3,5 °C 6,4 km/h (2 Bft)
21.11.2016 13:35 17,7 °C 17,7 °C 37 % 1004,1 hPa 0,0 mm 4,6 km/h (1 Bft) NW 321 ° 0 min 0,000 mm 0,9 UV-I 139 W/m² 2,8 °C 4,8 km/h (1 Bft)
21.11.2016 13:36 17,7 °C 17,7 °C 38 % 1004,1 hPa 0,0 mm 3,9 km/h (1 Bft) NW 321 ° 0 min 0,000 mm 1,0 UV-I 141 W/m² 3,2 °C 4,8 km/h (1 Bft)
21.11.2016 13:37 17,7 °C 17,7 °C 38 % 1004,1 hPa 0,0 mm 2,9 km/h (1 Bft) NW 321 ° 0 min 0,000 mm 1,0 UV-I 137 W/m² 3,2 °C 4,8 km/h (1 Bft)
21.11.2016 13:38 17,7 °C 17,7 °C 40 % 1004,1 hPa 0,0 mm 2,9 km/h (1 Bft) NW 321 ° 0 min 0,000 mm 1,0 UV-I 141 W/m² 3,9 °C 4,8 km/h (1 Bft)
21.11.2016 13:39 17,7 °C 17,7 °C 41 % 1004,1 hPa 0,0 mm 5,5 km/h (1 Bft) W-NW 287 ° 0 min 0,000 mm 1,1 UV-I 181 W/m² 4,3 °C 6,4 km/h (2 Bft)
21.11.2016 13:40 17,5 °C 17,7 °C 43 % 1004,0 hPa 0,0 mm 2,1 km/h (1 Bft) S-SW 193 ° 1 min 0,000 mm 1,0 UV-I 200 W/m² 4,8 °C 3,2 km/h (1 Bft)
21.11.2016 13:41 17,3 °C 17,5 °C 43 % 1004,1 hPa 0,0 mm 4,2 km/h (1 Bft) O-SO 113 ° 1 min 0,000 mm 1,1 UV-I 216 W/m² 4,6 °C 6,4 km/h (2 Bft)
21.11.2016 13:42 17,3 °C 17,3 °C 41 % 1004,1 hPa 0,0 mm 6,2 km/h (2 Bft) S 187 ° 0 min 0,000 mm 1,0 UV-I 162 W/m² 3,9 °C 11,3 km/h (2 Bft)
21.11.2016 13:43 17,4 °C 17,4 °C 41 % 1004,2 hPa 0,0 mm 2,9 km/h (1 Bft) W-NW 300 ° 0 min 0,000 mm 1,0 UV-I 167 W/m² 4,0 °C 4,8 km/h (1 Bft)
21.11.2016 13:44 17,4 °C 17,5 °C 45 % 1004,2 hPa 0,0 mm 2,4 km/h (1 Bft) S 189 ° 0 min 0,000 mm 1,3 UV-I 167 W/m² 5,3 °C 3,2 km/h (1 Bft)
21.11.2016 13:45 17,3 °C 17,4 °C 45 % 1004,2 hPa 0,0 mm 1,5 km/h (1 Bft) W 278 ° 1 min 0,000 mm 1,3 UV-I 350 W/m² 5,3 °C 4,8 km/h (1 Bft)
21.11.2016 13:46 17,2 °C 17,3 °C 47 % 1004,2 hPa 0,0 mm 2,8 km/h (1 Bft) W 273 ° 1 min 0,000 mm 1,3 UV-I 339 W/m² 5,8 °C 3,2 km/h (1 Bft)
21.11.2016 13:47 17,2 °C 17,2 °C 43 % 1004,3 hPa 0,0 mm 6,1 km/h (2 Bft) NW 305 ° 1 min 0,000 mm 1,3 UV-I 311 W/m² 4,5 °C 17,7 km/h (3 Bft)
21.11.2016 13:48 17,3 °C 17,3 °C 44 % 1004,1 hPa 0,0 mm 7,9 km/h (2 Bft) O 101 ° 1 min 0,000 mm 1,2 UV-I 278 W/m² 4,9 °C 14,5 km/h (3 Bft)
21.11.2016 13:49 17,4 °C 17,4 °C 41 % 1004,2 hPa 0,0 mm 3,2 km/h (1 Bft) W 261 ° 1 min 0,000 mm 1,1 UV-I 237 W/m² 4,0 °C 4,8 km/h (1 Bft)
21.11.2016 13:50 17,6 °C 17,6 °C 43 % 1004,2 hPa 0,0 mm 1,9 km/h (1 Bft) W 261 ° 0 min 0,000 mm 1,0 UV-I 158 W/m² 4,9 °C 4,8 km/h (1 Bft)
21.11.2016 13:51 17,7 °C 17,7 °C 40 % 1004,2 hPa 0,0 mm 1,1 km/h (1 Bft) W 261 ° 0 min 0,000 mm 1,0 UV-I 141 W/m² 3,9 °C 3,2 km/h (1 Bft)
21.11.2016 13:52 17,7 °C 17,8 °C 46 % 1004,2 hPa 0,0 mm 2,7 km/h (1 Bft) S-SO 156 ° 0 min 0,000 mm 1,0 UV-I 141 W/m² 5,9 °C 8,0 km/h (2 Bft)
21.11.2016 13:53 17,7 °C 17,7 °C 41 % 1004,2 hPa 0,0 mm 1,9 km/h (1 Bft) S-SO 156 ° 0 min 0,000 mm 1,0 UV-I 142 W/m² 4,3 °C 4,8 km/h (1 Bft)
21.11.2016 13:54 17,7 °C 17,7 °C 42 % 1004,4 hPa 0,0 mm 4,0 km/h (1 Bft) W-SW 239 ° 0 min 0,000 mm 1,0 UV-I 142 W/m² 4,6 °C 4,8 km/h (1 Bft)
21.11.2016 13:55 17,7 °C 17,7 °C 38 % 1004,3 hPa 0,0 mm 3,9 km/h (1 Bft) N 350 ° 0 min 0,000 mm 1,0 UV-I 141 W/m² 3,2 °C 4,8 km/h (1 Bft)
21.11.2016 13:56 17,8 °C 17,8 °C 41 % 1004,2 hPa 0,0 mm 1,9 km/h (1 Bft) S 173 ° 0 min 0,000 mm 1,0 UV-I 139 W/m² 4,4 °C 6,4 km/h (2 Bft)
21.11.2016 13:57 17,7 °C 17,8 °C 42 % 1004,2 hPa 0,0 mm 4,0 km/h (1 Bft) S-SO 161 ° 0 min 0,000 mm 1,0 UV-I 151 W/m² 4,6 °C 11,3 km/h (2 Bft)
21.11.2016 13:58 17,7 °C 17,7 °C 39 % 1004,2 hPa 0,0 mm 4,7 km/h (1 Bft) S-SW 209 ° 0 min 0,000 mm 0,9 UV-I 137 W/m² 3,6 °C 9,7 km/h (2 Bft)
21.11.2016 13:59 17,7 °C 17,7 °C 39 % 1004,3 hPa 0,0 mm 3,5 km/h (1 Bft) W-NW 282 ° 0 min 0,000 mm 0,9 UV-I 123 W/m² 3,6 °C 6,4 km/h (2 Bft)
21.11.2016 14:00 17,7 °C 17,7 °C 38 % 1004,1 hPa 0,0 mm 3,8 km/h (1 Bft) N 360 ° 0 min 0,000 mm 0,9 UV-I 114 W/m² 3,2 °C 6,4 km/h (2 Bft)
21.11.2016 14:01 17,6 °C 17,7 °C 42 % 1004,2 hPa 0,0 mm 2,1 km/h (1 Bft) N 360 ° 0 min 0,127 mm 0,9 UV-I 111 W/m² 4,5 °C 3,2 km/h (1 Bft)
21.11.2016 14:02 17,4 °C 17,6 °C 44 % 1004,2 hPa 0,0 mm 2,8 km/h (1 Bft) W 277 ° 0 min 0,000 mm 0,9 UV-I 109 W/m² 5,0 °C 4,8 km/h (1 Bft)
21.11.2016 14:03 17,2 °C 17,4 °C 49 % 1004,2 hPa 0,0 mm 3,9 km/h (1 Bft) S-SW 213 ° 0 min 0,000 mm 0,8 UV-I 100 W/m² 6,4 °C 6,4 km/h (2 Bft)
21.11.2016 14:04 17,0 °C 17,2 °C 42 % 1004,3 hPa 0,0 mm 4,1 km/h (1 Bft) W-SW 249 ° 0 min 0,000 mm 0,8 UV-I 98 W/m² 4,0 °C 6,4 km/h (2 Bft)
21.11.2016 14:05 17,0 °C 17,0 °C 41 % 1004,2 hPa 0,0 mm 4,3 km/h (1 Bft) SW 236 ° 0 min 0,000 mm 0,8 UV-I 98 W/m² 3,7 °C 6,4 km/h (2 Bft)
21.11.2016 14:06 17,1 °C 17,1 °C 41 % 1004,1 hPa 0,0 mm 3,8 km/h (1 Bft) W-SW 251 ° 0 min 0,000 mm 0,8 UV-I 97 W/m² 3,7 °C 4,8 km/h (1 Bft)
21.11.2016 14:07 17,2 °C 17,2 °C 41 % 1004,1 hPa 0,0 mm 3,1 km/h (1 Bft) W-SW 251 ° 0 min 0,000 mm 0,8 UV-I 95 W/m² 3,8 °C 4,8 km/h (1 Bft)
21.11.2016 14:08 17,1 °C 17,2 °C 44 % 1004,2 hPa 0,0 mm 4,6 km/h (1 Bft) W 275 ° 0 min 0,000 mm 0,8 UV-I 93 W/m² 4,8 °C 6,4 km/h (2 Bft)
21.11.2016 14:09 17,1 °C 17,2 °C 44 % 1004,2 hPa 0,0 mm 3,8 km/h (1 Bft) W-SW 248 ° 0 min 0,000 mm 0,8 UV-I 88 W/m² 4,8 °C 4,8 km/h (1 Bft)
21.11.2016 14:10 17,0 °C 17,1 °C 43 % 1004,3 hPa 0,0 mm 1,2 km/h (1 Bft) W-SW 248 ° 0 min 0,000 mm 0,7 UV-I 83 W/m² 4,3 °C 3,2 km/h (1 Bft)
21.11.2016 14:11 16,8 °C 17,0 °C 47 % 1004,2 hPa 0,0 mm 1,8 km/h (1 Bft) S 188 ° 0 min 0,000 mm 0,7 UV-I 81 W/m² 5,4 °C 3,2 km/h (1 Bft)
21.11.2016 14:12 16,7 °C 16,8 °C 44 % 1004,3 hPa 0,0 mm 1,7 km/h (1 Bft) S 188 ° 0 min 0,000 mm 0,7 UV-I 77 W/m² 4,4 °C 3,2 km/h (1 Bft)
21.11.2016 14:13 16,7 °C 16,7 °C 41 % 1004,4 hPa 0,0 mm 2,4 km/h (1 Bft) S 188 ° 0 min 0,000 mm 0,7 UV-I 76 W/m² 3,4 °C 4,8 km/h (1 Bft)
21.11.2016 14:14 16,7 °C 16,7 °C 45 % 1004,4 hPa 0,0 mm 3,0 km/h (1 Bft) S-SW 197 ° 0 min 0,000 mm 0,7 UV-I 74 W/m² 4,7 °C 4,8 km/h (1 Bft)
21.11.2016 14:15 16,7 °C 16,7 °C 42 % 1004,3 hPa 0,0 mm 3,2 km/h (1 Bft) W-SW 252 ° 0 min 0,000 mm 0,7 UV-I 70 W/m² 3,7 °C 4,8 km/h (1 Bft)
21.11.2016 14:16 16,7 °C 16,7 °C 42 % 1004,3 hPa 0,0 mm 8,6 km/h (2 Bft) S-SW 200 ° 0 min 0,000 mm 0,6 UV-I 69 W/m² 3,7 °C 14,5 km/h (3 Bft)
21.11.2016 14:17 16,7 °C 16,7 °C 41 % 1004,4 hPa 0,0 mm 4,3 km/h (1 Bft) W 276 ° 0 min 0,000 mm 0,6 UV-I 67 W/m² 3,4 °C 4,8 km/h (1 Bft)
21.11.2016 14:18 16,7 °C 16,7 °C 42 % 1004,2 hPa 0,0 mm 3,3 km/h (1 Bft) W 276 ° 0 min 0,000 mm 0,6 UV-I 65 W/m² 3,7 °C 4,8 km/h (1 Bft)
21.11.2016 14:19 16,7 °C 16,7 °C 42 % 1004,3 hPa 0,0 mm 3,8 km/h (1 Bft) W 271 ° 0 min 0,000 mm 0,6 UV-I 63 W/m² 3,7 °C 4,8 km/h (1 Bft)
21.11.2016 14:20 16,6 °C 16,7 °C 42 % 1004,3 hPa 0,0 mm 1,7 km/h (1 Bft) W 271 ° 0 min 0,000 mm 0,6 UV-I 62 W/m² 3,6 °C 3,2 km/h (1 Bft)
21.11.2016 14:21 16,7 °C 16,7 °C 41 % 1004,3 hPa 0,0 mm 0,6 km/h (0 Bft) W 271 ° 0 min 0,000 mm 0,6 UV-I 62 W/m² 3,4 °C 1,6 km/h (1 Bft)
21.11.2016 14:22 16,6 °C 16,7 °C 45 % 1004,3 hPa 0,0 mm 1,5 km/h (1 Bft) W 271 ° 0 min 0,000 mm 0,6 UV-I 62 W/m² 4,6 °C 3,2 km/h (1 Bft)
21.11.2016 14:23 16,4 °C 16,6 °C 48 % 1004,2 hPa 0,0 mm 4,1 km/h (1 Bft) N-NO 26 ° 0 min 0,000 mm 0,6 UV-I 62 W/m² 5,4 °C 8,0 km/h (2 Bft)
21.11.2016 14:24 16,1 °C 16,4 °C 47 % 1004,2 hPa 0,0 mm 5,7 km/h (1 Bft) O-NO 59 ° 0 min 0,000 mm 0,6 UV-I 62 W/m² 4,8 °C 8,0 km/h (2 Bft)
21.11.2016 14:25 15,9 °C 16,1 °C 46 % 1004,1 hPa 0,0 mm 2,3 km/h (1 Bft) O-NO 65 ° 0 min 0,000 mm 0,6 UV-I 62 W/m² 4,3 °C 6,4 km/h (2 Bft)
21.11.2016 14:26 15,7 °C 15,9 °C 51 % 1004,2 hPa 0,0 mm 3,7 km/h (1 Bft) O 82 ° 0 min 0,000 mm 0,5 UV-I 60 W/m² 5,6 °C 6,4 km/h (2 Bft)
21.11.2016 14:27 15,6 °C 15,7 °C 51 % 1004,2 hPa 0,0 mm 7,2 km/h (2 Bft) NO 43 ° 0 min 0,000 mm 0,5 UV-I 60 W/m² 5,5 °C 12,9 km/h (3 Bft)
21.11.2016 14:28 15,4 °C 15,6 °C 50 % 1004,0 hPa 0,0 mm 7,1 km/h (2 Bft) W-NW 286 ° 0 min 0,000 mm 0,5 UV-I 58 W/m² 5,0 °C 12,9 km/h (3 Bft)
21.11.2016 14:29 15,6 °C 15,6 °C 46 % 1004,1 hPa 0,0 mm 7,3 km/h (2 Bft) S-SO 154 ° 0 min 0,000 mm 0,5 UV-I 58 W/m² 4,0 °C 12,9 km/h (3 Bft)
21.11.2016 14:30 15,8 °C 15,8 °C 42 % 1004,1 hPa 0,0 mm 10,0 km/h (2 Bft) W 260 ° 0 min 0,000 mm 0,5 UV-I 58 W/m² 2,9 °C 14,5 km/h (3 Bft)
21.11.2016 14:31 16,1 °C 16,1 °C 41 % 1004,1 hPa 0,0 mm 10,2 km/h (2 Bft) W-NW 289 ° 0 min 0,000 mm 0,5 UV-I 58 W/m² 2,8 °C 16,1 km/h (3 Bft)
21.11.2016 14:32 16,3 °C 16,3 °C 43 % 1004,0 hPa 0,0 mm 4,5 km/h (1 Bft) SW 222 ° 0 min 0,000 mm 0,5 UV-I 60 W/m² 3,7 °C 11,3 km/h (2 Bft)
21.11.2016 14:33 16,4 °C 16,4 °C 43 % 1004,1 hPa 0,0 mm 3,4 km/h (1 Bft) NW 317 ° 0 min 0,000 mm 0,5 UV-I 60 W/m² 3,8 °C 6,4 km/h (2 Bft)
21.11.2016 14:34 16,4 °C 16,4 °C 43 % 1004,2 hPa 0,0 mm 0,9 km/h (0 Bft) NW 313 ° 0 min 0,000 mm 0,5 UV-I 62 W/m² 3,8 °C 1,6 km/h (1 Bft)
21.11.2016 14:35 16,3 °C 16,4 °C 46 % 1004,3 hPa 0,0 mm 1,7 km/h (1 Bft) NW 313 ° 0 min 0,000 mm 0,5 UV-I 62 W/m² 4,7 °C 3,2 km/h (1 Bft)
21.11.2016 14:36 16,2 °C 16,3 °C 47 % 1004,3 hPa 0,0 mm 1,4 km/h (1 Bft) NW 320 ° 0 min 0,000 mm 0,0 UV-I 62 W/m² 4,9 °C 3,2 km/h (1 Bft)
21.11.2016 14:37 16,0 °C 16,2 °C 47 % 1004,3 hPa 0,0 mm 4,1 km/h (1 Bft) O 92 ° 0 min 0,000 mm 0,0 UV-I 62 W/m² 4,7 °C 6,4 km/h (2 Bft)
21.11.2016 14:38 15,9 °C 16,0 °C 45 % 1004,3 hPa 0,0 mm 3,0 km/h (1 Bft) O 92 ° 0 min 0,000 mm 0,0 UV-I 62 W/m² 4,0 °C 6,4 km/h (2 Bft)
21.11.2016 14:39 15,9 °C 15,9 °C 45 % 1004,3 hPa 0,0 mm 5,7 km/h (1 Bft) O 91 ° 0 min 0,000 mm 0,0 UV-I 60 W/m² 4,0 °C 14,5 km/h (3 Bft)
21.11.2016 14:40 15,8 °C 15,9 °C 46 % 1004,2 hPa 0,0 mm 6,0 km/h (2 Bft) O-SO 123 ° 0 min 0,000 mm 0,0 UV-I 60 W/m² 4,2 °C 11,3 km/h (2 Bft)
21.11.2016 14:41 16,0 °C 16,0 °C 46 % 1004,4 hPa 0,0 mm 2,8 km/h (1 Bft) N-NW 328 ° 0 min 0,000 mm 0,0 UV-I 58 W/m² 4,4 °C 4,8 km/h (1 Bft)
21.11.2016 14:42 16,1 °C 16,1 °C 46 % 1004,3 hPa 0,0 mm 4,1 km/h (1 Bft) O-NO 62 ° 0 min 0,000 mm 0,0 UV-I 56 W/m² 4,5 °C 8,0 km/h (2 Bft)
21.11.2016 14:43 16,1 °C 16,1 °C 48 % 1004,3 hPa 0,0 mm 0,5 km/h (0 Bft) O-NO 62 ° 0 min 0,000 mm 0,0 UV-I 54 W/m² 5,1 °C 1,6 km/h (1 Bft)
21.11.2016 14:44 15,9 °C 16,1 °C 48 % 1004,3 hPa 0,0 mm 0,0 km/h (0 Bft) O-NO 62 ° 0 min 0,000 mm 0,0 UV-I 51 W/m² 4,9 °C 0,0 km/h (0 Bft)
21.11.2016 14:45 15,8 °C 15,9 °C 47 % 1004,3 hPa 0,0 mm 0,0 km/h (0 Bft) O-NO 62 ° 0 min 0,000 mm 0,0 UV-I 49 W/m² 4,5 °C 0,0 km/h (0 Bft)
21.11.2016 14:46 15,8 °C 15,8 °C 45 % 1004,3 hPa 0,0 mm 0,0 km/h (0 Bft) O-NO 62 ° 0 min 0,000 mm 0,0 UV-I 49 W/m² 3,9 °C 0,0 km/h (0 Bft)
21.11.2016 14:47 15,8 °C 15,8 °C 50 % 1004,3 hPa 0,0 mm 0,0 km/h (0 Bft) O-NO 62 ° 0 min 0,000 mm 0,0 UV-I 47 W/m² 5,4 °C 0,0 km/h (0 Bft)
21.11.2016 14:48 15,7 °C 15,8 °C 47 % 1004,3 hPa 0,0 mm 0,0 km/h (0 Bft) O-NO 62 ° 0 min 0,000 mm 0,0 UV-I 46 W/m² 4,4 °C 0,0 km/h (0 Bft)
21.11.2016 14:49 15,6 °C 15,7 °C 48 % 1004,2 hPa 0,0 mm 0,0 km/h (0 Bft) N-NO 15 ° 0 min 0,000 mm 0,0 UV-I 44 W/m² 4,6 °C 0,0 km/h (0 Bft)
21.11.2016 14:50 15,6 °C 15,7 °C 50 % 1004,2 hPa 0,0 mm 4,3 km/h (1 Bft) SO 144 ° 0 min 0,000 mm 0,0 UV-I 40 W/m² 5,2 °C 6,4 km/h (2 Bft)
21.11.2016 14:51 15,6 °C 15,6 °C 45 % 1004,3 hPa 0,0 mm 2,5 km/h (1 Bft) S-SO 148 ° 0 min 0,000 mm 0,0 UV-I 40 W/m² 3,7 °C 4,8 km/h (1 Bft)
21.11.2016 14:52 15,7 °C 15,7 °C 44 % 1004,4 hPa 0,0 mm 3,6 km/h (1 Bft) W 281 ° 0 min 0,000 mm 0,0 UV-I 39 W/m² 3,5 °C 6,4 km/h (2 Bft)
21.11.2016 14:53 15,7 °C 15,7 °C 47 % 1004,4 hPa 0,0 mm 5,0 km/h (1 Bft) W-NW 284 ° 0 min 0,000 mm 0,0 UV-I 37 W/m² 4,4 °C 8,0 km/h (2 Bft)
21.11.2016 14:54 15,7 °C 15,7 °C 45 % 1004,4 hPa 0,0 mm 2,9 km/h (1 Bft) W-NW 283 ° 0 min 0,000 mm 0,0 UV-I 35 W/m² 3,8 °C 4,8 km/h (1 Bft)
21.11.2016 14:55 15,8 °C 15,8 °C 45 % 1004,4 hPa 0,0 mm 1,3 km/h (1 Bft) W-NW 283 ° 0 min 0,000 mm 0,0 UV-I 33 W/m² 3,9 °C 3,2 km/h (1 Bft)
21.11.2016 14:56 15,7 °C 15,8 °C 46 % 1004,4 hPa 0,0 mm 0,3 km/h (0 Bft) W-NW 283 ° 0 min 0,000 mm 0,0 UV-I 32 W/m² 4,1 °C 1,6 km/h (1 Bft)
21.11.2016 14:57 15,6 °C 15,7 °C 50 % 1004,4 hPa 0,0 mm 0,0 km/h (0 Bft) W-NW 283 ° 0 min 0,000 mm 0,0 UV-I 30 W/m² 5,2 °C 0,0 km/h (0 Bft)
21.11.2016 14:58 15,6 °C 15,6 °C 47 % 1004,5 hPa 0,0 mm 0,6 km/h (0 Bft) W-NW 283 ° 0 min 0,000 mm 0,0 UV-I 28 W/m² 4,3 °C 1,6 km/h (1 Bft)
21.11.2016 14:59 15,4 °C 15,6 °C 47 % 1004,4 hPa 0,0 mm 1,4 km/h (1 Bft) W-NW 283 ° 0 min 0,000 mm 0,0 UV-I 26 W/m² 4,1 °C 3,2 km/h (1 Bft)
21.11.2016 15:00 15,5 °C 15,5 °C 44 % 1004,4 hPa 0,0 mm 3,2 km/h (1 Bft) W-NW 283 ° 0 min 0,000 mm 0,0 UV-I 26 W/m² 3,3 °C 4,8 km/h (1 Bft)
21.11.2016 15:01 15,6 °C 15,6 °C 43 % 1004,5 hPa 0,0 mm 1,1 km/h (1 Bft) W-NW 283 ° 0 min 0,077 mm 0,0 UV-I 25 W/m² 3,1 °C 3,2 km/h (1 Bft)
21.11.2016 15:02 15,7 °C 15,7 °C 46 % 1004,5 hPa 0,0 mm 1,6 km/h (1 Bft) W-NW 286 ° 0 min 0,000 mm 0,0 UV-I 25 W/m² 4,1 °C 4,8 km/h (1 Bft)
21.11.2016 15:03 15,6 °C 15,7 °C 50 % 1004,5 hPa 0,0 mm 3,0 km/h (1 Bft) NW 305 ° 0 min 0,000 mm 0,0 UV-I 23 W/m² 5,2 °C 4,8 km/h (1 Bft)
21.11.2016 15:04 15,3 °C 15,6 °C 53 % 1004,5 hPa 0,0 mm 2,5 km/h (1 Bft) NO 42 ° 0 min 0,000 mm 0,0 UV-I 23 W/m² 5,8 °C 3,2 km/h (1 Bft)
21.11.2016 15:05 15,1 °C 15,3 °C 47 % 1004,4 hPa 0,0 mm 2,6 km/h (1 Bft) O-NO 61 ° 0 min 0,000 mm 0,0 UV-I 23 W/m² 3,9 °C 3,2 km/h (1 Bft)
21.11.2016 15:06 15,1 °C 15,1 °C 47 % 1004,4 hPa 0,0 mm 2,2 km/h (1 Bft) O-NO 61 ° 0 min 0,000 mm 0,0 UV-I 21 W/m² 3,9 °C 3,2 km/h (1 Bft)
21.11.2016 15:07 15,3 °C 15,3 °C 44 % 1004,5 hPa 0,0 mm 3,2 km/h (1 Bft) O-NO 65 ° 0 min 0,000 mm 0,0 UV-I 21 W/m² 3,1 °C 3,2 km/h (1 Bft)
21.11.2016 15:08 15,6 °C 15,6 °C 43 % 1004,5 hPa 0,0 mm 5,5 km/h (1 Bft) SO 145 ° 0 min 0,000 mm 0,0 UV-I 21 W/m² 3,1 °C 6,4 km/h (2 Bft)
21.11.2016 15:09 15,7 °C 15,7 °C 44 % 1004,6 hPa 0,0 mm 5,4 km/h (1 Bft) SO 146 ° 0 min 0,000 mm 0,0 UV-I 21 W/m² 3,5 °C 6,4 km/h (2 Bft)
21.11.2016 15:10 15,8 °C 15,8 °C 44 % 1004,6 hPa 0,0 mm 3,7 km/h (1 Bft) N-NO 21 ° 0 min 0,000 mm 0,0 UV-I 21 W/m² 3,6 °C 6,4 km/h (2 Bft)
21.11.2016 15:11 15,9 °C 15,9 °C 45 % 1004,5 hPa 0,0 mm 4,3 km/h (1 Bft) N-NO 21 ° 0 min 0,000 mm 0,0 UV-I 21 W/m² 4,0 °C 6,4 km/h (2 Bft)
21.11.2016 15:12 15,8 °C 15,9 °C 47 % 1004,5 hPa 0,0 mm 3,4 km/h (1 Bft) N-NO 18 ° 0 min 0,000 mm 0,0 UV-I 21 W/m² 4,5 °C 6,4 km/h (2 Bft)
21.11.2016 15:13 15,7 °C 15,8 °C 46 % 1004,6 hPa 0,0 mm 3,5 km/h (1 Bft) NO 43 ° 0 min 0,000 mm 0,0 UV-I 21 W/m² 4,1 °C 4,8 km/h (1 Bft)
21.11.2016 15:14 15,7 °C 15,7 °C 45 % 1004,7 hPa 0,0 mm 0,3 km/h (0 Bft) NO 43 ° 0 min 0,000 mm 0,0 UV-I 23 W/m² 3,8 °C 1,6 km/h (1 Bft)
21.11.2016 15:15 15,7 °C 15,7 °C 45 % 1004,7 hPa 0,0 mm 0,7 km/h (0 Bft) NO 43 ° 0 min 0,000 mm 0,0 UV-I 23 W/m² 3,8 °C 1,6 km/h (1 Bft)
21.11.2016 15:16 15,8 °C 15,8 °C 44 % 1004,6 hPa 0,0 mm 3,1 km/h (1 Bft) NO 43 ° 0 min 0,000 mm 0,0 UV-I 23 W/m² 3,6 °C 4,8 km/h (1 Bft)
21.11.2016 15:17 15,8 °C 15,8 °C 44 % 1004,6 hPa 0,0 mm 2,1 km/h (1 Bft) O-NO 76 ° 0 min 0,000 mm 0,0 UV-I 23 W/m² 3,6 °C 4,8 km/h (1 Bft)
21.11.2016 15:18 15,8 °C 15,9 °C 43 % 1004,7 hPa 0,0 mm 1,0 km/h (0 Bft) O-NO 76 ° 0 min 0,000 mm 0,0 UV-I 25 W/m² 3,3 °C 1,6 km/h (1 Bft)
21.11.2016 15:19 15,9 °C 15,9 °C 45 % 1004,6 hPa 0,0 mm 1,0 km/h (0 Bft) O-NO 76 ° 0 min 0,000 mm 0,0 UV-I 25 W/m² 4,0 °C 3,2 km/h (1 Bft)
21.11.2016 15:20 15,8 °C 15,9 °C 44 % 1004,6 hPa 0,0 mm 2,1 km/h (1 Bft) O-NO 76 ° 0 min 0,000 mm 0,0 UV-I 26 W/m² 3,6 °C 3,2 km/h (1 Bft)
21.11.2016 15:21 15,6 °C 15,8 °C 49 % 1004,6 hPa 0,0 mm 2,0 km/h (1 Bft) O-NO 76 ° 0 min 0,000 mm 0,0 UV-I 26 W/m² 4,9 °C 3,2 km/h (1 Bft)
21.11.2016 15:22 15,3 °C 15,6 °C 50 % 1004,6 hPa 0,0 mm 2,2 km/h (1 Bft) O-NO 76 ° 0 min 0,000 mm 0,0 UV-I 26 W/m² 4,9 °C 3,2 km/h (1 Bft)
21.11.2016 15:23 15,1 °C 15,3 °C 49 % 1004,6 hPa 0,0 mm 2,8 km/h (1 Bft) O-NO 76 ° 0 min 0,000 mm 0,0 UV-I 26 W/m² 4,5 °C 4,8 km/h (1 Bft)
21.11.2016 15:24 15,1 °C 15,1 °C 49 % 1004,7 hPa 0,0 mm 4,0 km/h (1 Bft) S 182 ° 0 min 0,000 mm 0,0 UV-I 26 W/m² 4,5 °C 6,4 km/h (2 Bft)
21.11.2016 15:25 15,0 °C 15,1 °C 49 % 1004,7 hPa 0,0 mm 4,5 km/h (1 Bft) S 183 ° 0 min 0,000 mm 0,0 UV-I 26 W/m² 4,4 °C 6,4 km/h (2 Bft)
21.11.2016 15:26 14,9 °C 15,0 °C 49 % 1004,7 hPa 0,0 mm 2,1 km/h (1 Bft) S 183 ° 0 min 0,000 mm 0,0 UV-I 26 W/m² 4,3 °C 3,2 km/h (1 Bft)
21.11.2016 15:27 14,9 °C 15,0 °C 49 % 1004,8 hPa 0,0 mm 3,4 km/h (1 Bft) S 182 ° 0 min 0,000 mm 0,0 UV-I 26 W/m² 4,3 °C 4,8 km/h (1 Bft)
21.11.2016 15:28 15,0 °C 15,0 °C 49 % 1004,8 hPa 0,0 mm 3,0 km/h (1 Bft) S 182 ° 0 min 0,000 mm 0,0 UV-I 26 W/m² 4,4 °C 3,2 km/h (1 Bft)
21.11.2016 15:29 15,0 °C 15,0 °C 50 % 1004,8 hPa 0,0 mm 3,0 km/h (1 Bft) S 182 ° 0 min 0,000 mm 0,0 UV-I 26 W/m² 4,7 °C 3,2 km/h (1 Bft)
21.11.2016 15:30 14,9 °C 15,0 °C 51 % 1004,7 hPa 0,0 mm 3,4 km/h (1 Bft) S 181 ° 0 min 0,000 mm 0,0 UV-I 26 W/m² 4,9 °C 4,8 km/h (1 Bft)
21.11.2016 15:31 15,0 °C 15,0 °C 48 % 1004,8 hPa 0,0 mm 3,2 km/h (1 Bft) S 181 ° 0 min 0,000 mm 0,0 UV-I 26 W/m² 4,1 °C 4,8 km/h (1 Bft)
21.11.2016 15:32 15,1 °C 15,1 °C 47 % 1004,8 hPa 0,0 mm 1,8 km/h (1 Bft) S 181 ° 0 min 0,000 mm 0,0 UV-I 25 W/m² 3,9 °C 3,2 km/h (1 Bft)
21.11.2016 15:33 15,0 °C 15,1 °C 49 % 1004,8 hPa 0,0 mm 1,9 km/h (1 Bft) S 181 ° 0 min 0,000 mm 0,0 UV-I 25 W/m² 4,4 °C 3,2 km/h (1 Bft)
21.11.2016 15:34 14,9 °C 15,0 °C 51 % 1004,8 hPa 0,0 mm 1,3 km/h (1 Bft) S 181 ° 0 min 0,000 mm 0,0 UV-I 25 W/m² 4,9 °C 3,2 km/h (1 Bft)
21.11.2016 15:35 14,8 °C 14,9 °C 56 % 1004,8 hPa 0,0 mm 0,6 km/h (0 Bft) S 181 ° 0 min 0,000 mm 0,0 UV-I 25 W/m² 6,1 °C 1,6 km/h (1 Bft)
21.11.2016 15:36 14,4 °C 14,8 °C 56 % 1004,8 hPa 0,0 mm 1,9 km/h (1 Bft) S 181 ° 0 min 0,000 mm 0,0 UV-I 23 W/m² 5,7 °C 3,2 km/h (1 Bft)
21.11.2016 15:37 14,2 °C 14,4 °C 57 % 1004,8 hPa 0,0 mm 1,3 km/h (1 Bft) S 181 ° 0 min 0,000 mm 0,0 UV-I 23 W/m² 5,8 °C 3,2 km/h (1 Bft)
21.11.2016 15:38 14,0 °C 14,2 °C 56 % 1004,8 hPa 0,0 mm 3,6 km/h (1 Bft) O-NO 69 ° 0 min 0,000 mm 0,0 UV-I 21 W/m² 5,4 °C 4,8 km/h (1 Bft)
21.11.2016 15:39 13,9 °C 14,0 °C 57 % 1004,8 hPa 0,0 mm 3,2 km/h (1 Bft) O-NO 71 ° 0 min 0,000 mm 0,0 UV-I 21 W/m² 5,5 °C 4,8 km/h (1 Bft)
21.11.2016 15:40 13,9 °C 13,9 °C 51 % 1004,8 hPa 0,0 mm 4,1 km/h (1 Bft) O 92 ° 0 min 0,000 mm 0,0 UV-I 21 W/m² 3,9 °C 4,8 km/h (1 Bft)
21.11.2016 15:41 14,1 °C 14,1 °C 50 % 1004,9 hPa 0,0 mm 2,3 km/h (1 Bft) O 92 ° 0 min 0,000 mm 0,0 UV-I 21 W/m² 3,8 °C 3,2 km/h (1 Bft)
21.11.2016 15:42 14,3 °C 14,3 °C 49 % 1004,9 hPa 0,0 mm 2,5 km/h (1 Bft) O 92 ° 0 min 0,000 mm 0,0 UV-I 19 W/m² 3,7 °C 3,2 km/h (1 Bft)
21.11.2016 15:43 14,6 °C 14,6 °C 49 % 1005,0 hPa 0,0 mm 2,1 km/h (1 Bft) O 92 ° 0 min 0,000 mm 0,0 UV-I 19 W/m² 4,0 °C 3,2 km/h (1 Bft)
21.11.2016 15:44 14,6 °C 14,7 °C 52 % 1004,9 hPa 0,0 mm 2,5 km/h (1 Bft) O 92 ° 0 min 0,000 mm 0,0 UV-I 19 W/m² 4,9 °C 3,2 km/h (1 Bft)
21.11.2016 15:45 14,6 °C 14,6 °C 51 % 1004,9 hPa 0,0 mm 2,9 km/h (1 Bft) O 92 ° 0 min 0,000 mm 0,0 UV-I 18 W/m² 4,6 °C 4,8 km/h (1 Bft)
21.11.2016 15:46 14,6 °C 14,6 °C 49 % 1004,9 hPa 0,0 mm 1,9 km/h (1 Bft) O 92 ° 0 min 0,000 mm 0,0 UV-I 18 W/m² 4,0 °C 3,2 km/h (1 Bft)
21.11.2016 15:47 14,6 °C 14,6 °C 50 % 1005,0 hPa 0,0 mm 3,3 km/h (1 Bft) O 92 ° 0 min 0,000 mm 0,0 UV-I 16 W/m² 4,3 °C 4,8 km/h (1 Bft)
21.11.2016 15:48 14,7 °C 14,7 °C 48 % 1004,9 hPa 0,0 mm 2,6 km/h (1 Bft) O 92 ° 0 min 0,000 mm 0,0 UV-I 16 W/m² 3,8 °C 4,8 km/h (1 Bft)
21.11.2016 15:49 14,8 °C 14,8 °C 47 % 1005,0 hPa 0,0 mm 3,0 km/h (1 Bft) O 92 ° 0 min 0,000 mm 0,0 UV-I 14 W/m² 3,6 °C 3,2 km/h (1 Bft)
21.11.2016 15:50 14,9 °C 14,9 °C 47 % 1005,0 hPa 0,0 mm 2,8 km/h (1 Bft) O 92 ° 0 min 0,000 mm 0,0 UV-I 14 W/m² 3,7 °C 3,2 km/h (1 Bft)
21.11.2016 15:51 15,1 °C 15,1 °C 46 % 1005,0 hPa 0,0 mm 2,5 km/h (1 Bft) O 92 ° 0 min 0,000 mm 0,0 UV-I 12 W/m² 3,6 °C 4,8 km/h (1 Bft)
21.11.2016 15:52 15,2 °C 15,2 °C 48 % 1005,0 hPa 0,0 mm 1,5 km/h (1 Bft) O 92 ° 0 min 0,000 mm 0,0 UV-I 12 W/m² 4,3 °C 3,2 km/h (1 Bft)
21.11.2016 15:53 15,2 °C 15,2 °C 47 % 1005,0 hPa 0,0 mm 2,6 km/h (1 Bft) O 92 ° 0 min 0,000 mm 0,0 UV-I 12 W/m² 4,0 °C 3,2 km/h (1 Bft)
21.11.2016 15:54 15,1 °C 15,2 °C 46 % 1005,0 hPa 0,0 mm 1,9 km/h (1 Bft) O 92 ° 0 min 0,000 mm 0,0 UV-I 11 W/m² 3,6 °C 3,2 km/h (1 Bft)
21.11.2016 15:55 15,2 °C 15,2 °C 46 % 1005,0 hPa 0,0 mm 1,9 km/h (1 Bft) O 92 ° 0 min 0,000 mm 0,0 UV-I 11 W/m² 3,7 °C 3,2 km/h (1 Bft)
21.11.2016 15:56 15,2 °C 15,2 °C 48 % 1005,0 hPa 0,0 mm 3,1 km/h (1 Bft) SO 134 ° 0 min 0,000 mm 0,0 UV-I 11 W/m² 4,3 °C 4,8 km/h (1 Bft)
21.11.2016 15:57 15,2 °C 15,2 °C 47 % 1005,0 hPa 0,0 mm 1,9 km/h (1 Bft) SO 134 ° 0 min 0,000 mm 0,0 UV-I 11 W/m² 4,0 °C 3,2 km/h (1 Bft)
21.11.2016 15:58 15,1 °C 15,2 °C 47 % 1005,0 hPa 0,0 mm 4,2 km/h (1 Bft) SO 134 ° 0 min 0,000 mm 0,0 UV-I 11 W/m² 3,9 °C 6,4 km/h (2 Bft)
21.11.2016 15:59 15,1 °C 15,1 °C 49 % 1005,0 hPa 0,0 mm 4,1 km/h (1 Bft) SO 134 ° 0 min 0,000 mm 0,0 UV-I 11 W/m² 4,5 °C 4,8 km/h (1 Bft)
21.11.2016 16:00 15,1 °C 15,1 °C 48 % 1005,0 hPa 0,0 mm 3,4 km/h (1 Bft) SO 134 ° 0 min 0,000 mm 0,0 UV-I 9 W/m² 4,2 °C 4,8 km/h (1 Bft)
21.11.2016 16:01 15,0 °C 15,1 °C 48 % 1005,0 hPa 0,0 mm 1,3 km/h (1 Bft) SO 134 ° 0 min 0,025 mm 0,0 UV-I 9 W/m² 4,1 °C 3,2 km/h (1 Bft)
21.11.2016 16:02 15,0 °C 15,1 °C 47 % 1005,0 hPa 0,0 mm 1,5 km/h (1 Bft) SO 134 ° 0 min 0,000 mm 0,0 UV-I 9 W/m² 3,8 °C 3,2 km/h (1 Bft)
21.11.2016 16:03 15,0 °C 15,0 °C 47 % 1005,0 hPa 0,0 mm 1,7 km/h (1 Bft) SO 134 ° 0 min 0,000 mm 0,0 UV-I 9 W/m² 3,8 °C 3,2 km/h (1 Bft)
21.11.2016 16:04 14,9 °C 15,0 °C 49 % 1005,0 hPa 0,0 mm 1,1 km/h (1 Bft) SO 134 ° 0 min 0,000 mm 0,0 UV-I 9 W/m² 4,3 °C 3,2 km/h (1 Bft)
21.11.2016 16:05 14,9 °C 14,9 °C 48 % 1005,0 hPa 0,0 mm 1,6 km/h (1 Bft) SO 134 ° 0 min 0,000 mm 0,0 UV-I 7 W/m² 4,0 °C 3,2 km/h (1 Bft)
21.11.2016 16:06 14,9 °C 14,9 °C 47 % 1005,0 hPa 0,0 mm 2,3 km/h (1 Bft) SO 134 ° 0 min 0,000 mm 0,0 UV-I 7 W/m² 3,7 °C 3,2 km/h (1 Bft)
21.11.2016 16:07 15,0 °C 15,0 °C 47 % 1005,2 hPa 0,0 mm 3,8 km/h (1 Bft) SO 134 ° 0 min 0,000 mm 0,0 UV-I 7 W/m² 3,8 °C 4,8 km/h (1 Bft)
21.11.2016 16:08 15,0 °C 15,0 °C 47 % 1005,1 hPa 0,0 mm 2,7 km/h (1 Bft) SO 134 ° 0 min 0,000 mm 0,0 UV-I 7 W/m² 3,8 °C 4,8 km/h (1 Bft)
21.11.2016 16:09 15,0 °C 15,0 °C 49 % 1005,1 hPa 0,0 mm 2,5 km/h (1 Bft) SO 134 ° 0 min 0,000 mm 0,0 UV-I 7 W/m² 4,4 °C 3,2 km/h (1 Bft)
21.11.2016 16:10 14,9 °C 15,0 °C 48 % 1005,1 hPa 0,0 mm 2,8 km/h (1 Bft) SO 134 ° 0 min 0,000 mm 0,0 UV-I 5 W/m² 4,0 °C 3,2 km/h (1 Bft)
21.11.2016 16:11 14,9 °C 15,0 °C 48 % 1005,2 hPa 0,0 mm 1,9 km/h (1 Bft) SO 134 ° 0 min 0,000 mm 0,0 UV-I 5 W/m² 4,0 °C 3,2 km/h (1 Bft)
21.11.2016 16:12 15,0 °C 15,0 °C 48 % 1005,2 hPa 0,0 mm 2,1 km/h (1 Bft) SO 134 ° 0 min 0,000 mm 0,0 UV-I 5 W/m² 4,1 °C 3,2 km/h (1 Bft)
21.11.2016 16:13 14,9 °C 15,0 °C 49 % 1005,2 hPa 0,0 mm 2,2 km/h (1 Bft) SO 134 ° 0 min 0,000 mm 0,0 UV-I 5 W/m² 4,3 °C 3,2 km/h (1 Bft)
21.11.2016 16:14 14,8 °C 14,9 °C 53 % 1005,2 hPa 0,0 mm 3,4 km/h (1 Bft) SO 134 ° 0 min 0,000 mm 0,0 UV-I 0 W/m² 5,3 °C 4,8 km/h (1 Bft)
21.11.2016 16:15 14,7 °C 14,8 °C 50 % 1005,2 hPa 0,0 mm 3,0 km/h (1 Bft) SO 134 ° 0 min 0,000 mm 0,0 UV-I 0 W/m² 4,4 °C 4,8 km/h (1 Bft)
21.11.2016 16:16 14,6 °C 14,7 °C 53 % 1005,2 hPa 0,0 mm 3,5 km/h (1 Bft) SO 134 ° 0 min 0,000 mm 0,0 UV-I 0 W/m² 5,1 °C 4,8 km/h (1 Bft)
21.11.2016 16:17 14,4 °C 14,6 °C 50 % 1005,2 hPa 0,0 mm 3,4 km/h (1 Bft) SO 134 ° 0 min 0,000 mm 0,0 UV-I 0 W/m² 4,1 °C 4,8 km/h (1 Bft)
21.11.2016 16:18 14,4 °C 14,4 °C 50 % 1005,2 hPa 0,0 mm 3,5 km/h (1 Bft) SO 134 ° 0 min 0,000 mm 0,0 UV-I 0 W/m² 4,1 °C 4,8 km/h (1 Bft)
21.11.2016 16:19 14,4 °C 14,4 °C 50 % 1005,3 hPa 0,0 mm 3,2 km/h (1 Bft) SO 134 ° 0 min 0,000 mm 0,0 UV-I 0 W/m² 4,1 °C 3,2 km/h (1 Bft)
21.11.2016 16:20 14,5 °C 14,5 °C 50 % 1005,3 hPa 0,0 mm 3,8 km/h (1 Bft) SO 134 ° 0 min 0,000 mm 0,0 UV-I 0 W/m² 4,2 °C 4,8 km/h (1 Bft)
21.11.2016 16:21 14,5 °C 14,6 °C 51 % 1005,2 hPa 0,0 mm 2,6 km/h (1 Bft) SO 134 ° 0 min 0,000 mm 0,0 UV-I 0 W/m² 4,5 °C 3,2 km/h (1 Bft)
21.11.2016 16:22 14,5 °C 14,5 °C 50 % 1005,3 hPa 0,0 mm 3,2 km/h (1 Bft) SO 134 ° 0 min 0,000 mm 0,0 UV-I 0 W/m² 4,2 °C 4,8 km/h (1 Bft)
21.11.2016 16:23 14,4 °C 14,5 °C 50 % 1005,3 hPa 0,0 mm 3,8 km/h (1 Bft) SO 134 ° 0 min 0,000 mm 0,0 UV-I 0 W/m² 4,1 °C 4,8 km/h (1 Bft)
21.11.2016 16:24 14,5 °C 14,5 °C 50 % 1005,4 hPa 0,0 mm 4,1 km/h (1 Bft) SO 130 ° 0 min 0,000 mm 0,0 UV-I 0 W/m² 4,2 °C 6,4 km/h (2 Bft)
21.11.2016 16:25 14,4 °C 14,5 °C 49 % 1005,3 hPa 0,0 mm 3,8 km/h (1 Bft) SO 130 ° 0 min 0,000 mm 0,0 UV-I 0 W/m² 3,8 °C 4,8 km/h (1 Bft)
21.11.2016 16:26 14,4 °C 14,5 °C 49 % 1005,4 hPa 0,0 mm 4,5 km/h (1 Bft) SO 130 ° 0 min 0,000 mm 0,0 UV-I 0 W/m² 3,8 °C 4,8 km/h (1 Bft)
21.11.2016 16:27 14,5 °C 14,5 °C 49 % 1005,4 hPa 0,0 mm 3,2 km/h (1 Bft) SO 130 ° 0 min 0,000 mm 0,0 UV-I 0 W/m² 3,9 °C 4,8 km/h (1 Bft)
21.11.2016 16:28 14,5 °C 14,5 °C 49 % 1005,4 hPa 0,0 mm 3,4 km/h (1 Bft) SO 131 ° 0 min 0,000 mm 0,0 UV-I 0 W/m² 3,9 °C 4,8 km/h (1 Bft)
21.11.2016 16:29 14,5 °C 14,6 °C 49 % 1005,4 hPa 0,0 mm 2,7 km/h (1 Bft) SO 131 ° 0 min 0,000 mm 0,0 UV-I 0 W/m² 3,9 °C 3,2 km/h (1 Bft)
21.11.2016 16:30 14,5 °C 14,6 °C 49 % 1005,4 hPa 0,0 mm 3,1 km/h (1 Bft) SO 131 ° 0 min 0,000 mm 0,0 UV-I 0 W/m² 3,9 °C 4,8 km/h (1 Bft)
21.11.2016 16:31 14,6 °C 14,6 °C 49 % 1005,4 hPa 0,0 mm 3,4 km/h (1 Bft) SO 131 ° 0 min 0,000 mm 0,0 UV-I 0 W/m² 4,0 °C 4,8 km/h (1 Bft)
21.11.2016 16:32 14,6 °C 14,6 °C 48 % 1005,4 hPa 0,0 mm 2,1 km/h (1 Bft) SO 138 ° 0 min 0,000 mm 0,0 UV-I 0 W/m² 3,7 °C 3,2 km/h (1 Bft)
21.11.2016 16:33 14,6 °C 14,6 °C 52 % 1005,5 hPa 0,0 mm 3,4 km/h (1 Bft) S 172 ° 0 min 0,000 mm 0,0 UV-I 0 W/m² 4,9 °C 6,4 km/h (2 Bft)
21.11.2016 16:34 14,6 °C 14,6 °C 47 % 1005,4 hPa 0,0 mm 3,6 km/h (1 Bft) S 172 ° 0 min 0,000 mm 0,0 UV-I 0 W/m² 3,4 °C 4,8 km/h (1 Bft)
21.11.2016 16:35 14,6 °C 14,6 °C 52 % 1005,4 hPa 0,0 mm 2,3 km/h (1 Bft) S 171 ° 0 min 0,000 mm 0,0 UV-I 0 W/m² 4,9 °C 3,2 km/h (1 Bft)
21.11.2016 16:36 14,7 °C 14,7 °C 51 % 1005,4 hPa 0,0 mm 5,6 km/h (1 Bft) S 171 ° 0 min 0,000 mm 0,0 UV-I 0 W/m² 4,7 °C 6,4 km/h (2 Bft)
21.11.2016 16:37 14,6 °C 14,7 °C 51 % 1005,4 hPa 0,0 mm 6,3 km/h (2 Bft) S 171 ° 0 min 0,000 mm 0,0 UV-I 0 W/m² 4,6 °C 8,0 km/h (2 Bft)
21.11.2016 16:38 14,6 °C 14,6 °C 51 % 1005,4 hPa 0,0 mm 3,2 km/h (1 Bft) S 171 ° 0 min 0,000 mm 0,0 UV-I 0 W/m² 4,6 °C 6,4 km/h (2 Bft)
21.11.2016 16:39 14,6 °C 14,6 °C 51 % 1005,4 hPa 0,0 mm 2,9 km/h (1 Bft) S 171 ° 0 min 0,000 mm 0,0 UV-I 0 W/m² 4,6 °C 6,4 km/h (2 Bft)
21.11.2016 16:40 14,6 °C 14,6 °C 49 % 1005,4 hPa 0,0 mm 3,2 km/h (1 Bft) S 171 ° 0 min 0,000 mm 0,0 UV-I 0 W/m² 4,0 °C 6,4 km/h (2 Bft)
21.11.2016 16:41 14,6 °C 14,6 °C 50 % 1005,4 hPa 0,0 mm 2,5 km/h (1 Bft) S 171 ° 0 min 0,000 mm 0,0 UV-I 0 W/m² 4,3 °C 3,2 km/h (1 Bft)
21.11.2016 16:42 14,6 °C 14,6 °C 49 % 1005,4 hPa 0,0 mm 2,4 km/h (1 Bft) S 171 ° 0 min 0,000 mm 0,0 UV-I 0 W/m² 4,0 °C 3,2 km/h (1 Bft)
21.11.2016 16:43 14,5 °C 14,6 °C 49 % 1005,4 hPa 0,0 mm 2,9 km/h (1 Bft) S 171 ° 0 min 0,000 mm 0,0 UV-I 0 W/m² 3,9 °C 6,4 km/h (2 Bft)
21.11.2016 16:44 14,6 °C 14,6 °C 51 % 1005,4 hPa 0,0 mm 3,0 km/h (1 Bft) S 171 ° 0 min 0,000 mm 0,0 UV-I 0 W/m² 4,6 °C 3,2 km/h (1 Bft)
21.11.2016 16:45 14,5 °C 14,6 °C 53 % 1005,5 hPa 0,0 mm 4,8 km/h (1 Bft) S 179 ° 0 min 0,000 mm 0,0 UV-I 0 W/m² 5,0 °C 8,0 km/h (2 Bft)
21.11.2016 16:46 14,4 °C 14,5 °C 51 % 1005,4 hPa 0,0 mm 3,3 km/h (1 Bft) S 179 ° 0 min 0,000 mm 0,0 UV-I 0 W/m² 4,4 °C 4,8 km/h (1 Bft)
21.11.2016 16:47 14,4 °C 14,4 °C 51 % 1005,4 hPa 0,0 mm 4,6 km/h (1 Bft) S 178 ° 0 min 0,000 mm 0,0 UV-I 0 W/m² 4,4 °C 6,4 km/h (2 Bft)
21.11.2016 16:48 14,4 °C 14,4 °C 51 % 1005,4 hPa 0,0 mm 3,3 km/h (1 Bft) S 178 ° 0 min 0,000 mm 0,0 UV-I 0 W/m² 4,4 °C 4,8 km/h (1 Bft)
21.11.2016 16:49 14,4 °C 14,4 °C 50 % 1005,5 hPa 0,0 mm 3,1 km/h (1 Bft) S 178 ° 0 min 0,000 mm 0,0 UV-I 0 W/m² 4,1 °C 4,8 km/h (1 Bft)
21.11.2016 16:50 14,4 °C 14,4 °C 50 % 1005,4 hPa 0,0 mm 4,8 km/h (1 Bft) S-SO 153 ° 0 min 0,000 mm 0,0 UV-I 0 W/m² 4,1 °C 6,4 km/h (2 Bft)
21.11.2016 16:51 14,3 °C 14,4 °C 50 % 1005,4 hPa 0,0 mm 4,3 km/h (1 Bft) S-SO 153 ° 0 min 0,000 mm 0,0 UV-I 0 W/m² 4,0 °C 4,8 km/h (1 Bft)
21.11.2016 16:52 14,3 °C 14,3 °C 50 % 1005,4 hPa 0,0 mm 3,8 km/h (1 Bft) S-SO 153 ° 0 min 0,000 mm 0,0 UV-I 0 W/m² 4,0 °C 4,8 km/h (1 Bft)
21.11.2016 16:53 14,3 °C 14,3 °C 50 % 1005,4 hPa 0,0 mm 3,9 km/h (1 Bft) S-SO 153 ° 0 min 0,000 mm 0,0 UV-I 0 W/m² 4,0 °C 4,8 km/h (1 Bft)
21.11.2016 16:54 14,3 °C 14,3 °C 50 % 1005,4 hPa 0,0 mm 3,9 km/h (1 Bft) S-SO 153 ° 0 min 0,000 mm 0,0 UV-I 0 W/m² 4,0 °C 4,8 km/h (1 Bft)
21.11.2016 16:55 14,3 °C 14,3 °C 50 % 1005,5 hPa 0,0 mm 4,2 km/h (1 Bft) S-SO 153 ° 0 min 0,000 mm 0,0 UV-I 0 W/m² 4,0 °C 4,8 km/h (1 Bft)
21.11.2016 16:56 14,3 °C 14,3 °C 50 % 1005,6 hPa 0,0 mm 3,4 km/h (1 Bft) S-SO 153 ° 0 min 0,000 mm 0,0 UV-I 0 W/m² 4,0 °C 4,8 km/h (1 Bft)
21.11.2016 16:57 14,3 °C 14,3 °C 50 % 1005,5 hPa 0,0 mm 2,3 km/h (1 Bft) S-SO 153 ° 0 min 0,000 mm 0,0 UV-I 0 W/m² 4,0 °C 3,2 km/h (1 Bft)
21.11.2016 16:58 14,3 °C 14,3 °C 50 % 1005,5 hPa 0,0 mm 2,4 km/h (1 Bft) S-SO 153 ° 0 min 0,000 mm 0,0 UV-I 0 W/m² 4,0 °C 3,2 km/h (1 Bft)
21.11.2016 16:59 14,3 °C 14,3 °C 51 % 1005,5 hPa 0,0 mm 3,2 km/h (1 Bft) S-SO 153 ° 0 min 0,000 mm 0,0 UV-I 0 W/m² 4,3 °C 4,8 km/h (1 Bft)
21.11.2016 17:00 14,3 °C 14,3 °C 51 % 1005,4 hPa 0,0 mm 3,1 km/h (1 Bft) S-SO 153 ° 0 min 0,000 mm 0,0 UV-I 0 W/m² 4,3 °C 4,8 km/h (1 Bft)
21.11.2016 17:01 14,3 °C 14,3 °C 49 % 1005,5 hPa 0,0 mm 1,5 km/h (1 Bft) S-SO 153 ° 0 min 0,025 mm 0,0 UV-I 0 W/m² 3,7 °C 3,2 km/h (1 Bft)
21.11.2016 17:02 14,3 °C 14,3 °C 50 % 1005,5 hPa 0,0 mm 0,1 km/h (0 Bft) S-SO 153 ° 0 min 0,000 mm 0,0 UV-I 0 W/m² 4,0 °C 1,6 km/h (1 Bft)
21.11.2016 17:03 14,3 °C 14,3 °C 50 % 1005,6 hPa 0,0 mm 2,2 km/h (1 Bft) S-SO 153 ° 0 min 0,000 mm 0,0 UV-I 0 W/m² 4,0 °C 4,8 km/h (1 Bft)
21.11.2016 17:04 14,3 °C 14,3 °C 50 % 1005,6 hPa 0,0 mm 2,7 km/h (1 Bft) S-SO 153 ° 0 min 0,000 mm 0,0 UV-I 0 W/m² 4,0 °C 4,8 km/h (1 Bft)
21.11.2016 17:05 14,3 °C 14,3 °C 52 % 1005,6 hPa 0,0 mm 3,6 km/h (1 Bft) S-SO 153 ° 0 min 0,000 mm 0,0 UV-I 0 W/m² 4,6 °C 4,8 km/h (1 Bft)
21.11.2016 17:06 14,2 °C 14,3 °C 52 % 1005,6 hPa 0,0 mm 3,0 km/h (1 Bft) O-SO 117 ° 0 min 0,000 mm 0,0 UV-I 0 W/m² 4,5 °C 4,8 km/h (1 Bft)
21.11.2016 17:07 14,2 °C 14,2 °C 52 % 1005,6 hPa 0,0 mm 1,7 km/h (1 Bft) O-SO 117 ° 0 min 0,000 mm 0,0 UV-I 0 W/m² 4,5 °C 3,2 km/h (1 Bft)
21.11.2016 17:08 14,2 °C 14,2 °C 52 % 1005,6 hPa 0,0 mm 4,0 km/h (1 Bft) S-SW 194 ° 0 min 0,000 mm 0,0 UV-I 0 W/m² 4,5 °C 6,4 km/h (2 Bft)
21.11.2016 17:09 14,2 °C 14,2 °C 53 % 1005,6 hPa 0,0 mm 4,2 km/h (1 Bft) S 182 ° 0 min 0,000 mm 0,0 UV-I 0 W/m² 4,8 °C 4,8 km/h (1 Bft)
21.11.2016 17:10 14,2 °C 14,2 °C 53 % 1005,6 hPa 0,0 mm 3,6 km/h (1 Bft) S 182 ° 0 min 0,000 mm 0,0 UV-I 0 W/m² 4,8 °C 4,8 km/h (1 Bft)
21.11.2016 17:11 14,2 °C 14,2 °C 52 % 1005,6 hPa 0,0 mm 2,6 km/h (1 Bft) S 182 ° 0 min 0,000 mm 0,0 UV-I 0 W/m² 4,5 °C 4,8 km/h (1 Bft)
21.11.2016 17:12 14,1 °C 14,2 °C 51 % 1005,6 hPa 0,0 mm 2,0 km/h (1 Bft) S 182 ° 0 min 0,000 mm 0,0 UV-I 0 W/m² 4,1 °C 3,2 km/h (1 Bft)
21.11.2016 17:13 14,1 °C 14,2 °C 51 % 1005,6 hPa 0,0 mm 2,3 km/h (1 Bft) S 182 ° 0 min 0,000 mm 0,0 UV-I 0 W/m² 4,1 °C 3,2 km/h (1 Bft)
21.11.2016 17:14 14,2 °C 14,2 °C 51 % 1005,6 hPa 0,0 mm 3,0 km/h (1 Bft) S 182 ° 0 min 0,000 mm 0,0 UV-I 0 W/m² 4,2 °C 3,2 km/h (1 Bft)
21.11.2016 17:15 14,1 °C 14,2 °C 54 % 1005,6 hPa 0,0 mm 4,0 km/h (1 Bft) S 182 ° 0 min 0,000 mm 0,0 UV-I 0 W/m² 4,9 °C 6,4 km/h (2 Bft)
21.11.2016 17:16 14,1 °C 14,2 °C 52 % 1005,6 hPa 0,0 mm 4,7 km/h (1 Bft) S 181 ° 0 min 0,000 mm 0,0 UV-I 0 W/m² 4,4 °C 6,4 km/h (2 Bft)
21.11.2016 17:17 14,1 °C 14,1 °C 52 % 1005,6 hPa 0,0 mm 5,0 km/h (1 Bft) S 175 ° 0 min 0,000 mm 0,0 UV-I 0 W/m² 4,4 °C 6,4 km/h (2 Bft)
21.11.2016 17:18 14,1 °C 14,1 °C 51 % 1005,6 hPa 0,0 mm 6,0 km/h (2 Bft) S-SO 162 ° 0 min 0,000 mm 0,0 UV-I 0 W/m² 4,1 °C 8,0 km/h (2 Bft)
21.11.2016 17:19 14,1 °C 14,1 °C 51 % 1005,6 hPa 0,0 mm 5,2 km/h (1 Bft) S-SO 162 ° 0 min 0,000 mm 0,0 UV-I 0 W/m² 4,1 °C 8,0 km/h (2 Bft)
21.11.2016 17:20 14,1 °C 14,1 °C 50 % 1005,5 hPa 0,0 mm 3,9 km/h (1 Bft) S-SO 162 ° 0 min 0,000 mm 0,0 UV-I 0 W/m² 3,8 °C 6,4 km/h (2 Bft)
21.11.2016 17:21 14,1 °C 14,1 °C 49 % 1005,6 hPa 0,0 mm 4,5 km/h (1 Bft) S-SO 162 ° 0 min 0,000 mm 0,0 UV-I 0 W/m² 3,6 °C 6,4 km/h (2 Bft)
21.11.2016 17:22 14,1 °C 14,1 °C 49 % 1005,6 hPa 0,0 mm 4,1 km/h (1 Bft) S-SO 162 ° 0 min 0,000 mm 0,0 UV-I 0 W/m² 3,6 °C 6,4 km/h (2 Bft)
21.11.2016 17:23 14,1 °C 14,1 °C 51 % 1005,5 hPa 0,0 mm 2,1 km/h (1 Bft) S 181 ° 0 min 0,000 mm 0,0 UV-I 0 W/m² 4,1 °C 4,8 km/h (1 Bft)
21.11.2016 17:24 14,1 °C 14,1 °C 52 % 1005,5 hPa 0,0 mm 7,0 km/h (2 Bft) SO 130 ° 0 min 0,000 mm 0,0 UV-I 0 W/m² 4,4 °C 11,3 km/h (2 Bft)
21.11.2016 17:25 14,1 °C 14,1 °C 56 % 1005,6 hPa 0,0 mm 5,2 km/h (1 Bft) SO 143 ° 0 min 0,000 mm 0,0 UV-I 0 W/m² 5,5 °C 8,0 km/h (2 Bft)
21.11.2016 17:26 14,0 °C 14,1 °C 52 % 1005,5 hPa 0,0 mm 4,5 km/h (1 Bft) S-SW 211 ° 0 min 0,000 mm 0,0 UV-I 0 W/m² 4,3 °C 6,4 km/h (2 Bft)
21.11.2016 17:27 14,0 °C 14,1 °C 54 % 1005,5 hPa 0,0 mm 3,9 km/h (1 Bft) S 182 ° 0 min 0,000 mm 0,0 UV-I 0 W/m² 4,8 °C 4,8 km/h (1 Bft)
21.11.2016 17:28 14,0 °C 14,0 °C 52 % 1005,5 hPa 0,0 mm 3,9 km/h (1 Bft) S 171 ° 0 min 0,000 mm 0,0 UV-I 0 W/m² 4,3 °C 6,4 km/h (2 Bft)
21.11.2016 17:29 13,9 °C 14,0 °C 52 % 1005,5 hPa 0,0 mm 2,2 km/h (1 Bft) S 171 ° 0 min 0,000 mm 0,0 UV-I 0 W/m² 4,2 °C 3,2 km/h (1 Bft)
21.11.2016 17:30 13,9 °C 14,0 °C 55 % 1005,4 hPa 0,0 mm 2,1 km/h (1 Bft) S 171 ° 0 min 0,000 mm 0,0 UV-I 0 W/m² 5,0 °C 3,2 km/h (1 Bft)
21.11.2016 17:31 13,9 °C 13,9 °C 52 % 1005,4 hPa 0,0 mm 4,2 km/h (1 Bft) S-SO 153 ° 0 min 0,000 mm 0,0 UV-I 0 W/m² 4,2 °C 6,4 km/h (2 Bft)
21.11.2016 17:32 13,9 °C 13,9 °C 52 % 1005,5 hPa 0,0 mm 2,4 km/h (1 Bft) S-SO 153 ° 0 min 0,000 mm 0,0 UV-I 0 W/m² 4,2 °C 3,2 km/h (1 Bft)
21.11.2016 17:33 13,9 °C 13,9 °C 53 % 1005,5 hPa 0,0 mm 3,6 km/h (1 Bft) S-SO 153 ° 0 min 0,000 mm 0,0 UV-I 0 W/m² 4,5 °C 4,8 km/h (1 Bft)
21.11.2016 17:34 13,8 °C 13,9 °C 52 % 1005,5 hPa 0,0 mm 2,5 km/h (1 Bft) S-SO 153 ° 0 min 0,000 mm 0,0 UV-I 0 W/m² 4,1 °C 3,2 km/h (1 Bft)
21.11.2016 17:35 13,8 °C 13,8 °C 54 % 1005,5 hPa 0,0 mm 2,7 km/h (1 Bft) S-SO 153 ° 0 min 0,000 mm 0,0 UV-I 0 W/m² 4,7 °C 4,8 km/h (1 Bft)
21.11.2016 17:36 13,8 °C 13,8 °C 53 % 1005,5 hPa 0,0 mm 2,2 km/h (1 Bft) S-SO 153 ° 0 min 0,000 mm 0,0 UV-I 0 W/m² 4,4 °C 3,2 km/h (1 Bft)
21.11.2016 17:37 13,8 °C 13,8 °C 52 % 1005,5 hPa 0,0 mm 1,4 km/h (1 Bft) S-SO 153 ° 0 min 0,000 mm 0,0 UV-I 0 W/m² 4,1 °C 3,2 km/h (1 Bft)
21.11.2016 17:38 13,8 °C 13,8 °C 51 % 1005,6 hPa 0,0 mm 1,9 km/h (1 Bft) S-SO 153 ° 0 min 0,000 mm 0,0 UV-I 0 W/m² 3,8 °C 3,2 km/h (1 Bft)
21.11.2016 17:39 13,8 °C 13,8 °C 52 % 1005,6 hPa 0,0 mm 1,5 km/h (1 Bft) S-SO 153 ° 0 min 0,000 mm 0,0 UV-I 0 W/m² 4,1 °C 3,2 km/h (1 Bft)
21.11.2016 17:40 13,8 °C 13,8 °C 52 % 1005,6 hPa 0,0 mm 2,1 km/h (1 Bft) S-SO 153 ° 0 min 0,000 mm 0,0 UV-I 0 W/m² 4,1 °C 3,2 km/h (1 Bft)
21.11.2016 17:41 13,8 °C 13,8 °C 51 % 1005,6 hPa 0,0 mm 1,8 km/h (1 Bft) S-SO 153 ° 0 min 0,000 mm 0,0 UV-I 0 W/m² 3,8 °C 3,2 km/h (1 Bft)
21.11.2016 17:42 13,8 °C 13,8 °C 52 % 1005,5 hPa 0,0 mm 1,8 km/h (1 Bft) S-SO 153 ° 0 min 0,000 mm 0,0 UV-I 0 W/m² 4,1 °C 3,2 km/h (1 Bft)
21.11.2016 17:43 13,8 °C 13,8 °C 52 % 1005,6 hPa 0,0 mm 1,5 km/h (1 Bft) S-SO 153 ° 0 min 0,000 mm 0,0 UV-I 0 W/m² 4,1 °C 3,2 km/h (1 Bft)
21.11.2016 17:44 13,8 °C 13,8 °C 51 % 1005,6 hPa 0,0 mm 1,3 km/h (1 Bft) S-SO 153 ° 0 min 0,000 mm 0,0 UV-I 0 W/m² 3,8 °C 1,6 km/h (1 Bft)
21.11.2016 17:45 13,8 °C 13,8 °C 52 % 1005,6 hPa 0,0 mm 1,4 km/h (1 Bft) S-SO 153 ° 0 min 0,000 mm 0,0 UV-I 0 W/m² 4,1 °C 3,2 km/h (1 Bft)
21.11.2016 17:46 13,8 °C 13,8 °C 51 % 1005,5 hPa 0,0 mm 2,0 km/h (1 Bft) S-SO 153 ° 0 min 0,000 mm 0,0 UV-I 0 W/m² 3,8 °C 3,2 km/h (1 Bft)
21.11.2016 17:47 13,8 °C 13,8 °C 54 % 1005,5 hPa 0,0 mm 2,8 km/h (1 Bft) S-SO 154 ° 0 min 0,000 mm 0,0 UV-I 0 W/m² 4,7 °C 4,8 km/h (1 Bft)
21.11.2016 17:48 13,8 °C 13,8 °C 54 % 1005,5 hPa 0,0 mm 1,9 km/h (1 Bft) S-SO 154 ° 0 min 0,000 mm 0,0 UV-I 0 W/m² 4,7 °C 3,2 km/h (1 Bft)
21.11.2016 17:49 13,8 °C 13,8 °C 53 % 1005,5 hPa 0,0 mm 2,2 km/h (1 Bft) S-SO 154 ° 0 min 0,000 mm 0,0 UV-I 0 W/m² 4,4 °C 3,2 km/h (1 Bft)
21.11.2016 17:50 13,8 °C 13,8 °C 54 % 1005,5 hPa 0,0 mm 4,0 km/h (1 Bft) S 184 ° 0 min 0,000 mm 0,0 UV-I 0 W/m² 4,7 °C 6,4 km/h (2 Bft)
21.11.2016 17:51 13,8 °C 13,8 °C 55 % 1005,6 hPa 0,0 mm 2,6 km/h (1 Bft) S 185 ° 0 min 0,000 mm 0,0 UV-I 0 W/m² 4,9 °C 4,8 km/h (1 Bft)
21.11.2016 17:52 13,8 °C 13,8 °C 55 % 1005,6 hPa 0,0 mm 2,2 km/h (1 Bft) S 184 ° 0 min 0,000 mm 0,0 UV-I 0 W/m² 4,9 °C 3,2 km/h (1 Bft)
21.11.2016 17:53 13,8 °C 13,8 °C 57 % 1005,7 hPa 0,0 mm 1,5 km/h (1 Bft) S 184 ° 0 min 0,000 mm 0,0 UV-I 0 W/m² 5,4 °C 3,2 km/h (1 Bft)
21.11.2016 17:54 13,8 °C 13,8 °C 56 % 1005,6 hPa 0,0 mm 0,2 km/h (0 Bft) S 184 ° 0 min 0,000 mm 0,0 UV-I 0 W/m² 5,2 °C 1,6 km/h (1 Bft)
21.11.2016 17:55 13,8 °C 13,8 °C 54 % 1005,6 hPa 0,0 mm 1,3 km/h (1 Bft) S 184 ° 0 min 0,000 mm 0,0 UV-I 0 W/m² 4,7 °C 3,2 km/h (1 Bft)
21.11.2016 17:56 13,7 °C 13,8 °C 54 % 1005,5 hPa 0,0 mm 2,2 km/h (1 Bft) S 184 ° 0 min 0,000 mm 0,0 UV-I 0 W/m² 4,6 °C 3,2 km/h (1 Bft)
21.11.2016 17:57 13,7 °C 13,7 °C 54 % 1005,5 hPa 0,0 mm 3,4 km/h (1 Bft) S 184 ° 0 min 0,000 mm 0,0 UV-I 0 W/m² 4,6 °C 4,8 km/h (1 Bft)
21.11.2016 17:58 13,7 °C 13,7 °C 52 % 1005,6 hPa 0,0 mm 4,0 km/h (1 Bft) S 180 ° 0 min 0,000 mm 0,0 UV-I 0 W/m² 4,0 °C 6,4 km/h (2 Bft)
21.11.2016 17:59 13,6 °C 13,7 °C 54 % 1005,5 hPa 0,0 mm 3,8 km/h (1 Bft) S 180 ° 0 min 0,000 mm 0,0 UV-I 0 W/m² 4,5 °C 6,4 km/h (2 Bft)
21.11.2016 18:00 13,6 °C 13,6 °C 55 % 1005,6 hPa 0,0 mm 3,1 km/h (1 Bft) S 180 ° 0 min 0,000 mm 0,0 UV-I 0 W/m² 4,7 °C 4,8 km/h (1 Bft)
21.11.2016 18:01 13,6 °C 13,6 °C 53 % 1005,6 hPa 0,0 mm 2,7 km/h (1 Bft) S 180 ° 0 min 0,051 mm 0,0 UV-I 0 W/m² 4,2 °C 3,2 km/h (1 Bft)
21.11.2016 18:02 13,6 °C 13,6 °C 54 % 1005,6 hPa 0,0 mm 2,3 km/h (1 Bft) S 180 ° 0 min 0,000 mm 0,0 UV-I 0 W/m² 4,5 °C 3,2 km/h (1 Bft)
21.11.2016 18:03 13,6 °C 13,6 °C 53 % 1005,6 hPa 0,0 mm 1,7 km/h (1 Bft) S 180 ° 0 min 0,000 mm 0,0 UV-I 0 W/m² 4,2 °C 3,2 km/h (1 Bft)
21.11.2016 18:04 13,5 °C 13,6 °C 53 % 1005,6 hPa 0,0 mm 2,5 km/h (1 Bft) S 180 ° 0 min 0,000 mm 0,0 UV-I 0 W/m² 4,1 °C 4,8 km/h (1 Bft)
21.11.2016 18:05 13,5 °C 13,6 °C 53 % 1005,6 hPa 0,0 mm 2,3 km/h (1 Bft) S 180 ° 0 min 0,000 mm 0,0 UV-I 0 W/m² 4,1 °C 3,2 km/h (1 Bft)
21.11.2016 18:06 13,6 °C 13,6 °C 54 % 1005,6 hPa 0,0 mm 3,3 km/h (1 Bft) S 180 ° 0 min 0,000 mm 0,0 UV-I 0 W/m² 4,5 °C 4,8 km/h (1 Bft)
21.11.2016 18:07 13,6 °C 13,6 °C 55 % 1005,6 hPa 0,0 mm 2,5 km/h (1 Bft) S 180 ° 0 min 0,000 mm 0,0 UV-I 0 W/m² 4,7 °C 4,8 km/h (1 Bft)
21.11.2016 18:08 13,6 °C 13,6 °C 55 % 1005,6 hPa 0,0 mm 3,0 km/h (1 Bft) S 180 ° 0 min 0,000 mm 0,0 UV-I 0 W/m² 4,7 °C 4,8 km/h (1 Bft)
21.11.2016 18:09 13,5 °C 13,6 °C 54 % 1005,6 hPa 0,0 mm 2,9 km/h (1 Bft) S 180 ° 0 min 0,000 mm 0,0 UV-I 0 W/m² 4,4 °C 4,8 km/h (1 Bft)
21.11.2016 18:10 13,5 °C 13,6 °C 54 % 1005,7 hPa 0,0 mm 1,5 km/h (1 Bft) S 180 ° 0 min 0,000 mm 0,0 UV-I 0 W/m² 4,4 °C 3,2 km/h (1 Bft)
21.11.2016 18:11 13,5 °C 13,5 °C 55 % 1005,7 hPa 0,0 mm 0,5 km/h (0 Bft) S 180 ° 0 min 0,000 mm 0,0 UV-I 0 W/m² 4,6 °C 1,6 km/h (1 Bft)
21.11.2016 18:12 13,4 °C 13,5 °C 58 % 1005,7 hPa 0,0 mm 1,7 km/h (1 Bft) S 179 ° 0 min 0,000 mm 0,0 UV-I 0 W/m² 5,3 °C 4,8 km/h (1 Bft)
21.11.2016 18:13 13,4 °C 13,5 °C 58 % 1005,7 hPa 0,0 mm 2,8 km/h (1 Bft) S 180 ° 0 min 0,000 mm 0,0 UV-I 0 W/m² 5,3 °C 3,2 km/h (1 Bft)
21.11.2016 18:14 13,4 °C 13,4 °C 58 % 1005,7 hPa 0,0 mm 0,9 km/h (0 Bft) S 180 ° 0 min 0,000 mm 0,0 UV-I 0 W/m² 5,3 °C 1,6 km/h (1 Bft)
21.11.2016 18:15 13,3 °C 13,4 °C 58 % 1005,8 hPa 0,0 mm 0,8 km/h (0 Bft) S 180 ° 0 min 0,000 mm 0,0 UV-I 0 W/m² 5,2 °C 1,6 km/h (1 Bft)
21.11.2016 18:16 13,3 °C 13,4 °C 58 % 1005,8 hPa 0,0 mm 0,3 km/h (0 Bft) S 180 ° 0 min 0,000 mm 0,0 UV-I 0 W/m² 5,2 °C 1,6 km/h (1 Bft)
21.11.2016 18:17 13,3 °C 13,3 °C 58 % 1005,7 hPa 0,0 mm 0,0 km/h (0 Bft) S 180 ° 0 min 0,000 mm 0,0 UV-I 0 W/m² 5,2 °C 0,0 km/h (0 Bft)
21.11.2016 18:18 13,2 °C 13,3 °C 58 % 1005,7 hPa 0,0 mm 1,0 km/h (0 Bft) S 180 ° 0 min 0,000 mm 0,0 UV-I 0 W/m² 5,1 °C 1,6 km/h (1 Bft)
21.11.2016 18:19 13,2 °C 13,2 °C 58 % 1005,7 hPa 0,0 mm 0,8 km/h (0 Bft) S 180 ° 0 min 0,000 mm 0,0 UV-I 0 W/m² 5,1 °C 1,6 km/h (1 Bft)
21.11.2016 18:20 13,1 °C 13,2 °C 58 % 1005,7 hPa 0,0 mm 1,5 km/h (1 Bft) S 180 ° 0 min 0,000 mm 0,0 UV-I 0 W/m² 5,0 °C 3,2 km/h (1 Bft)
21.11.2016 18:21 13,0 °C 13,1 °C 58 % 1005,7 hPa 0,0 mm 1,5 km/h (1 Bft) S 180 ° 0 min 0,000 mm 0,0 UV-I 0 W/m² 4,9 °C 1,6 km/h (1 Bft)
21.11.2016 18:22 12,9 °C 13,0 °C 58 % 1005,7 hPa 0,0 mm 2,1 km/h (1 Bft) S 180 ° 0 min 0,000 mm 0,0 UV-I 0 W/m² 4,8 °C 3,2 km/h (1 Bft)
21.11.2016 18:23 12,9 °C 12,9 °C 58 % 1005,7 hPa 0,0 mm 2,0 km/h (1 Bft) S 180 ° 0 min 0,000 mm 0,0 UV-I 0 W/m² 4,8 °C 3,2 km/h (1 Bft)
21.11.2016 18:24 12,9 °C 12,9 °C 58 % 1005,7 hPa 0,0 mm 2,3 km/h (1 Bft) S 180 ° 0 min 0,000 mm 0,0 UV-I 0 W/m² 4,8 °C 3,2 km/h (1 Bft)
21.11.2016 18:25 12,8 °C 12,9 °C 58 % 1005,6 hPa 0,0 mm 2,3 km/h (1 Bft) S 180 ° 0 min 0,000 mm 0,0 UV-I 0 W/m² 4,7 °C 3,2 km/h (1 Bft)
21.11.2016 18:26 12,8 °C 12,8 °C 59 % 1005,6 hPa 0,0 mm 2,3 km/h (1 Bft) S 180 ° 0 min 0,000 mm 0,0 UV-I 0 W/m² 5,0 °C 3,2 km/h (1 Bft)
21.11.2016 18:27 12,8 °C 12,8 °C 59 % 1005,7 hPa 0,0 mm 1,1 km/h (1 Bft) S 180 ° 0 min 0,000 mm 0,0 UV-I 0 W/m² 5,0 °C 3,2 km/h (1 Bft)
21.11.2016 18:28 12,8 °C 12,8 °C 59 % 1005,7 hPa 0,0 mm 0,9 km/h (0 Bft) S 180 ° 0 min 0,000 mm 0,0 UV-I 0 W/m² 5,0 °C 1,6 km/h (1 Bft)
21.11.2016 18:29 12,7 °C 12,8 °C 62 % 1005,7 hPa 0,0 mm 2,6 km/h (1 Bft) S 180 ° 0 min 0,000 mm 0,0 UV-I 0 W/m² 5,6 °C 3,2 km/h (1 Bft)
21.11.2016 18:30 12,7 °C 12,7 °C 59 % 1005,7 hPa 0,0 mm 1,9 km/h (1 Bft) S 180 ° 0 min 0,000 mm 0,0 UV-I 0 W/m² 4,9 °C 3,2 km/h (1 Bft)
21.11.2016 18:31 12,7 °C 12,7 °C 59 % 1005,7 hPa 0,0 mm 2,7 km/h (1 Bft) S-SO 153 ° 0 min 0,000 mm 0,0 UV-I 0 W/m² 4,9 °C 4,8 km/h (1 Bft)
21.11.2016 18:32 12,6 °C 12,7 °C 58 % 1005,7 hPa 0,0 mm 2,0 km/h (1 Bft) S-SO 153 ° 0 min 0,000 mm 0,0 UV-I 0 W/m² 4,6 °C 3,2 km/h (1 Bft)
21.11.2016 18:33 12,6 °C 12,6 °C 58 % 1005,7 hPa 0,0 mm 2,9 km/h (1 Bft) S-SO 153 ° 0 min 0,000 mm 0,0 UV-I 0 W/m² 4,6 °C 4,8 km/h (1 Bft)
21.11.2016 18:34 12,6 °C 12,6 °C 58 % 1005,7 hPa 0,0 mm 1,6 km/h (1 Bft) S-SO 153 ° 0 min 0,000 mm 0,0 UV-I 0 W/m² 4,6 °C 3,2 km/h (1 Bft)
21.11.2016 18:35 12,6 °C 12,6 °C 61 % 1005,7 hPa 0,0 mm 1,1 km/h (1 Bft) S-SO 153 ° 0 min 0,000 mm 0,0 UV-I 0 W/m² 5,3 °C 3,2 km/h (1 Bft)
21.11.2016 18:36 12,6 °C 12,6 °C 62 % 1005,7 hPa 0,0 mm 0,0 km/h (0 Bft) S-SO 153 ° 0 min 0,000 mm 0,0 UV-I 0 W/m² 5,5 °C 0,0 km/h (0 Bft)
21.11.2016 18:37 12,6 °C 12,6 °C 62 % 1005,7 hPa 0,0 mm 0,9 km/h (0 Bft) S-SO 153 ° 0 min 0,000 mm 0,0 UV-I 0 W/m² 5,5 °C 3,2 km/h (1 Bft)
21.11.2016 18:38 12,5 °C 12,6 °C 62 % 1005,8 hPa 0,0 mm 1,4 km/h (1 Bft) S-SO 153 ° 0 min 0,000 mm 0,0 UV-I 0 W/m² 5,4 °C 3,2 km/h (1 Bft)
21.11.2016 18:39 12,5 °C 12,5 °C 62 % 1005,9 hPa 0,0 mm 1,0 km/h (0 Bft) S-SO 153 ° 0 min 0,000 mm 0,0 UV-I 0 W/m² 5,4 °C 1,6 km/h (1 Bft)
21.11.2016 18:40 12,5 °C 12,5 °C 62 % 1005,9 hPa 0,0 mm 0,6 km/h (0 Bft) S-SO 153 ° 0 min 0,000 mm 0,0 UV-I 0 W/m² 5,4 °C 1,6 km/h (1 Bft)
21.11.2016 18:41 12,4 °C 12,5 °C 63 % 1005,9 hPa 0,0 mm 0,0 km/h (0 Bft) S-SO 153 ° 0 min 0,000 mm 0,0 UV-I 0 W/m² 5,6 °C 0,0 km/h (0 Bft)
21.11.2016 18:42 12,4 °C 12,4 °C 62 % 1005,8 hPa 0,0 mm 0,9 km/h (0 Bft) S-SO 153 ° 0 min 0,000 mm 0,0 UV-I 0 W/m² 5,3 °C 1,6 km/h (1 Bft)
21.11.2016 18:43 12,4 °C 12,4 °C 64 % 1005,7 hPa 0,0 mm 0,9 km/h (0 Bft) S-SO 153 ° 0 min 0,000 mm 0,0 UV-I 0 W/m² 5,8 °C 1,6 km/h (1 Bft)
21.11.2016 18:44 12,3 °C 12,4 °C 64 % 1005,8 hPa 0,0 mm 1,3 km/h (1 Bft) S-SO 153 ° 0 min 0,000 mm 0,0 UV-I 0 W/m² 5,7 °C 1,6 km/h (1 Bft)
21.11.2016 18:45 12,3 °C 12,3 °C 64 % 1005,8 hPa 0,0 mm 0,9 km/h (0 Bft) S-SO 153 ° 0 min 0,000 mm 0,0 UV-I 0 W/m² 5,7 °C 1,6 km/h (1 Bft)
21.11.2016 18:46 12,3 °C 12,3 °C 64 % 1005,8 hPa 0,0 mm 1,3 km/h (1 Bft) S-SO 153 ° 0 min 0,000 mm 0,0 UV-I 0 W/m² 5,7 °C 1,6 km/h (1 Bft)
21.11.2016 18:47 12,2 °C 12,3 °C 63 % 1005,8 hPa 0,0 mm 0,9 km/h (0 Bft) S-SO 153 ° 0 min 0,000 mm 0,0 UV-I 0 W/m² 5,4 °C 1,6 km/h (1 Bft)
21.11.2016 18:48 12,2 °C 12,2 °C 63 % 1005,9 hPa 0,0 mm 0,3 km/h (0 Bft) S-SO 153 ° 0 min 0,000 mm 0,0 UV-I 0 W/m² 5,4 °C 1,6 km/h (1 Bft)
21.11.2016 18:49 12,2 °C 12,2 °C 63 % 1005,9 hPa 0,0 mm 0,3 km/h (0 Bft) S-SO 153 ° 0 min 0,000 mm 0,0 UV-I 0 W/m² 5,4 °C 1,6 km/h (1 Bft)
21.11.2016 18:50 12,2 °C 12,2 °C 63 % 1005,8 hPa 0,0 mm 0,4 km/h (0 Bft) S-SO 153 ° 0 min 0,000 mm 0,0 UV-I 0 W/m² 5,4 °C 1,6 km/h (1 Bft)
21.11.2016 18:51 12,2 °C 12,2 °C 63 % 1005,9 hPa 0,0 mm 0,0 km/h (0 Bft) S-SO 153 ° 0 min 0,000 mm 0,0 UV-I 0 W/m² 5,4 °C 0,0 km/h (0 Bft)
21.11.2016 18:52 12,1 °C 12,2 °C 63 % 1005,8 hPa 0,0 mm 2,7 km/h (1 Bft) S-SO 153 ° 0 min 0,000 mm 0,0 UV-I 0 W/m² 5,3 °C 3,2 km/h (1 Bft)
21.11.2016 18:53 12,1 °C 12,1 °C 65 % 1005,9 hPa 0,0 mm 1,3 km/h (1 Bft) S-SO 153 ° 0 min 0,000 mm 0,0 UV-I 0 W/m² 5,7 °C 3,2 km/h (1 Bft)
21.11.2016 18:54 12,1 °C 12,1 °C 65 % 1005,9 hPa 0,0 mm 0,2 km/h (0 Bft) S-SO 153 ° 0 min 0,000 mm 0,0 UV-I 0 W/m² 5,7 °C 1,6 km/h (1 Bft)
21.11.2016 18:55 12,0 °C 12,1 °C 65 % 1005,9 hPa 0,0 mm 1,3 km/h (1 Bft) S-SO 153 ° 0 min 0,000 mm 0,0 UV-I 0 W/m² 5,6 °C 3,2 km/h (1 Bft)
21.11.2016 18:56 11,9 °C 12,0 °C 64 % 1006,0 hPa 0,0 mm 1,0 km/h (0 Bft) S-SO 153 ° 0 min 0,000 mm 0,0 UV-I 0 W/m² 5,3 °C 1,6 km/h (1 Bft)
21.11.2016 18:57 11,9 °C 11,9 °C 64 % 1006,0 hPa 0,0 mm 0,0 km/h (0 Bft) S-SO 153 ° 0 min 0,000 mm 0,0 UV-I 0 W/m² 5,3 °C 0,0 km/h (0 Bft)
21.11.2016 18:58 11,9 °C 11,9 °C 64 % 1006,0 hPa 0,0 mm 0,0 km/h (0 Bft) S-SO 153 ° 0 min 0,000 mm 0,0 UV-I 0 W/m² 5,3 °C 0,0 km/h (0 Bft)
21.11.2016 18:59 11,9 °C 11,9 °C 64 % 1006,0 hPa 0,0 mm 0,0 km/h (0 Bft) S-SO 153 ° 0 min 0,000 mm 0,0 UV-I 0 W/m² 5,3 °C 0,0 km/h (0 Bft)
21.11.2016 19:00 11,8 °C 11,9 °C 64 % 1006,0 hPa 0,0 mm 0,0 km/h (0 Bft) S-SO 153 ° 0 min 0,000 mm 0,0 UV-I 0 W/m² 5,2 °C 0,0 km/h (0 Bft)
21.11.2016 19:01 11,8 °C 11,8 °C 65 % 1006,0 hPa 0,0 mm 0,0 km/h (0 Bft) S-SO 153 ° 0 min 0,026 mm 0,0 UV-I 0 W/m² 5,4 °C 0,0 km/h (0 Bft)
21.11.2016 19:02 11,8 °C 11,8 °C 65 % 1006,0 hPa 0,0 mm 0,0 km/h (0 Bft) S-SO 153 ° 0 min 0,000 mm 0,0 UV-I 0 W/m² 5,4 °C 0,0 km/h (0 Bft)
21.11.2016 19:03 11,7 °C 11,8 °C 65 % 1006,0 hPa 0,0 mm 0,0 km/h (0 Bft) S-SO 153 ° 0 min 0,000 mm 0,0 UV-I 0 W/m² 5,3 °C 0,0 km/h (0 Bft)
21.11.2016 19:04 11,7 °C 11,8 °C 66 % 1006,0 hPa 0,0 mm 0,0 km/h (0 Bft) S-SO 153 ° 0 min 0,000 mm 0,0 UV-I 0 W/m² 5,6 °C 0,0 km/h (0 Bft)
21.11.2016 19:05 11,7 °C 11,7 °C 66 % 1006,0 hPa 0,0 mm 0,0 km/h (0 Bft) S-SO 153 ° 0 min 0,000 mm 0,0 UV-I 0 W/m² 5,6 °C 0,0 km/h (0 Bft)
21.11.2016 19:06 11,7 °C 11,7 °C 66 % 1006,0 hPa 0,0 mm 0,0 km/h (0 Bft) S-SO 153 ° 0 min 0,000 mm 0,0 UV-I 0 W/m² 5,6 °C 0,0 km/h (0 Bft)
21.11.2016 19:07 11,7 °C 11,7 °C 66 % 1006,0 hPa 0,0 mm 0,0 km/h (0 Bft) S-SO 153 ° 0 min 0,000 mm 0,0 UV-I 0 W/m² 5,6 °C 0,0 km/h (0 Bft)
21.11.2016 19:08 11,6 °C 11,7 °C 66 % 1006,1 hPa 0,0 mm 0,0 km/h (0 Bft) S-SO 153 ° 0 min 0,000 mm 0,0 UV-I 0 W/m² 5,5 °C 0,0 km/h (0 Bft)
21.11.2016 19:09 11,6 °C 11,6 °C 67 % 1006,1 hPa 0,0 mm 0,0 km/h (0 Bft) S-SO 153 ° 0 min 0,000 mm 0,0 UV-I 0 W/m² 5,7 °C 0,0 km/h (0 Bft)
21.11.2016 19:10 11,5 °C 11,6 °C 67 % 1006,0 hPa 0,0 mm 0,0 km/h (0 Bft) S-SO 153 ° 0 min 0,000 mm 0,0 UV-I 0 W/m² 5,6 °C 0,0 km/h (0 Bft)
21.11.2016 19:11 11,5 °C 11,5 °C 67 % 1006,0 hPa 0,0 mm 1,3 km/h (1 Bft) S-SO 153 ° 0 min 0,000 mm 0,0 UV-I 0 W/m² 5,6 °C 3,2 km/h (1 Bft)
21.11.2016 19:12 11,4 °C 11,5 °C 67 % 1006,0 hPa 0,0 mm 1,7 km/h (1 Bft) S-SO 153 ° 0 min 0,000 mm 0,0 UV-I 0 W/m² 5,5 °C 3,2 km/h (1 Bft)
21.11.2016 19:13 11,4 °C 11,4 °C 67 % 1005,9 hPa 0,0 mm 0,3 km/h (0 Bft) S-SO 153 ° 0 min 0,000 mm 0,0 UV-I 0 W/m² 5,5 °C 1,6 km/h (1 Bft)
21.11.2016 19:14 11,3 °C 11,4 °C 68 % 1006,0 hPa 0,0 mm 0,2 km/h (0 Bft) S-SO 153 ° 0 min 0,000 mm 0,0 UV-I 0 W/m² 5,6 °C 1,6 km/h (1 Bft)
21.11.2016 19:15 11,3 °C 11,3 °C 68 % 1006,0 hPa 0,0 mm 0,0 km/h (0 Bft) S-SO 153 ° 0 min 0,000 mm 0,0 UV-I 0 W/m² 5,6 °C 0,0 km/h (0 Bft)
21.11.2016 19:16 11,3 °C 11,3 °C 68 % 1006,0 hPa 0,0 mm 0,0 km/h (0 Bft) S-SO 153 ° 0 min 0,000 mm 0,0 UV-I 0 W/m² 5,6 °C 0,0 km/h (0 Bft)
21.11.2016 19:17 11,3 °C 11,3 °C 68 % 1006,0 hPa 0,0 mm 0,0 km/h (0 Bft) S-SO 153 ° 0 min 0,000 mm 0,0 UV-I 0 W/m² 5,6 °C 0,0 km/h (0 Bft)
21.11.2016 19:18 11,3 °C 11,3 °C 67 % 1006,0 hPa 0,0 mm 0,0 km/h (0 Bft) S-SO 153 ° 0 min 0,000 mm 0,0 UV-I 0 W/m² 5,4 °C 0,0 km/h (0 Bft)
21.11.2016 19:19 11,2 °C 11,3 °C 68 % 1006,0 hPa 0,0 mm 0,0 km/h (0 Bft) S-SO 153 ° 0 min 0,000 mm 0,0 UV-I 0 W/m² 5,5 °C 0,0 km/h (0 Bft)
21.11.2016 19:20 11,2 °C 11,3 °C 68 % 1006,0 hPa 0,0 mm 0,0 km/h (0 Bft) S-SO 153 ° 0 min 0,000 mm 0,0 UV-I 0 W/m² 5,5 °C 0,0 km/h (0 Bft)
21.11.2016 19:21 11,3 °C 11,3 °C 68 % 1006,0 hPa 0,0 mm 0,0 km/h (0 Bft) S-SO 153 ° 0 min 0,000 mm 0,0 UV-I 0 W/m² 5,6 °C 0,0 km/h (0 Bft)
21.11.2016 19:22 11,2 °C 11,3 °C 69 % 1006,0 hPa 0,0 mm 0,0 km/h (0 Bft) S-SO 153 ° 0 min 0,000 mm 0,0 UV-I 0 W/m² 5,7 °C 0,0 km/h (0 Bft)
21.11.2016 19:23 11,2 °C 11,2 °C 68 % 1005,9 hPa 0,0 mm 0,0 km/h (0 Bft) S-SO 153 ° 0 min 0,000 mm 0,0 UV-I 0 W/m² 5,5 °C 0,0 km/h (0 Bft)
21.11.2016 19:24 11,2 °C 11,2 °C 68 % 1006,0 hPa 0,0 mm 0,0 km/h (0 Bft) S-SO 153 ° 0 min 0,000 mm 0,0 UV-I 0 W/m² 5,5 °C 0,0 km/h (0 Bft)
21.11.2016 19:25 11,2 °C 11,2 °C 69 % 1006,1 hPa 0,0 mm 0,0 km/h (0 Bft) S-SO 153 ° 0 min 0,000 mm 0,0 UV-I 0 W/m² 5,7 °C 0,0 km/h (0 Bft)
21.11.2016 19:26 11,2 °C 11,2 °C 69 % 1006,1 hPa 0,0 mm 0,0 km/h (0 Bft) S-SO 153 ° 0 min 0,000 mm 0,0 UV-I 0 W/m² 5,7 °C 0,0 km/h (0 Bft)
21.11.2016 19:27 11,2 °C 11,2 °C 68 % 1006,1 hPa 0,0 mm 0,0 km/h (0 Bft) S-SO 153 ° 0 min 0,000 mm 0,0 UV-I 0 W/m² 5,5 °C 0,0 km/h (0 Bft)
21.11.2016 19:28 11,2 °C 11,2 °C 67 % 1006,1 hPa 0,0 mm 0,0 km/h (0 Bft) S-SO 153 ° 0 min 0,000 mm 0,0 UV-I 0 W/m² 5,3 °C 0,0 km/h (0 Bft)
21.11.2016 19:29 11,2 °C 11,2 °C 66 % 1006,2 hPa 0,0 mm 0,0 km/h (0 Bft) S-SO 153 ° 0 min 0,000 mm 0,0 UV-I 0 W/m² 5,1 °C 0,0 km/h (0 Bft)
21.11.2016 19:30 11,2 °C 11,2 °C 66 % 1006,2 hPa 0,0 mm 0,0 km/h (0 Bft) S-SO 153 ° 0 min 0,000 mm 0,0 UV-I 0 W/m² 5,1 °C 0,0 km/h (0 Bft)
21.11.2016 19:31 11,1 °C 11,2 °C 67 % 1006,2 hPa 0,0 mm 0,0 km/h (0 Bft) S-SO 153 ° 0 min 0,000 mm 0,0 UV-I 0 W/m² 5,2 °C 0,0 km/h (0 Bft)
21.11.2016 19:32 11,2 °C 11,2 °C 69 % 1006,1 hPa 0,0 mm 1,8 km/h (1 Bft) O-SO 108 ° 0 min 0,000 mm 0,0 UV-I 0 W/m² 5,7 °C 3,2 km/h (1 Bft)
21.11.2016 19:33 11,1 °C 11,2 °C 69 % 1006,1 hPa 0,0 mm 3,3 km/h (1 Bft) O-SO 108 ° 0 min 0,000 mm 0,0 UV-I 0 W/m² 5,6 °C 4,8 km/h (1 Bft)
21.11.2016 19:34 11,1 °C 11,1 °C 69 % 1006,1 hPa 0,0 mm 3,7 km/h (1 Bft) O-SO 108 ° 0 min 0,000 mm 0,0 UV-I 0 W/m² 5,6 °C 4,8 km/h (1 Bft)
21.11.2016 19:35 11,1 °C 11,2 °C 66 % 1006,1 hPa 0,0 mm 4,3 km/h (1 Bft) O-SO 108 ° 0 min 0,000 mm 0,0 UV-I 0 W/m² 5,0 °C 4,8 km/h (1 Bft)
21.11.2016 19:36 11,1 °C 11,1 °C 66 % 1006,1 hPa 0,0 mm 3,5 km/h (1 Bft) O-SO 108 ° 0 min 0,000 mm 0,0 UV-I 0 W/m² 5,0 °C 4,8 km/h (1 Bft)
21.11.2016 19:37 11,1 °C 11,1 °C 66 % 1006,1 hPa 0,0 mm 3,9 km/h (1 Bft) O-SO 109 ° 0 min 0,000 mm 0,0 UV-I 0 W/m² 5,0 °C 4,8 km/h (1 Bft)
21.11.2016 19:38 11,1 °C 11,2 °C 65 % 1006,1 hPa 0,0 mm 3,8 km/h (1 Bft) O-SO 122 ° 0 min 0,000 mm 0,0 UV-I 0 W/m² 4,8 °C 4,8 km/h (1 Bft)
21.11.2016 19:39 11,2 °C 11,2 °C 65 % 1006,1 hPa 0,0 mm 5,4 km/h (1 Bft) SO 141 ° 0 min 0,000 mm 0,0 UV-I 0 W/m² 4,9 °C 6,4 km/h (2 Bft)
21.11.2016 19:40 11,2 °C 11,2 °C 65 % 1006,1 hPa 0,0 mm 4,4 km/h (1 Bft) SO 141 ° 0 min 0,000 mm 0,0 UV-I 0 W/m² 4,9 °C 4,8 km/h (1 Bft)
21.11.2016 19:41 11,2 °C 11,2 °C 64 % 1006,1 hPa 0,0 mm 3,8 km/h (1 Bft) SO 141 ° 0 min 0,000 mm 0,0 UV-I 0 W/m² 4,6 °C 4,8 km/h (1 Bft)
21.11.2016 19:42 11,2 °C 11,2 °C 64 % 1006,1 hPa 0,0 mm 4,3 km/h (1 Bft) SO 141 ° 0 min 0,000 mm 0,0 UV-I 0 W/m² 4,6 °C 4,8 km/h (1 Bft)
21.11.2016 19:43 11,2 °C 11,3 °C 63 % 1006,0 hPa 0,0 mm 4,1 km/h (1 Bft) O-SO 115 ° 0 min 0,000 mm 0,0 UV-I 0 W/m² 4,4 °C 6,4 km/h (2 Bft)
21.11.2016 19:44 11,3 °C 11,3 °C 64 % 1006,0 hPa 0,0 mm 4,8 km/h (1 Bft) SO 128 ° 0 min 0,000 mm 0,0 UV-I 0 W/m² 4,7 °C 6,4 km/h (2 Bft)
21.11.2016 19:45 11,3 °C 11,3 °C 63 % 1006,1 hPa 0,0 mm 6,1 km/h (2 Bft) S-SO 163 ° 0 min 0,000 mm 0,0 UV-I 0 W/m² 4,5 °C 9,7 km/h (2 Bft)
21.11.2016 19:46 11,4 °C 11,4 °C 63 % 1006,0 hPa 0,0 mm 1,5 km/h (1 Bft) S-SO 163 ° 0 min 0,000 mm 0,0 UV-I 0 W/m² 4,6 °C 3,2 km/h (1 Bft)
21.11.2016 19:47 11,4 °C 11,4 °C 62 % 1006,1 hPa 0,0 mm 2,1 km/h (1 Bft) S-SO 163 ° 0 min 0,000 mm 0,0 UV-I 0 W/m² 4,4 °C 6,4 km/h (2 Bft)
21.11.2016 19:48 11,5 °C 11,5 °C 61 % 1006,1 hPa 0,0 mm 2,5 km/h (1 Bft) S-SO 158 ° 0 min 0,000 mm 0,0 UV-I 0 W/m² 4,2 °C 3,2 km/h (1 Bft)
21.11.2016 19:49 11,6 °C 11,6 °C 62 % 1006,1 hPa 0,0 mm 3,1 km/h (1 Bft) S-SO 158 ° 0 min 0,000 mm 0,0 UV-I 0 W/m² 4,6 °C 4,8 km/h (1 Bft)
21.11.2016 19:50 11,6 °C 11,6 °C 61 % 1006,1 hPa 0,0 mm 2,1 km/h (1 Bft) S-SO 158 ° 0 min 0,000 mm 0,0 UV-I 0 W/m² 4,3 °C 3,2 km/h (1 Bft)
21.11.2016 19:51 11,7 °C 11,7 °C 61 % 1006,1 hPa 0,0 mm 1,0 km/h (0 Bft) S-SO 158 ° 0 min 0,000 mm 0,0 UV-I 0 W/m² 4,4 °C 1,6 km/h (1 Bft)
21.11.2016 19:52 11,8 °C 11,8 °C 61 % 1006,1 hPa 0,0 mm 0,0 km/h (0 Bft) S-SO 158 ° 0 min 0,000 mm 0,0 UV-I 0 W/m² 4,5 °C 0,0 km/h (0 Bft)
21.11.2016 19:53 11,8 °C 11,8 °C 64 % 1006,1 hPa 0,0 mm 0,8 km/h (0 Bft) S-SO 158 ° 0 min 0,000 mm 0,0 UV-I 0 W/m² 5,2 °C 1,6 km/h (1 Bft)
21.11.2016 19:54 11,9 °C 11,9 °C 65 % 1006,1 hPa 0,0 mm 0,4 km/h (0 Bft) S-SO 158 ° 0 min 0,000 mm 0,0 UV-I 0 W/m² 5,5 °C 1,6 km/h (1 Bft)
21.11.2016 19:55 11,9 °C 11,9 °C 65 % 1006,1 hPa 0,0 mm 0,0 km/h (0 Bft) S-SO 158 ° 0 min 0,000 mm 0,0 UV-I 0 W/m² 5,5 °C 0,0 km/h (0 Bft)
21.11.2016 19:56 11,9 °C 11,9 °C 65 % 1006,1 hPa 0,0 mm 0,7 km/h (0 Bft) S-SO 158 ° 0 min 0,000 mm 0,0 UV-I 0 W/m² 5,5 °C 1,6 km/h (1 Bft)
21.11.2016 19:57 11,9 °C 11,9 °C 65 % 1006,1 hPa 0,0 mm 0,3 km/h (0 Bft) S-SO 158 ° 0 min 0,000 mm 0,0 UV-I 0 W/m² 5,5 °C 1,6 km/h (1 Bft)
21.11.2016 19:58 11,9 °C 11,9 °C 66 % 1006,1 hPa 0,0 mm 1,6 km/h (1 Bft) S-SO 158 ° 0 min 0,000 mm 0,0 UV-I 0 W/m² 5,8 °C 3,2 km/h (1 Bft)
21.11.2016 19:59 11,9 °C 11,9 °C 66 % 1006,1 hPa 0,0 mm 1,4 km/h (1 Bft) S-SO 158 ° 0 min 0,000 mm 0,0 UV-I 0 W/m² 5,8 °C 1,6 km/h (1 Bft)
21.11.2016 20:00 11,9 °C 11,9 °C 66 % 1006,2 hPa 0,0 mm 2,1 km/h (1 Bft) S-SO 158 ° 0 min 0,000 mm 0,0 UV-I 0 W/m² 5,8 °C 3,2 km/h (1 Bft)
21.11.2016 20:01 11,9 °C 11,9 °C 66 % 1006,2 hPa 0,0 mm 2,3 km/h (1 Bft) S-SO 158 ° 0 min 0,025 mm 0,0 UV-I 0 W/m² 5,8 °C 3,2 km/h (1 Bft)
21.11.2016 20:02 11,9 °C 11,9 °C 66 % 1006,3 hPa 0,0 mm 0,7 km/h (0 Bft) S-SO 158 ° 0 min 0,000 mm 0,0 UV-I 0 W/m² 5,8 °C 1,6 km/h (1 Bft)
21.11.2016 20:03 11,9 °C 11,9 °C 65 % 1006,3 hPa 0,0 mm 2,0 km/h (1 Bft) S-SO 158 ° 0 min 0,000 mm 0,0 UV-I 0 W/m² 5,5 °C 3,2 km/h (1 Bft)
21.11.2016 20:04 11,8 °C 11,9 °C 66 % 1006,3 hPa 0,0 mm 1,2 km/h (1 Bft) S-SO 158 ° 0 min 0,000 mm 0,0 UV-I 0 W/m² 5,7 °C 3,2 km/h (1 Bft)
21.11.2016 20:05 11,9 °C 11,9 °C 66 % 1006,2 hPa 0,0 mm 1,1 km/h (1 Bft) S-SO 158 ° 0 min 0,000 mm 0,0 UV-I 0 W/m² 5,8 °C 3,2 km/h (1 Bft)
21.11.2016 20:06 11,8 °C 11,9 °C 66 % 1006,2 hPa 0,0 mm 1,1 km/h (1 Bft) S-SO 158 ° 0 min 0,000 mm 0,0 UV-I 0 W/m² 5,7 °C 3,2 km/h (1 Bft)
21.11.2016 20:07 11,8 °C 11,8 °C 66 % 1006,1 hPa 0,0 mm 1,1 km/h (1 Bft) S-SO 158 ° 0 min 0,000 mm 0,0 UV-I 0 W/m² 5,7 °C 3,2 km/h (1 Bft)
21.11.2016 20:08 11,8 °C 11,8 °C 66 % 1006,1 hPa 0,0 mm 0,7 km/h (0 Bft) S-SO 158 ° 0 min 0,000 mm 0,0 UV-I 0 W/m² 5,7 °C 1,6 km/h (1 Bft)
21.11.2016 20:09 11,8 °C 11,8 °C 66 % 1006,1 hPa 0,0 mm 2,2 km/h (1 Bft) S-SO 158 ° 0 min 0,000 mm 0,0 UV-I 0 W/m² 5,7 °C 3,2 km/h (1 Bft)
21.11.2016 20:10 11,8 °C 11,8 °C 63 % 1006,2 hPa 0,0 mm 2,7 km/h (1 Bft) S-SO 158 ° 0 min 0,000 mm 0,0 UV-I 0 W/m² 5,0 °C 3,2 km/h (1 Bft)
21.11.2016 20:11 11,8 °C 11,8 °C 63 % 1006,2 hPa 0,0 mm 2,1 km/h (1 Bft) S-SO 158 ° 0 min 0,000 mm 0,0 UV-I 0 W/m² 5,0 °C 3,2 km/h (1 Bft)
21.11.2016 20:12 11,8 °C 11,8 °C 61 % 1006,2 hPa 0,0 mm 1,5 km/h (1 Bft) S-SO 158 ° 0 min 0,000 mm 0,0 UV-I 0 W/m² 4,5 °C 3,2 km/h (1 Bft)
21.11.2016 20:13 11,8 °C 11,8 °C 60 % 1006,2 hPa 0,0 mm 2,2 km/h (1 Bft) S-SO 158 ° 0 min 0,000 mm 0,0 UV-I 0 W/m² 4,3 °C 4,8 km/h (1 Bft)
21.11.2016 20:14 11,8 °C 11,8 °C 61 % 1006,2 hPa 0,0 mm 2,9 km/h (1 Bft) S-SO 158 ° 0 min 0,000 mm 0,0 UV-I 0 W/m² 4,5 °C 4,8 km/h (1 Bft)
21.11.2016 20:15 11,9 °C 11,9 °C 60 % 1006,2 hPa 0,0 mm 3,0 km/h (1 Bft) S-SO 158 ° 0 min 0,000 mm 0,0 UV-I 0 W/m² 4,4 °C 4,8 km/h (1 Bft)
21.11.2016 20:16 11,9 °C 11,9 °C 61 % 1006,2 hPa 0,0 mm 2,6 km/h (1 Bft) S-SO 158 ° 0 min 0,000 mm 0,0 UV-I 0 W/m² 4,6 °C 4,8 km/h (1 Bft)
21.11.2016 20:17 11,9 °C 11,9 °C 63 % 1006,1 hPa 0,0 mm 1,5 km/h (1 Bft) S-SO 158 ° 0 min 0,000 mm 0,0 UV-I 0 W/m² 5,1 °C 3,2 km/h (1 Bft)
21.11.2016 20:18 11,9 °C 12,0 °C 63 % 1006,1 hPa 0,0 mm 0,9 km/h (0 Bft) S-SO 156 ° 0 min 0,000 mm 0,0 UV-I 0 W/m² 5,1 °C 1,6 km/h (1 Bft)
21.11.2016 20:19 12,0 °C 12,0 °C 63 % 1006,1 hPa 0,0 mm 3,1 km/h (1 Bft) O-SO 109 ° 0 min 0,000 mm 0,0 UV-I 0 W/m² 5,2 °C 6,4 km/h (2 Bft)
21.11.2016 20:20 12,1 °C 12,1 °C 60 % 1006,2 hPa 0,0 mm 0,8 km/h (0 Bft) O-SO 109 ° 0 min 0,000 mm 0,0 UV-I 0 W/m² 4,6 °C 3,2 km/h (1 Bft)
21.11.2016 20:21 12,1 °C 12,1 °C 62 % 1006,2 hPa 0,0 mm 2,3 km/h (1 Bft) O-SO 109 ° 0 min 0,000 mm 0,0 UV-I 0 W/m² 5,0 °C 4,8 km/h (1 Bft)
21.11.2016 20:22 12,1 °C 12,1 °C 61 % 1006,2 hPa 0,0 mm 1,3 km/h (1 Bft) O-SO 109 ° 0 min 0,000 mm 0,0 UV-I 0 W/m² 4,8 °C 3,2 km/h (1 Bft)
21.11.2016 20:23 12,1 °C 12,1 °C 61 % 1006,2 hPa 0,0 mm 3,5 km/h (1 Bft) O-SO 108 ° 0 min 0,000 mm 0,0 UV-I 0 W/m² 4,8 °C 6,4 km/h (2 Bft)
21.11.2016 20:24 12,1 °C 12,1 °C 61 % 1006,2 hPa 0,0 mm 2,3 km/h (1 Bft) SO 127 ° 0 min 0,000 mm 0,0 UV-I 0 W/m² 4,8 °C 4,8 km/h (1 Bft)
21.11.2016 20:25 12,2 °C 12,2 °C 59 % 1006,1 hPa 0,0 mm 1,7 km/h (1 Bft) SO 127 ° 0 min 0,000 mm 0,0 UV-I 0 W/m² 4,4 °C 3,2 km/h (1 Bft)
21.11.2016 20:26 12,2 °C 12,2 °C 59 % 1006,1 hPa 0,0 mm 3,7 km/h (1 Bft) SO 141 ° 0 min 0,000 mm 0,0 UV-I 0 W/m² 4,4 °C 8,0 km/h (2 Bft)
21.11.2016 20:27 12,2 °C 12,2 °C 60 % 1006,1 hPa 0,0 mm 3,5 km/h (1 Bft) O 86 ° 0 min 0,000 mm 0,0 UV-I 0 W/m² 4,7 °C 4,8 km/h (1 Bft)
21.11.2016 20:28 12,2 °C 12,2 °C 59 % 1006,2 hPa 0,0 mm 3,4 km/h (1 Bft) O-SO 110 ° 0 min 0,000 mm 0,0 UV-I 0 W/m² 4,4 °C 6,4 km/h (2 Bft)
21.11.2016 20:29 12,2 °C 12,2 °C 59 % 1006,3 hPa 0,0 mm 3,8 km/h (1 Bft) S-SO 152 ° 0 min 0,000 mm 0,0 UV-I 0 W/m² 4,4 °C 6,4 km/h (2 Bft)
21.11.2016 20:30 12,3 °C 12,3 °C 59 % 1006,1 hPa 0,0 mm 3,3 km/h (1 Bft) O-SO 113 ° 0 min 0,000 mm 0,0 UV-I 0 W/m² 4,5 °C 6,4 km/h (2 Bft)
21.11.2016 20:31 12,3 °C 12,3 °C 59 % 1006,2 hPa 0,0 mm 3,3 km/h (1 Bft) O 91 ° 0 min 0,000 mm 0,0 UV-I 0 W/m² 4,5 °C 4,8 km/h (1 Bft)
21.11.2016 20:32 12,3 °C 12,3 °C 60 % 1006,2 hPa 0,0 mm 4,1 km/h (1 Bft) SO 132 ° 0 min 0,000 mm 0,0 UV-I 0 W/m² 4,8 °C 6,4 km/h (2 Bft)
21.11.2016 20:33 12,3 °C 12,3 °C 61 % 1006,1 hPa 0,0 mm 2,7 km/h (1 Bft) O-SO 108 ° 0 min 0,000 mm 0,0 UV-I 0 W/m² 5,0 °C 4,8 km/h (1 Bft)
21.11.2016 20:34 12,4 °C 12,4 °C 59 % 1006,2 hPa 0,0 mm 2,7 km/h (1 Bft) O-SO 109 ° 0 min 0,000 mm 0,0 UV-I 0 W/m² 4,6 °C 4,8 km/h (1 Bft)
21.11.2016 20:35 12,4 °C 12,4 °C 59 % 1006,1 hPa 0,0 mm 2,8 km/h (1 Bft) O-SO 107 ° 0 min 0,000 mm 0,0 UV-I 0 W/m² 4,6 °C 4,8 km/h (1 Bft)
21.11.2016 20:36 12,4 °C 12,4 °C 59 % 1006,1 hPa 0,0 mm 3,2 km/h (1 Bft) O-SO 107 ° 0 min 0,000 mm 0,0 UV-I 0 W/m² 4,6 °C 4,8 km/h (1 Bft)
21.11.2016 20:37 12,4 °C 12,4 °C 59 % 1006,1 hPa 0,0 mm 2,8 km/h (1 Bft) O-SO 107 ° 0 min 0,000 mm 0,0 UV-I 0 W/m² 4,6 °C 4,8 km/h (1 Bft)
21.11.2016 20:38 12,5 °C 12,5 °C 59 % 1006,1 hPa 0,0 mm 4,7 km/h (1 Bft) O 93 ° 0 min 0,000 mm 0,0 UV-I 0 W/m² 4,7 °C 6,4 km/h (2 Bft)
21.11.2016 20:39 12,5 °C 12,5 °C 60 % 1006,1 hPa 0,0 mm 4,5 km/h (1 Bft) O-SO 113 ° 0 min 0,000 mm 0,0 UV-I 0 W/m² 5,0 °C 9,7 km/h (2 Bft)
21.11.2016 20:40 12,6 °C 12,6 °C 60 % 1006,1 hPa 0,0 mm 4,0 km/h (1 Bft) O 91 ° 0 min 0,000 mm 0,0 UV-I 0 W/m² 5,0 °C 4,8 km/h (1 Bft)
21.11.2016 20:41 12,6 °C 12,6 °C 60 % 1006,1 hPa 0,0 mm 5,4 km/h (1 Bft) O 100 ° 0 min 0,000 mm 0,0 UV-I 0 W/m² 5,0 °C 12,9 km/h (3 Bft)
21.11.2016 20:42 12,6 °C 12,6 °C 59 % 1006,1 hPa 0,0 mm 7,2 km/h (2 Bft) O-SO 121 ° 0 min 0,000 mm 0,0 UV-I 0 W/m² 4,8 °C 11,3 km/h (2 Bft)
21.11.2016 20:43 12,6 °C 12,6 °C 58 % 1006,2 hPa 0,0 mm 5,0 km/h (1 Bft) O-SO 113 ° 0 min 0,000 mm 0,0 UV-I 0 W/m² 4,6 °C 6,4 km/h (2 Bft)
21.11.2016 20:44 12,7 °C 12,7 °C 59 % 1006,2 hPa 0,0 mm 2,7 km/h (1 Bft) O-SO 107 ° 0 min 0,000 mm 0,0 UV-I 0 W/m² 4,9 °C 4,8 km/h (1 Bft)
21.11.2016 20:45 12,7 °C 12,7 °C 58 % 1006,2 hPa 0,0 mm 3,2 km/h (1 Bft) S-SO 159 ° 0 min 0,000 mm 0,0 UV-I 0 W/m² 4,7 °C 6,4 km/h (2 Bft)
21.11.2016 20:46 12,7 °C 12,7 °C 58 % 1006,1 hPa 0,0 mm 1,7 km/h (1 Bft) S-SO 159 ° 0 min 0,000 mm 0,0 UV-I 0 W/m² 4,7 °C 3,2 km/h (1 Bft)
21.11.2016 20:47 12,7 °C 12,7 °C 58 % 1006,2 hPa 0,0 mm 1,5 km/h (1 Bft) O-SO 120 ° 0 min 0,000 mm 0,0 UV-I 0 W/m² 4,7 °C 3,2 km/h (1 Bft)
21.11.2016 20:48 12,8 °C 12,8 °C 58 % 1006,1 hPa 0,0 mm 1,7 km/h (1 Bft) O-SO 120 ° 0 min 0,000 mm 0,0 UV-I 0 W/m² 4,7 °C 3,2 km/h (1 Bft)
21.11.2016 20:49 12,8 °C 12,8 °C 57 % 1006,1 hPa 0,0 mm 2,1 km/h (1 Bft) O-SO 120 ° 0 min 0,000 mm 0,0 UV-I 0 W/m² 4,5 °C 3,2 km/h (1 Bft)
21.11.2016 20:50 12,8 °C 12,8 °C 57 % 1006,1 hPa 0,0 mm 3,0 km/h (1 Bft) O-SO 119 ° 0 min 0,000 mm 0,0 UV-I 0 W/m² 4,5 °C 6,4 km/h (2 Bft)
21.11.2016 20:51 12,8 °C 12,8 °C 57 % 1006,0 hPa 0,0 mm 3,3 km/h (1 Bft) O 88 ° 0 min 0,000 mm 0,0 UV-I 0 W/m² 4,5 °C 4,8 km/h (1 Bft)
21.11.2016 20:52 12,8 °C 12,8 °C 57 % 1006,0 hPa 0,0 mm 3,3 km/h (1 Bft) O 88 ° 0 min 0,000 mm 0,0 UV-I 0 W/m² 4,5 °C 4,8 km/h (1 Bft)
21.11.2016 20:53 12,8 °C 12,8 °C 57 % 1006,0 hPa 0,0 mm 1,2 km/h (1 Bft) O 88 ° 0 min 0,000 mm 0,0 UV-I 0 W/m² 4,5 °C 3,2 km/h (1 Bft)
21.11.2016 20:54 12,8 °C 12,8 °C 57 % 1006,0 hPa 0,0 mm 1,7 km/h (1 Bft) O 88 ° 0 min 0,000 mm 0,0 UV-I 0 W/m² 4,5 °C 4,8 km/h (1 Bft)
21.11.2016 20:55 12,9 °C 12,9 °C 55 % 1006,0 hPa 0,0 mm 3,4 km/h (1 Bft) S-SW 195 ° 0 min 0,000 mm 0,0 UV-I 0 W/m² 4,1 °C 4,8 km/h (1 Bft)
21.11.2016 20:56 12,9 °C 12,9 °C 56 % 1006,0 hPa 0,0 mm 3,3 km/h (1 Bft) S-SW 196 ° 0 min 0,000 mm 0,0 UV-I 0 W/m² 4,3 °C 4,8 km/h (1 Bft)
21.11.2016 20:57 12,9 °C 12,9 °C 56 % 1006,0 hPa 0,0 mm 1,8 km/h (1 Bft) S-SW 195 ° 0 min 0,000 mm 0,0 UV-I 0 W/m² 4,3 °C 3,2 km/h (1 Bft)
21.11.2016 20:58 12,9 °C 12,9 °C 57 % 1005,9 hPa 0,0 mm 0,3 km/h (0 Bft) S-SW 196 ° 0 min 0,000 mm 0,0 UV-I 0 W/m² 4,6 °C 1,6 km/h (1 Bft)
21.11.2016 20:59 12,9 °C 13,0 °C 56 % 1005,9 hPa 0,0 mm 1,8 km/h (1 Bft) S-SW 195 ° 0 min 0,000 mm 0,0 UV-I 0 W/m² 4,3 °C 3,2 km/h (1 Bft)
21.11.2016 21:00 13,0 °C 13,0 °C 55 % 1005,9 hPa 0,0 mm 3,2 km/h (1 Bft) S-SO 148 ° 0 min 0,000 mm 0,0 UV-I 0 W/m² 4,2 °C 4,8 km/h (1 Bft)
21.11.2016 21:01 13,1 °C 13,1 °C 56 % 1006,0 hPa 0,0 mm 4,2 km/h (1 Bft) O-SO 109 ° 0 min 0,025 mm 0,0 UV-I 0 W/m² 4,5 °C 4,8 km/h (1 Bft)
21.11.2016 21:02 13,1 °C 13,1 °C 56 % 1006,0 hPa 0,0 mm 2,8 km/h (1 Bft) S-SO 153 ° 0 min 0,000 mm 0,0 UV-I 0 W/m² 4,5 °C 4,8 km/h (1 Bft)
21.11.2016 21:03 13,1 °C 13,1 °C 55 % 1006,0 hPa 0,0 mm 2,5 km/h (1 Bft) S-SO 153 ° 0 min 0,000 mm 0,0 UV-I 0 W/m² 4,3 °C 4,8 km/h (1 Bft)
21.11.2016 21:04 13,1 °C 13,1 °C 56 % 1005,9 hPa 0,0 mm 2,9 km/h (1 Bft) SO 142 ° 0 min 0,000 mm 0,0 UV-I 0 W/m² 4,5 °C 4,8 km/h (1 Bft)
21.11.2016 21:05 13,1 °C 13,1 °C 56 % 1006,0 hPa 0,0 mm 3,7 km/h (1 Bft) O 96 ° 0 min 0,000 mm 0,0 UV-I 0 W/m² 4,5 °C 4,8 km/h (1 Bft)
21.11.2016 21:06 13,1 °C 13,1 °C 56 % 1005,9 hPa 0,0 mm 5,4 km/h (1 Bft) O-SO 120 ° 0 min 0,000 mm 0,0 UV-I 0 W/m² 4,5 °C 9,7 km/h (2 Bft)
21.11.2016 21:07 13,1 °C 13,1 °C 55 % 1006,0 hPa 0,0 mm 2,3 km/h (1 Bft) S-SO 153 ° 0 min 0,000 mm 0,0 UV-I 0 W/m² 4,3 °C 3,2 km/h (1 Bft)
21.11.2016 21:08 13,1 °C 13,1 °C 55 % 1006,0 hPa 0,0 mm 4,2 km/h (1 Bft) O-SO 119 ° 0 min 0,000 mm 0,0 UV-I 0 W/m² 4,3 °C 6,4 km/h (2 Bft)
21.11.2016 21:09 13,1 °C 13,2 °C 55 % 1006,0 hPa 0,0 mm 4,6 km/h (1 Bft) O-SO 110 ° 0 min 0,000 mm 0,0 UV-I 0 W/m² 4,3 °C 6,4 km/h (2 Bft)
21.11.2016 21:10 13,1 °C 13,2 °C 55 % 1006,0 hPa 0,0 mm 3,1 km/h (1 Bft) O-SO 107 ° 0 min 0,000 mm 0,0 UV-I 0 W/m² 4,3 °C 4,8 km/h (1 Bft)
21.11.2016 21:11 13,2 °C 13,2 °C 54 % 1006,0 hPa 0,0 mm 6,1 km/h (2 Bft) SO 136 ° 0 min 0,000 mm 0,0 UV-I 0 W/m² 4,1 °C 9,7 km/h (2 Bft)
21.11.2016 21:12 13,2 °C 13,2 °C 54 % 1005,9 hPa 0,0 mm 3,8 km/h (1 Bft) O-SO 116 ° 0 min 0,000 mm 0,0 UV-I 0 W/m² 4,1 °C 8,0 km/h (2 Bft)
21.11.2016 21:13 13,2 °C 13,2 °C 54 % 1006,0 hPa 0,0 mm 5,2 km/h (1 Bft) O-SO 113 ° 0 min 0,000 mm 0,0 UV-I 0 W/m² 4,1 °C 6,4 km/h (2 Bft)
21.11.2016 21:14 13,2 °C 13,2 °C 56 % 1005,9 hPa 0,0 mm 4,2 km/h (1 Bft) O-SO 115 ° 0 min 0,000 mm 0,0 UV-I 0 W/m² 4,6 °C 4,8 km/h (1 Bft)
21.11.2016 21:15 13,2 °C 13,2 °C 55 % 1005,8 hPa 0,0 mm 2,5 km/h (1 Bft) O-SO 115 ° 0 min 0,000 mm 0,0 UV-I 0 W/m² 4,4 °C 4,8 km/h (1 Bft)
21.11.2016 21:16 13,2 °C 13,2 °C 57 % 1005,9 hPa 0,0 mm 2,0 km/h (1 Bft) O-SO 116 ° 0 min 0,000 mm 0,0 UV-I 0 W/m² 4,9 °C 3,2 km/h (1 Bft)
21.11.2016 21:17 13,2 °C 13,2 °C 54 % 1005,9 hPa 0,0 mm 1,7 km/h (1 Bft) O-SO 116 ° 0 min 0,000 mm 0,0 UV-I 0 W/m² 4,1 °C 4,8 km/h (1 Bft)
21.11.2016 21:18 13,2 °C 13,2 °C 58 % 1005,9 hPa 0,0 mm 1,3 km/h (1 Bft) O-SO 116 ° 0 min 0,000 mm 0,0 UV-I 0 W/m² 5,1 °C 4,8 km/h (1 Bft)
21.11.2016 21:19 13,2 °C 13,2 °C 56 % 1005,9 hPa 0,0 mm 2,3 km/h (1 Bft) O 88 ° 0 min 0,000 mm 0,0 UV-I 0 W/m² 4,6 °C 4,8 km/h (1 Bft)
21.11.2016 21:20 13,2 °C 13,2 °C 55 % 1005,9 hPa 0,0 mm 0,7 km/h (0 Bft) O 87 ° 0 min 0,000 mm 0,0 UV-I 0 W/m² 4,4 °C 3,2 km/h (1 Bft)
21.11.2016 21:21 13,2 °C 13,2 °C 54 % 1005,8 hPa 0,0 mm 0,3 km/h (0 Bft) O 87 ° 0 min 0,000 mm 0,0 UV-I 0 W/m² 4,1 °C 1,6 km/h (1 Bft)
21.11.2016 21:22 13,2 °C 13,2 °C 55 % 1005,8 hPa 0,0 mm 2,3 km/h (1 Bft) O 87 ° 0 min 0,000 mm 0,0 UV-I 0 W/m² 4,4 °C 4,8 km/h (1 Bft)
21.11.2016 21:23 13,2 °C 13,2 °C 58 % 1005,8 hPa 0,0 mm 4,5 km/h (1 Bft) O 88 ° 0 min 0,000 mm 0,0 UV-I 0 W/m² 5,1 °C 4,8 km/h (1 Bft)
21.11.2016 21:24 13,1 °C 13,2 °C 56 % 1005,8 hPa 0,0 mm 5,9 km/h (2 Bft) O-SO 123 ° 0 min 0,000 mm 0,0 UV-I 0 W/m² 4,5 °C 9,7 km/h (2 Bft)
21.11.2016 21:25 13,1 °C 13,2 °C 54 % 1005,8 hPa 0,0 mm 5,2 km/h (1 Bft) S-SO 155 ° 0 min 0,000 mm 0,0 UV-I 0 W/m² 4,0 °C 6,4 km/h (2 Bft)
21.11.2016 21:26 13,1 °C 13,2 °C 54 % 1005,8 hPa 0,0 mm 3,9 km/h (1 Bft) SO 145 ° 0 min 0,000 mm 0,0 UV-I 0 W/m² 4,0 °C 8,0 km/h (2 Bft)
21.11.2016 21:27 13,2 °C 13,2 °C 55 % 1005,8 hPa 0,0 mm 4,7 km/h (1 Bft) O-SO 102 ° 0 min 0,000 mm 0,0 UV-I 0 W/m² 4,4 °C 6,4 km/h (2 Bft)
21.11.2016 21:28 13,1 °C 13,2 °C 56 % 1005,8 hPa 0,0 mm 4,2 km/h (1 Bft) O 88 ° 0 min 0,000 mm 0,0 UV-I 0 W/m² 4,5 °C 4,8 km/h (1 Bft)
21.11.2016 21:29 13,2 °C 13,2 °C 57 % 1005,8 hPa 0,0 mm 5,3 km/h (1 Bft) O 93 ° 0 min 0,000 mm 0,0 UV-I 0 W/m² 4,9 °C 6,4 km/h (2 Bft)
21.11.2016 21:30 13,2 °C 13,2 °C 56 % 1005,8 hPa 0,0 mm 6,8 km/h (2 Bft) O-SO 112 ° 0 min 0,000 mm 0,0 UV-I 0 W/m² 4,6 °C 9,7 km/h (2 Bft)
21.11.2016 21:31 13,1 °C 13,2 °C 56 % 1005,8 hPa 0,0 mm 8,4 km/h (2 Bft) O-SO 107 ° 0 min 0,000 mm 0,0 UV-I 0 W/m² 4,5 °C 11,3 km/h (2 Bft)
21.11.2016 21:32 13,1 °C 13,1 °C 54 % 1005,8 hPa 0,0 mm 5,2 km/h (1 Bft) O 101 ° 0 min 0,000 mm 0,0 UV-I 0 W/m² 4,0 °C 9,7 km/h (2 Bft)
21.11.2016 21:33 13,2 °C 13,2 °C 54 % 1005,8 hPa 0,0 mm 2,6 km/h (1 Bft) O 101 ° 0 min 0,000 mm 0,0 UV-I 0 W/m² 4,1 °C 4,8 km/h (1 Bft)
21.11.2016 21:34 13,2 °C 13,2 °C 55 % 1005,8 hPa 0,0 mm 2,7 km/h (1 Bft) O 101 ° 0 min 0,000 mm 0,0 UV-I 0 W/m² 4,4 °C 4,8 km/h (1 Bft)
21.11.2016 21:35 13,1 °C 13,2 °C 55 % 1005,8 hPa 0,0 mm 4,9 km/h (1 Bft) O 89 ° 0 min 0,000 mm 0,0 UV-I 0 W/m² 4,3 °C 6,4 km/h (2 Bft)
21.11.2016 21:36 13,2 °C 13,2 °C 57 % 1005,8 hPa 0,0 mm 5,6 km/h (1 Bft) O 80 ° 0 min 0,000 mm 0,0 UV-I 0 W/m² 4,9 °C 6,4 km/h (2 Bft)
21.11.2016 21:37 13,1 °C 13,2 °C 55 % 1005,8 hPa 0,0 mm 2,5 km/h (1 Bft) O 80 ° 0 min 0,000 mm 0,0 UV-I 0 W/m² 4,3 °C 3,2 km/h (1 Bft)
21.11.2016 21:38 13,2 °C 13,2 °C 55 % 1005,8 hPa 0,0 mm 4,4 km/h (1 Bft) SO 140 ° 0 min 0,000 mm 0,0 UV-I 0 W/m² 4,4 °C 6,4 km/h (2 Bft)
21.11.2016 21:39 13,2 °C 13,2 °C 53 % 1005,8 hPa 0,0 mm 3,8 km/h (1 Bft) SO 144 ° 0 min 0,000 mm 0,0 UV-I 0 W/m² 3,8 °C 8,0 km/h (2 Bft)
21.11.2016 21:40 13,2 °C 13,2 °C 54 % 1005,7 hPa 0,0 mm 5,0 km/h (1 Bft) SO 126 ° 0 min 0,000 mm 0,0 UV-I 0 W/m² 4,1 °C 8,0 km/h (2 Bft)
21.11.2016 21:41 13,2 °C 13,3 °C 54 % 1005,7 hPa 0,0 mm 6,0 km/h (2 Bft) O-SO 116 ° 0 min 0,000 mm 0,0 UV-I 0 W/m² 4,1 °C 6,4 km/h (2 Bft)
21.11.2016 21:42 13,3 °C 13,3 °C 54 % 1005,7 hPa 0,0 mm 6,1 km/h (2 Bft) O 90 ° 0 min 0,000 mm 0,0 UV-I 0 W/m² 4,2 °C 8,0 km/h (2 Bft)
21.11.2016 21:43 13,3 °C 13,3 °C 55 % 1005,6 hPa 0,0 mm 5,6 km/h (1 Bft) O-SO 104 ° 0 min 0,000 mm 0,0 UV-I 0 W/m² 4,5 °C 9,7 km/h (2 Bft)
21.11.2016 21:44 13,3 °C 13,3 °C 56 % 1005,6 hPa 0,0 mm 3,2 km/h (1 Bft) O 99 ° 0 min 0,000 mm 0,0 UV-I 0 W/m² 4,7 °C 4,8 km/h (1 Bft)
21.11.2016 21:45 13,3 °C 13,3 °C 55 % 1005,7 hPa 0,0 mm 4,0 km/h (1 Bft) S-SO 165 ° 0 min 0,000 mm 0,0 UV-I 0 W/m² 4,5 °C 6,4 km/h (2 Bft)
21.11.2016 21:46 13,3 °C 13,3 °C 56 % 1005,7 hPa 0,0 mm 2,3 km/h (1 Bft) S-SO 165 ° 0 min 0,000 mm 0,0 UV-I 0 W/m² 4,7 °C 6,4 km/h (2 Bft)
21.11.2016 21:47 13,3 °C 13,3 °C 55 % 1005,7 hPa 0,0 mm 1,3 km/h (1 Bft) S-SO 164 ° 0 min 0,000 mm 0,0 UV-I 0 W/m² 4,5 °C 3,2 km/h (1 Bft)
21.11.2016 21:48 13,3 °C 13,3 °C 55 % 1005,8 hPa 0,0 mm 2,1 km/h (1 Bft) S-SO 164 ° 0 min 0,000 mm 0,0 UV-I 0 W/m² 4,5 °C 3,2 km/h (1 Bft)
21.11.2016 21:49 13,3 °C 13,3 °C 57 % 1005,8 hPa 0,0 mm 1,0 km/h (0 Bft) S-SO 164 ° 0 min 0,000 mm 0,0 UV-I 0 W/m² 5,0 °C 3,2 km/h (1 Bft)
21.11.2016 21:50 13,3 °C 13,3 °C 58 % 1005,7 hPa 0,0 mm 0,1 km/h (0 Bft) S-SO 164 ° 0 min 0,000 mm 0,0 UV-I 0 W/m² 5,2 °C 1,6 km/h (1 Bft)
21.11.2016 21:51 13,3 °C 13,3 °C 56 % 1005,6 hPa 0,0 mm 2,1 km/h (1 Bft) S-SO 164 ° 0 min 0,000 mm 0,0 UV-I 0 W/m² 4,7 °C 3,2 km/h (1 Bft)
21.11.2016 21:52 13,3 °C 13,3 °C 55 % 1005,7 hPa 0,0 mm 2,4 km/h (1 Bft) S-SO 164 ° 0 min 0,000 mm 0,0 UV-I 0 W/m² 4,5 °C 3,2 km/h (1 Bft)
21.11.2016 21:53 13,3 °C 13,3 °C 55 % 1005,7 hPa 0,0 mm 6,0 km/h (2 Bft) S-SO 159 ° 0 min 0,000 mm 0,0 UV-I 0 W/m² 4,5 °C 8,0 km/h (2 Bft)
21.11.2016 21:54 13,3 °C 13,3 °C 54 % 1005,7 hPa 0,0 mm 4,1 km/h (1 Bft) O 98 ° 0 min 0,000 mm 0,0 UV-I 0 W/m² 4,2 °C 6,4 km/h (2 Bft)
21.11.2016 21:55 13,3 °C 13,3 °C 55 % 1005,7 hPa 0,0 mm 2,4 km/h (1 Bft) O 98 ° 0 min 0,000 mm 0,0 UV-I 0 W/m² 4,5 °C 3,2 km/h (1 Bft)
21.11.2016 21:56 13,3 °C 13,3 °C 55 % 1005,8 hPa 0,0 mm 2,8 km/h (1 Bft) O 98 ° 0 min 0,000 mm 0,0 UV-I 0 W/m² 4,5 °C 4,8 km/h (1 Bft)
21.11.2016 21:57 13,3 °C 13,3 °C 55 % 1005,7 hPa 0,0 mm 5,6 km/h (1 Bft) O 85 ° 0 min 0,000 mm 0,0 UV-I 0 W/m² 4,5 °C 9,7 km/h (2 Bft)
21.11.2016 21:58 13,3 °C 13,3 °C 55 % 1005,7 hPa 0,0 mm 4,7 km/h (1 Bft) O-SO 105 ° 0 min 0,000 mm 0,0 UV-I 0 W/m² 4,5 °C 8,0 km/h (2 Bft)
21.11.2016 21:59 13,3 °C 13,3 °C 54 % 1005,7 hPa 0,0 mm 4,1 km/h (1 Bft) O-SO 105 ° 0 min 0,000 mm 0,0 UV-I 0 W/m² 4,2 °C 4,8 km/h (1 Bft)
21.11.2016 22:00 13,3 °C 13,3 °C 55 % 1005,7 hPa 0,0 mm 4,2 km/h (1 Bft) O 101 ° 0 min 0,000 mm 0,0 UV-I 0 W/m² 4,5 °C 6,4 km/h (2 Bft)
21.11.2016 22:01 13,2 °C 13,3 °C 55 % 1005,7 hPa 0,0 mm 5,1 km/h (1 Bft) O 79 ° 0 min 0,051 mm 0,0 UV-I 0 W/m² 4,4 °C 9,7 km/h (2 Bft)
21.11.2016 22:02 13,2 °C 13,2 °C 56 % 1005,7 hPa 0,0 mm 3,4 km/h (1 Bft) O 79 ° 0 min 0,000 mm 0,0 UV-I 0 W/m² 4,6 °C 6,4 km/h (2 Bft)
21.11.2016 22:03 13,2 °C 13,2 °C 58 % 1005,7 hPa 0,0 mm 2,9 km/h (1 Bft) O 79 ° 0 min 0,000 mm 0,0 UV-I 0 W/m² 5,1 °C 3,2 km/h (1 Bft)
21.11.2016 22:04 13,2 °C 13,2 °C 57 % 1005,7 hPa 0,0 mm 3,0 km/h (1 Bft) O 79 ° 0 min 0,000 mm 0,0 UV-I 0 W/m² 4,9 °C 4,8 km/h (1 Bft)
21.11.2016 22:05 13,2 °C 13,2 °C 55 % 1005,7 hPa 0,0 mm 4,1 km/h (1 Bft) S 173 ° 0 min 0,000 mm 0,0 UV-I 0 W/m² 4,4 °C 8,0 km/h (2 Bft)
21.11.2016 22:06 13,2 °C 13,2 °C 54 % 1005,7 hPa 0,0 mm 4,8 km/h (1 Bft) S-SW 205 ° 0 min 0,000 mm 0,0 UV-I 0 W/m² 4,1 °C 6,4 km/h (2 Bft)
21.11.2016 22:07 13,2 °C 13,2 °C 55 % 1005,7 hPa 0,0 mm 2,5 km/h (1 Bft) S-SW 194 ° 0 min 0,000 mm 0,0 UV-I 0 W/m² 4,4 °C 3,2 km/h (1 Bft)
21.11.2016 22:08 13,2 °C 13,2 °C 56 % 1005,6 hPa 0,0 mm 5,0 km/h (1 Bft) S-SO 155 ° 0 min 0,000 mm 0,0 UV-I 0 W/m² 4,6 °C 8,0 km/h (2 Bft)
21.11.2016 22:09 13,2 °C 13,2 °C 56 % 1005,7 hPa 0,0 mm 4,1 km/h (1 Bft) S-SO 155 ° 0 min 0,000 mm 0,0 UV-I 0 W/m² 4,6 °C 4,8 km/h (1 Bft)
21.11.2016 22:10 13,2 °C 13,2 °C 56 % 1005,7 hPa 0,0 mm 3,5 km/h (1 Bft) S-SO 155 ° 0 min 0,000 mm 0,0 UV-I 0 W/m² 4,6 °C 4,8 km/h (1 Bft)
21.11.2016 22:11 13,2 °C 13,2 °C 55 % 1005,7 hPa 0,0 mm 3,9 km/h (1 Bft) S-SO 155 ° 0 min 0,000 mm 0,0 UV-I 0 W/m² 4,4 °C 4,8 km/h (1 Bft)
21.11.2016 22:12 13,2 °C 13,2 °C 56 % 1005,7 hPa 0,0 mm 3,7 km/h (1 Bft) S-SO 155 ° 0 min 0,000 mm 0,0 UV-I 0 W/m² 4,6 °C 4,8 km/h (1 Bft)
21.11.2016 22:13 13,2 °C 13,2 °C 55 % 1005,6 hPa 0,0 mm 4,2 km/h (1 Bft) O-SO 120 ° 0 min 0,000 mm 0,0 UV-I 0 W/m² 4,4 °C 4,8 km/h (1 Bft)
21.11.2016 22:14 13,2 °C 13,2 °C 55 % 1005,6 hPa 0,0 mm 4,4 km/h (1 Bft) O 90 ° 0 min 0,000 mm 0,0 UV-I 0 W/m² 4,4 °C 6,4 km/h (2 Bft)
21.11.2016 22:15 13,2 °C 13,2 °C 57 % 1005,6 hPa 0,0 mm 4,6 km/h (1 Bft) O 90 ° 0 min 0,000 mm 0,0 UV-I 0 W/m² 4,9 °C 4,8 km/h (1 Bft)
21.11.2016 22:16 13,1 °C 13,2 °C 58 % 1005,6 hPa 0,0 mm 3,5 km/h (1 Bft) O-NO 76 ° 0 min 0,000 mm 0,0 UV-I 0 W/m² 5,0 °C 4,8 km/h (1 Bft)
21.11.2016 22:17 13,1 °C 13,2 °C 59 % 1005,5 hPa 0,0 mm 3,5 km/h (1 Bft) O 84 ° 0 min 0,000 mm 0,0 UV-I 0 W/m² 5,3 °C 6,4 km/h (2 Bft)
21.11.2016 22:18 13,1 °C 13,2 °C 59 % 1005,4 hPa 0,0 mm 6,7 km/h (2 Bft) O 86 ° 0 min 0,000 mm 0,0 UV-I 0 W/m² 5,3 °C 11,3 km/h (2 Bft)
21.11.2016 22:19 13,1 °C 13,1 °C 59 % 1005,4 hPa 0,0 mm 3,8 km/h (1 Bft) O 86 ° 0 min 0,000 mm 0,0 UV-I 0 W/m² 5,3 °C 4,8 km/h (1 Bft)
21.11.2016 22:20 13,1 °C 13,1 °C 59 % 1005,4 hPa 0,0 mm 2,2 km/h (1 Bft) O 86 ° 0 min 0,000 mm 0,0 UV-I 0 W/m² 5,3 °C 3,2 km/h (1 Bft)
21.11.2016 22:21 13,1 °C 13,1 °C 59 % 1005,5 hPa 0,0 mm 3,7 km/h (1 Bft) O 86 ° 0 min 0,000 mm 0,0 UV-I 0 W/m² 5,3 °C 4,8 km/h (1 Bft)
21.11.2016 22:22 13,1 °C 13,1 °C 55 % 1005,6 hPa 0,0 mm 1,9 km/h (1 Bft) O 86 ° 0 min 0,000 mm 0,0 UV-I 0 W/m² 4,3 °C 4,8 km/h (1 Bft)
21.11.2016 22:23 13,0 °C 13,1 °C 54 % 1005,6 hPa 0,0 mm 0,7 km/h (0 Bft) O 86 ° 0 min 0,000 mm 0,0 UV-I 0 W/m² 3,9 °C 1,6 km/h (1 Bft)
21.11.2016 22:24 13,0 °C 13,0 °C 55 % 1005,6 hPa 0,0 mm 1,1 km/h (1 Bft) O 86 ° 0 min 0,000 mm 0,0 UV-I 0 W/m² 4,2 °C 3,2 km/h (1 Bft)
21.11.2016 22:25 13,0 °C 13,0 °C 57 % 1005,6 hPa 0,0 mm 4,0 km/h (1 Bft) O 86 ° 0 min 0,000 mm 0,0 UV-I 0 W/m² 4,7 °C 4,8 km/h (1 Bft)
21.11.2016 22:26 12,9 °C 13,0 °C 56 % 1005,5 hPa 0,0 mm 5,3 km/h (1 Bft) SO 128 ° 0 min 0,000 mm 0,0 UV-I 0 W/m² 4,3 °C 6,4 km/h (2 Bft)
21.11.2016 22:27 12,9 °C 12,9 °C 55 % 1005,5 hPa 0,0 mm 4,2 km/h (1 Bft) O-SO 108 ° 0 min 0,000 mm 0,0 UV-I 0 W/m² 4,1 °C 4,8 km/h (1 Bft)
21.11.2016 22:28 12,9 °C 12,9 °C 56 % 1005,5 hPa 0,0 mm 2,9 km/h (1 Bft) O-SO 103 ° 0 min 0,000 mm 0,0 UV-I 0 W/m² 4,3 °C 6,4 km/h (2 Bft)
21.11.2016 22:29 12,9 °C 12,9 °C 55 % 1005,5 hPa 0,0 mm 2,9 km/h (1 Bft) O 86 ° 0 min 0,000 mm 0,0 UV-I 0 W/m² 4,1 °C 6,4 km/h (2 Bft)
21.11.2016 22:30 12,9 °C 12,9 °C 54 % 1005,5 hPa 0,0 mm 1,1 km/h (1 Bft) O 86 ° 0 min 0,000 mm 0,0 UV-I 0 W/m² 3,8 °C 3,2 km/h (1 Bft)
21.11.2016 22:31 13,0 °C 13,0 °C 54 % 1005,5 hPa 0,0 mm 3,5 km/h (1 Bft) SO 143 ° 0 min 0,000 mm 0,0 UV-I 0 W/m² 3,9 °C 4,8 km/h (1 Bft)
21.11.2016 22:32 13,0 °C 13,0 °C 56 % 1005,5 hPa 0,0 mm 4,2 km/h (1 Bft) O 92 ° 0 min 0,000 mm 0,0 UV-I 0 W/m² 4,4 °C 4,8 km/h (1 Bft)
21.11.2016 22:33 13,0 °C 13,0 °C 57 % 1005,5 hPa 0,0 mm 5,9 km/h (2 Bft) O-SO 105 ° 0 min 0,000 mm 0,0 UV-I 0 W/m² 4,7 °C 9,7 km/h (2 Bft)
21.11.2016 22:34 12,9 °C 13,0 °C 58 % 1005,5 hPa 0,0 mm 6,1 km/h (2 Bft) O 84 ° 0 min 0,000 mm 0,0 UV-I 0 W/m² 4,8 °C 9,7 km/h (2 Bft)
21.11.2016 22:35 13,0 °C 13,0 °C 57 % 1005,5 hPa 0,0 mm 1,9 km/h (1 Bft) O-NO 65 ° 0 min 0,000 mm 0,0 UV-I 0 W/m² 4,7 °C 4,8 km/h (1 Bft)
21.11.2016 22:36 12,9 °C 13,0 °C 55 % 1005,5 hPa 0,0 mm 3,5 km/h (1 Bft) S-SO 159 ° 0 min 0,000 mm 0,0 UV-I 0 W/m² 4,1 °C 8,0 km/h (2 Bft)
21.11.2016 22:37 13,0 °C 13,0 °C 55 % 1005,6 hPa 0,0 mm 4,3 km/h (1 Bft) O 87 ° 0 min 0,000 mm 0,0 UV-I 0 W/m² 4,2 °C 6,4 km/h (2 Bft)
21.11.2016 22:38 13,0 °C 13,0 °C 55 % 1005,5 hPa 0,0 mm 5,5 km/h (1 Bft) O-SO 110 ° 0 min 0,000 mm 0,0 UV-I 0 W/m² 4,2 °C 6,4 km/h (2 Bft)
21.11.2016 22:39 13,0 °C 13,0 °C 56 % 1005,5 hPa 0,0 mm 6,0 km/h (2 Bft) S-SW 197 ° 0 min 0,000 mm 0,0 UV-I 0 W/m² 4,4 °C 11,3 km/h (2 Bft)
21.11.2016 22:40 13,0 °C 13,0 °C 58 % 1005,5 hPa 0,0 mm 5,7 km/h (1 Bft) S 183 ° 0 min 0,000 mm 0,0 UV-I 0 W/m² 4,9 °C 11,3 km/h (2 Bft)
21.11.2016 22:41 13,0 °C 13,1 °C 56 % 1005,4 hPa 0,0 mm 3,3 km/h (1 Bft) S 183 ° 0 min 0,000 mm 0,0 UV-I 0 W/m² 4,4 °C 4,8 km/h (1 Bft)
21.11.2016 22:42 13,1 °C 13,1 °C 57 % 1005,5 hPa 0,0 mm 6,4 km/h (2 Bft) S-SW 200 ° 0 min 0,000 mm 0,0 UV-I 0 W/m² 4,8 °C 8,0 km/h (2 Bft)
21.11.2016 22:43 13,1 °C 13,1 °C 56 % 1005,5 hPa 0,0 mm 0,8 km/h (0 Bft) S-SW 200 ° 0 min 0,000 mm 0,0 UV-I 0 W/m² 4,5 °C 3,2 km/h (1 Bft)
21.11.2016 22:44 13,0 °C 13,1 °C 57 % 1005,4 hPa 0,0 mm 3,4 km/h (1 Bft) O-SO 106 ° 0 min 0,000 mm 0,0 UV-I 0 W/m² 4,7 °C 6,4 km/h (2 Bft)
21.11.2016 22:45 13,0 °C 13,0 °C 58 % 1005,4 hPa 0,0 mm 4,1 km/h (1 Bft) O-SO 107 ° 0 min 0,000 mm 0,0 UV-I 0 W/m² 4,9 °C 4,8 km/h (1 Bft)
21.11.2016 22:46 12,9 °C 13,0 °C 57 % 1005,4 hPa 0,0 mm 3,6 km/h (1 Bft) O-SO 107 ° 0 min 0,000 mm 0,0 UV-I 0 W/m² 4,6 °C 4,8 km/h (1 Bft)
21.11.2016 22:47 12,9 °C 12,9 °C 56 % 1005,5 hPa 0,0 mm 2,8 km/h (1 Bft) O-SO 107 ° 0 min 0,000 mm 0,0 UV-I 0 W/m² 4,3 °C 4,8 km/h (1 Bft)
21.11.2016 22:48 12,9 °C 12,9 °C 55 % 1005,5 hPa 0,0 mm 2,7 km/h (1 Bft) O-SO 107 ° 0 min 0,000 mm 0,0 UV-I 0 W/m² 4,1 °C 3,2 km/h (1 Bft)
21.11.2016 22:49 12,9 °C 12,9 °C 54 % 1005,4 hPa 0,0 mm 3,5 km/h (1 Bft) O-SO 107 ° 0 min 0,000 mm 0,0 UV-I 0 W/m² 3,8 °C 4,8 km/h (1 Bft)
21.11.2016 22:50 12,9 °C 12,9 °C 54 % 1005,4 hPa 0,0 mm 4,8 km/h (1 Bft) O-SO 107 ° 0 min 0,000 mm 0,0 UV-I 0 W/m² 3,8 °C 6,4 km/h (2 Bft)
21.11.2016 22:51 12,9 °C 12,9 °C 54 % 1005,4 hPa 0,0 mm 4,2 km/h (1 Bft) O-SO 107 ° 0 min 0,000 mm 0,0 UV-I 0 W/m² 3,8 °C 4,8 km/h (1 Bft)
21.11.2016 22:52 12,9 °C 12,9 °C 54 % 1005,4 hPa 0,0 mm 4,2 km/h (1 Bft) O-SO 107 ° 0 min 0,000 mm 0,0 UV-I 0 W/m² 3,8 °C 4,8 km/h (1 Bft)
21.11.2016 22:53 12,9 °C 12,9 °C 54 % 1005,3 hPa 0,0 mm 2,6 km/h (1 Bft) O-SO 107 ° 0 min 0,000 mm 0,0 UV-I 0 W/m² 3,8 °C 3,2 km/h (1 Bft)
21.11.2016 22:54 13,0 °C 13,0 °C 55 % 1005,4 hPa 0,0 mm 2,3 km/h (1 Bft) O-SO 107 ° 0 min 0,000 mm 0,0 UV-I 0 W/m² 4,2 °C 3,2 km/h (1 Bft)
21.11.2016 22:55 13,0 °C 13,0 °C 55 % 1005,4 hPa 0,0 mm 2,2 km/h (1 Bft) O-SO 107 ° 0 min 0,000 mm 0,0 UV-I 0 W/m² 4,2 °C 3,2 km/h (1 Bft)
21.11.2016 22:56 13,1 °C 13,1 °C 54 % 1005,4 hPa 0,0 mm 1,3 km/h (1 Bft) O-SO 107 ° 0 min 0,000 mm 0,0 UV-I 0 W/m² 4,0 °C 4,8 km/h (1 Bft)
21.11.2016 22:57 13,0 °C 13,1 °C 54 % 1005,4 hPa 0,0 mm 0,9 km/h (0 Bft) O-SO 107 ° 0 min 0,000 mm 0,0 UV-I 0 W/m² 3,9 °C 3,2 km/h (1 Bft)
21.11.2016 22:58 13,1 °C 13,1 °C 56 % 1005,4 hPa 0,0 mm 1,1 km/h (1 Bft) O-SO 107 ° 0 min 0,000 mm 0,0 UV-I 0 W/m² 4,5 °C 3,2 km/h (1 Bft)
21.11.2016 22:59 13,1 °C 13,1 °C 59 % 1005,4 hPa 0,0 mm 2,4 km/h (1 Bft) O-SO 107 ° 0 min 0,000 mm 0,0 UV-I 0 W/m² 5,3 °C 3,2 km/h (1 Bft)
21.11.2016 23:00 13,1 °C 13,1 °C 59 % 1005,4 hPa 0,0 mm 1,3 km/h (1 Bft) O-SO 107 ° 0 min 0,000 mm 0,0 UV-I 0 W/m² 5,3 °C 3,2 km/h (1 Bft)
21.11.2016 23:01 13,1 °C 13,1 °C 58 % 1005,4 hPa 0,0 mm 0,3 km/h (0 Bft) O-SO 107 ° 0 min 0,051 mm 0,0 UV-I 0 W/m² 5,0 °C 1,6 km/h (1 Bft)
21.11.2016 23:02 13,1 °C 13,1 °C 56 % 1005,4 hPa 0,0 mm 1,0 km/h (0 Bft) O-SO 107 ° 0 min 0,000 mm 0,0 UV-I 0 W/m² 4,5 °C 1,6 km/h (1 Bft)
21.11.2016 23:03 13,1 °C 13,1 °C 56 % 1005,4 hPa 0,0 mm 0,0 km/h (0 Bft) O-SO 107 ° 0 min 0,000 mm 0,0 UV-I 0 W/m² 4,5 °C 0,0 km/h (0 Bft)
21.11.2016 23:04 13,1 °C 13,1 °C 56 % 1005,4 hPa 0,0 mm 1,5 km/h (1 Bft) O-SO 107 ° 0 min 0,000 mm 0,0 UV-I 0 W/m² 4,5 °C 3,2 km/h (1 Bft)
21.11.2016 23:05 13,0 °C 13,1 °C 56 % 1005,5 hPa 0,0 mm 3,0 km/h (1 Bft) O-SO 107 ° 0 min 0,000 mm 0,0 UV-I 0 W/m² 4,4 °C 4,8 km/h (1 Bft)
21.11.2016 23:06 13,0 °C 13,0 °C 60 % 1005,4 hPa 0,0 mm 3,6 km/h (1 Bft) N-NW 348 ° 0 min 0,000 mm 0,0 UV-I 0 W/m² 5,4 °C 6,4 km/h (2 Bft)
21.11.2016 23:07 12,9 °C 13,0 °C 59 % 1005,4 hPa 0,0 mm 1,8 km/h (1 Bft) O-NO 67 ° 0 min 0,000 mm 0,0 UV-I 0 W/m² 5,1 °C 3,2 km/h (1 Bft)
21.11.2016 23:08 12,9 °C 13,0 °C 58 % 1005,4 hPa 0,0 mm 1,9 km/h (1 Bft) O-NO 67 ° 0 min 0,000 mm 0,0 UV-I 0 W/m² 4,8 °C 3,2 km/h (1 Bft)
21.11.2016 23:09 12,9 °C 12,9 °C 56 % 1005,2 hPa 0,0 mm 0,1 km/h (0 Bft) O-NO 67 ° 0 min 0,000 mm 0,0 UV-I 0 W/m² 4,3 °C 1,6 km/h (1 Bft)
21.11.2016 23:10 12,9 °C 12,9 °C 56 % 1005,3 hPa 0,0 mm 0,0 km/h (0 Bft) O-NO 67 ° 0 min 0,000 mm 0,0 UV-I 0 W/m² 4,3 °C 0,0 km/h (0 Bft)
21.11.2016 23:11 12,9 °C 12,9 °C 55 % 1005,4 hPa 0,0 mm 0,3 km/h (0 Bft) O-NO 67 ° 0 min 0,000 mm 0,0 UV-I 0 W/m² 4,1 °C 1,6 km/h (1 Bft)
21.11.2016 23:12 12,9 °C 12,9 °C 55 % 1005,3 hPa 0,0 mm 2,7 km/h (1 Bft) O-NO 68 ° 0 min 0,000 mm 0,0 UV-I 0 W/m² 4,1 °C 4,8 km/h (1 Bft)
21.11.2016 23:13 12,9 °C 12,9 °C 55 % 1005,4 hPa 0,0 mm 3,6 km/h (1 Bft) SO 143 ° 0 min 0,000 mm 0,0 UV-I 0 W/m² 4,1 °C 4,8 km/h (1 Bft)
21.11.2016 23:14 12,9 °C 12,9 °C 55 % 1005,4 hPa 0,0 mm 1,9 km/h (1 Bft) SO 143 ° 0 min 0,000 mm 0,0 UV-I 0 W/m² 4,1 °C 3,2 km/h (1 Bft)
21.11.2016 23:15 12,9 °C 12,9 °C 54 % 1005,4 hPa 0,0 mm 1,0 km/h (0 Bft) S-SO 160 ° 0 min 0,000 mm 0,0 UV-I 0 W/m² 3,8 °C 3,2 km/h (1 Bft)
21.11.2016 23:16 12,9 °C 12,9 °C 56 % 1005,3 hPa 0,0 mm 0,8 km/h (0 Bft) S-SO 160 ° 0 min 0,000 mm 0,0 UV-I 0 W/m² 4,3 °C 3,2 km/h (1 Bft)
21.11.2016 23:17 12,9 °C 12,9 °C 54 % 1005,2 hPa 0,0 mm 2,3 km/h (1 Bft) S-SO 160 ° 0 min 0,000 mm 0,0 UV-I 0 W/m² 3,8 °C 3,2 km/h (1 Bft)
21.11.2016 23:18 12,9 °C 12,9 °C 55 % 1005,1 hPa 0,0 mm 3,0 km/h (1 Bft) S-SO 160 ° 0 min 0,000 mm 0,0 UV-I 0 W/m² 4,1 °C 6,4 km/h (2 Bft)
21.11.2016 23:19 12,9 °C 12,9 °C 54 % 1005,1 hPa 0,0 mm 1,1 km/h (1 Bft) S-SO 160 ° 0 min 0,000 mm 0,0 UV-I 0 W/m² 3,8 °C 6,4 km/h (2 Bft)
21.11.2016 23:20 12,9 °C 12,9 °C 55 % 1005,1 hPa 0,0 mm 0,1 km/h (0 Bft) S-SO 160 ° 0 min 0,000 mm 0,0 UV-I 0 W/m² 4,1 °C 1,6 km/h (1 Bft)
21.11.2016 23:21 12,9 °C 12,9 °C 53 % 1005,1 hPa 0,0 mm 0,5 km/h (0 Bft) S-SO 160 ° 0 min 0,000 mm 0,0 UV-I 0 W/m² 3,6 °C 1,6 km/h (1 Bft)
21.11.2016 23:22 12,9 °C 12,9 °C 55 % 1005,1 hPa 0,0 mm 2,5 km/h (1 Bft) O-NO 64 ° 0 min 0,000 mm 0,0 UV-I 0 W/m² 4,1 °C 4,8 km/h (1 Bft)
21.11.2016 23:23 12,9 °C 12,9 °C 58 % 1005,0 hPa 0,0 mm 1,5 km/h (1 Bft) O-NO 64 ° 0 min 0,000 mm 0,0 UV-I 0 W/m² 4,8 °C 4,8 km/h (1 Bft)
21.11.2016 23:24 12,9 °C 12,9 °C 56 % 1005,0 hPa 0,0 mm 1,3 km/h (1 Bft) O-NO 64 ° 0 min 0,000 mm 0,0 UV-I 0 W/m² 4,3 °C 3,2 km/h (1 Bft)
21.11.2016 23:25 12,9 °C 12,9 °C 55 % 1005,1 hPa 0,0 mm 0,7 km/h (0 Bft) O-NO 64 ° 0 min 0,000 mm 0,0 UV-I 0 W/m² 4,1 °C 3,2 km/h (1 Bft)
21.11.2016 23:26 12,9 °C 12,9 °C 56 % 1005,1 hPa 0,0 mm 1,0 km/h (0 Bft) O-NO 64 ° 0 min 0,000 mm 0,0 UV-I 0 W/m² 4,3 °C 1,6 km/h (1 Bft)
21.11.2016 23:27 12,9 °C 12,9 °C 55 % 1005,1 hPa 0,0 mm 1,0 km/h (0 Bft) O-NO 64 ° 0 min 0,000 mm 0,0 UV-I 0 W/m² 4,1 °C 3,2 km/h (1 Bft)
21.11.2016 23:28 12,9 °C 12,9 °C 55 % 1005,0 hPa 0,0 mm 1,3 km/h (1 Bft) O-NO 64 ° 0 min 0,000 mm 0,0 UV-I 0 W/m² 4,1 °C 3,2 km/h (1 Bft)
21.11.2016 23:29 12,9 °C 12,9 °C 54 % 1005,1 hPa 0,0 mm 2,6 km/h (1 Bft) O-NO 64 ° 0 min 0,000 mm 0,0 UV-I 0 W/m² 3,8 °C 4,8 km/h (1 Bft)
21.11.2016 23:30 12,9 °C 12,9 °C 56 % 1005,1 hPa 0,0 mm 2,2 km/h (1 Bft) O-NO 64 ° 0 min 0,000 mm 0,0 UV-I 0 W/m² 4,3 °C 4,8 km/h (1 Bft)
21.11.2016 23:31 12,9 °C 12,9 °C 57 % 1005,1 hPa 0,0 mm 0,7 km/h (0 Bft) O-NO 64 ° 0 min 0,000 mm 0,0 UV-I 0 W/m² 4,6 °C 1,6 km/h (1 Bft)
21.11.2016 23:32 12,9 °C 12,9 °C 54 % 1005,1 hPa 0,0 mm 1,4 km/h (1 Bft) O-NO 64 ° 0 min 0,000 mm 0,0 UV-I 0 W/m² 3,8 °C 1,6 km/h (1 Bft)
21.11.2016 23:33 12,9 °C 12,9 °C 55 % 1005,2 hPa 0,0 mm 1,7 km/h (1 Bft) O-NO 64 ° 0 min 0,000 mm 0,0 UV-I 0 W/m² 4,1 °C 3,2 km/h (1 Bft)
21.11.2016 23:34 13,0 °C 13,0 °C 55 % 1005,2 hPa 0,0 mm 1,3 km/h (1 Bft) O-NO 64 ° 0 min 0,000 mm 0,0 UV-I 0 W/m² 4,2 °C 3,2 km/h (1 Bft)
21.11.2016 23:35 13,0 °C 13,0 °C 56 % 1005,2 hPa 0,0 mm 3,0 km/h (1 Bft) O-NO 64 ° 0 min 0,000 mm 0,0 UV-I 0 W/m² 4,4 °C 4,8 km/h (1 Bft)
21.11.2016 23:36 13,0 °C 13,0 °C 56 % 1005,1 hPa 0,0 mm 3,9 km/h (1 Bft) O-SO 117 ° 0 min 0,000 mm 0,0 UV-I 0 W/m² 4,4 °C 6,4 km/h (2 Bft)
21.11.2016 23:37 12,9 °C 13,0 °C 54 % 1005,2 hPa 0,0 mm 2,3 km/h (1 Bft) O-SO 117 ° 0 min 0,000 mm 0,0 UV-I 0 W/m² 3,8 °C 3,2 km/h (1 Bft)
21.11.2016 23:38 12,9 °C 13,0 °C 54 % 1005,2 hPa 0,0 mm 1,8 km/h (1 Bft) O-SO 117 ° 0 min 0,000 mm 0,0 UV-I 0 W/m² 3,8 °C 3,2 km/h (1 Bft)
21.11.2016 23:39 13,0 °C 13,0 °C 54 % 1005,1 hPa 0,0 mm 0,0 km/h (0 Bft) O-SO 117 ° 0 min 0,000 mm 0,0 UV-I 0 W/m² 3,9 °C 0,0 km/h (0 Bft)
21.11.2016 23:40 13,0 °C 13,0 °C 53 % 1005,1 hPa 0,0 mm 0,9 km/h (0 Bft) O-SO 117 ° 0 min 0,000 mm 0,0 UV-I 0 W/m² 3,6 °C 3,2 km/h (1 Bft)
21.11.2016 23:41 13,0 °C 13,0 °C 55 % 1005,2 hPa 0,0 mm 2,1 km/h (1 Bft) O-SO 117 ° 0 min 0,000 mm 0,0 UV-I 0 W/m² 4,2 °C 3,2 km/h (1 Bft)
21.11.2016 23:42 13,0 °C 13,0 °C 54 % 1005,2 hPa 0,0 mm 0,7 km/h (0 Bft) O-SO 117 ° 0 min 0,000 mm 0,0 UV-I 0 W/m² 3,9 °C 1,6 km/h (1 Bft)
21.11.2016 23:43 13,1 °C 13,1 °C 54 % 1005,2 hPa 0,0 mm 1,3 km/h (1 Bft) O-SO 117 ° 0 min 0,000 mm 0,0 UV-I 0 W/m² 4,0 °C 3,2 km/h (1 Bft)
21.11.2016 23:44 13,1 °C 13,1 °C 54 % 1005,1 hPa 0,0 mm 0,7 km/h (0 Bft) O-SO 117 ° 0 min 0,000 mm 0,0 UV-I 0 W/m² 4,0 °C 3,2 km/h (1 Bft)
21.11.2016 23:45 13,1 °C 13,1 °C 55 % 1005,1 hPa 0,0 mm 1,3 km/h (1 Bft) O-SO 117 ° 0 min 0,000 mm 0,0 UV-I 0 W/m² 4,3 °C 3,2 km/h (1 Bft)
21.11.2016 23:46 13,1 °C 13,1 °C 54 % 1005,1 hPa 0,0 mm 0,1 km/h (0 Bft) O-SO 117 ° 0 min 0,000 mm 0,0 UV-I 0 W/m² 4,0 °C 1,6 km/h (1 Bft)
21.11.2016 23:47 13,1 °C 13,1 °C 53 % 1005,2 hPa 0,0 mm 0,0 km/h (0 Bft) O-SO 117 ° 0 min 0,000 mm 0,0 UV-I 0 W/m² 3,7 °C 0,0 km/h (0 Bft)
21.11.2016 23:48 13,1 °C 13,1 °C 54 % 1005,2 hPa 0,0 mm 0,0 km/h (0 Bft) O-SO 117 ° 0 min 0,000 mm 0,0 UV-I 0 W/m² 4,0 °C 0,0 km/h (0 Bft)
21.11.2016 23:49 13,1 °C 13,1 °C 56 % 1005,2 hPa 0,0 mm 1,7 km/h (1 Bft) O-SO 117 ° 0 min 0,000 mm 0,0 UV-I 0 W/m² 4,5 °C 3,2 km/h (1 Bft)
21.11.2016 23:50 13,1 °C 13,1 °C 55 % 1005,2 hPa 0,0 mm 3,0 km/h (1 Bft) O-SO 117 ° 0 min 0,000 mm 0,0 UV-I 0 W/m² 4,3 °C 4,8 km/h (1 Bft)
21.11.2016 23:51 13,1 °C 13,1 °C 53 % 1005,2 hPa 0,0 mm 1,3 km/h (1 Bft) O-SO 117 ° 0 min 0,000 mm 0,0 UV-I 0 W/m² 3,7 °C 4,8 km/h (1 Bft)
21.11.2016 23:52 13,1 °C 13,1 °C 53 % 1005,3 hPa 0,0 mm 5,8 km/h (2 Bft) SW 236 ° 0 min 0,000 mm 0,0 UV-I 0 W/m² 3,7 °C 9,7 km/h (2 Bft)
21.11.2016 23:53 13,1 °C 13,1 °C 51 % 1005,3 hPa 0,0 mm 9,2 km/h (2 Bft) S-SO 155 ° 0 min 0,000 mm 0,0 UV-I 0 W/m² 3,2 °C 16,1 km/h (3 Bft)
21.11.2016 23:54 13,2 °C 13,2 °C 51 % 1005,2 hPa 0,0 mm 5,1 km/h (1 Bft) S-SW 193 ° 0 min 0,000 mm 0,0 UV-I 0 W/m² 3,3 °C 12,9 km/h (3 Bft)
21.11.2016 23:55 13,2 °C 13,2 °C 52 % 1005,2 hPa 0,0 mm 2,4 km/h (1 Bft) S-SO 165 ° 0 min 0,000 mm 0,0 UV-I 0 W/m² 3,6 °C 6,4 km/h (2 Bft)
21.11.2016 23:56 13,3 °C 13,3 °C 53 % 1005,2 hPa 0,0 mm 2,2 km/h (1 Bft) S-SO 165 ° 0 min 0,000 mm 0,0 UV-I 0 W/m² 3,9 °C 3,2 km/h (1 Bft)
21.11.2016 23:57 13,3 °C 13,3 °C 53 % 1005,2 hPa 0,0 mm 3,4 km/h (1 Bft) S-SO 165 ° 0 min 0,000 mm 0,0 UV-I 0 W/m² 3,9 °C 6,4 km/h (2 Bft)
21.11.2016 23:58 13,3 °C 13,3 °C 52 % 1005,2 hPa 0,0 mm 1,7 km/h (1 Bft) S-SO 165 ° 0 min 0,000 mm 0,0 UV-I 0 W/m² 3,7 °C 3,2 km/h (1 Bft)
21.11.2016 23:59 13,3 °C 13,3 °C 51 % 1005,3 hPa 0,0 mm 1,2 km/h (1 Bft) S-SO 165 ° 0 min 0,000 mm 0,0 UV-I 0 W/m² 3,4 °C 3,2 km/h (1 Bft)
_ Min-Zeit 00:00 00:00 12:52 13:14 - 23:48 - - - - - - 03:45 23:48
Minimum _ 5,0 °C 5,0 °C 36 % 1003,8 hPa - 0,0 km/h (0 Bft) - - - - - - 0,8 °C 0,0 km/h (0 Bft)
_ Max-Zeit 12:56 12:57 08:21 00:31 23:59 12:27 - - 13:49 14:01 13:47 13:45 11:33 12:27
Maximum _ 17,9 °C 17,9 °C 77 % 1009,5 hPa 0,0 mm 14,9 km/h
S (3 Bft)
- - 1 min 0,127 mm 1,3 UV-I 350 W/m² 6,8 °C 27,4 km/h
O-NO (4 Bft)
Durchschnitt _ 11,8 °C 11,8 °C 58 % 1006,1 hPa #0,0 mm 3,1 km/h (1 Bft) S-SO - #7 min. #1,143 mm 1,0 UV-I 33 W/m² 3,5 °C 5,3 km/h (1 Bft)